     2              OBSERVATION DATA                        RINEX VERSION / TYPE
ASHCAN V. 1.94 20000418 20:20:47UTC                         PGM / RUN BY / DATE
WYE_ HECTOR_NE_WYE                                          MARKER NAME
JEG                                                         OBSERVER / AGENCY
LP03042 ASHTECH Z-XII3 CB00 1D02                            REC # / TYPE / VERS
CR519993004 ASH701945B_M                                    ANT # / TYPE
        0.0000        0.0000        0.0000                  APPROX POSITION XYZ
        0.0000        0.0000        0.0000                  ANTENNA: DELTA H/E/N
     1     1                                                WAVELENGTH FACT L1/2
     5    L1    L2    C1    P1    P2                        # / TYPES OF OBSERV
  1980     9     1    19     9   32.000000                  TIME OF FIRST OBS
  1980     9     1    20    15   31.000000                  TIME OF LAST OBS
     1                                                      INTERVAL
                                                            END OF HEADER
 80  9  1 19  9 32.0000000  0  3 24  4  9                            0.000000000
    -32454.010 9    -22706.99648  20182410.795    20182410.8284   20182419.6654
    109787.476 9     78117.95748  21425818.311    21425818.5554   21425826.3094
    105538.082 9     69890.03047  22455865.490    22455864.6984   22455877.1844
 80  9  1 19  9 33.0000000  0  3 24  4  9                            0.000000000
    -33075.664 9    -23191.40148  20182292.538    20182292.5304   20182301.3664
    111704.693 9     79611.89348  21426183.375    21426183.4124   21426191.1734
    107475.832 9     71399.95847  22456234.338    22456233.6534   22456245.9414
 80  9  1 19  9 34.0000000  0  3 24  4  9                            0.000000000
    -33697.092 9    -23675.63048  20182174.223    20182174.2614   20182183.1124
    113621.939 9     81105.85248  21426548.167    21426548.2494   21426556.0194
    109413.611 9     72909.91047  22456602.957    22456602.2784   22456614.7324
 80  9  1 19  9 35.0000000  0  3 24  4  9                            0.000000000
    -34317.849 9    -24159.33648  20182056.047    20182056.1334   20182064.9934
    115539.668 9     82600.18648  21426913.131    21426913.1574   21426920.9384
    111351.821 9     74420.19747  22456971.732    22456970.9634   22456983.5614
 80  9  1 19  9 36.0000000  0  3 24  4  9                            0.000000000
    -34938.374 9    -24642.85948  20181937.928    20181938.0654   20181946.9164
    117457.444 9     84094.55648  21427278.054    21427278.0844   21427285.8844
    113290.063 9     75930.51047  22457340.402    22457339.6774   22457352.4054
 80  9  1 19  9 37.0000000  0  3 24  4  9                            0.000000000
    -35558.582 9    -25126.13949  20181819.916    20181820.0474   20181828.9074
    119375.313 9     85588.99748  21427643.280    21427643.0414   21427650.8464
    115228.386 9     77440.88647  22457709.264    22457708.7524   22457721.2674
 80  9  1 19  9 38.0000000  0  3 24  4  9                            0.000000000
    -36178.174 9    -25608.93749  20181701.946    20181702.1384   20181710.9834
    121293.590 9     87083.75948  21428008.201    21428008.0894   21428015.9124
    117167.103 9     78951.57247  22458078.145    22458077.4964   22458090.2064
 80  9  1 19  9 39.0000000  0  3 24  4  9                            0.000000000
    -36797.613 9    -26091.61649  20181584.206    20181584.2604   20181593.1134
    123211.819 9     88578.48048  21428373.264    21428373.1164   21428380.9554
    119105.747 9     80462.19747  22458446.913    22458446.2114   22458459.1404
 80  9  1 19  9 40.0000000  0  3 24  4  9                            0.000000000
    -37416.842 9    -26574.13149  20181466.582    20181466.4414   20181475.2904
    125130.061 9     90073.21348  21428738.231    21428738.1334   21428745.9794
    121044.384 9     81972.81747  22458815.572    22458815.0464   22458828.0754
 80  9  1 19  9 41.0000000  0  3 24  4  9                            0.000000000
    -38035.605 9    -27056.28349  20181348.608    20181348.6834   20181357.5334
    127048.560 9     91568.14548  21429103.104    21429103.1814   21429111.0504
    122983.264 9     83483.62647  22459184.641    22459184.0504   22459197.0414
 80  9  1 19  9 42.0000000  0  3 24  4  9                            0.000000000
    -38654.164 9    -27538.27849  20181230.987    20181230.9954   20181239.8524
    128967.080 9     93063.09748  21429468.185    21429468.2884   21429476.1694
    124922.140 9     84994.43247  22459553.542    22459553.0054   22459565.9964
 80  9  1 19  9 43.0000000  0  3 24  4  9                            0.000000000
    -39272.298 9    -28019.94049  20181113.442    20181113.3664   20181122.2164
    130885.840 9     94558.23048  21429833.198    21429833.4054   21429841.2934
    126861.220 9     86505.39447  22459922.289    22459922.0004   22459934.9934
 80  9  1 19  9 44.0000000  0  3 24  4  9                            0.000000000
    -39889.915 9    -28501.19749  20180995.900    20180995.8074   20181004.6734
    132804.931 9     96053.62548  21430198.542    21430198.5924   21430206.4854
    128800.582 9     88016.57847  22460291.247    22460291.0244   22460304.0424
 80  9  1 19  9 45.0000000  0  3 24  4  9                            0.000000000
    -40507.238 9    -28982.22649  20180878.428    20180878.3494   20180887.2094
    134724.144 9     97549.11748  21430563.631    21430563.7894   21430571.6974
    130740.018 9     89527.82147  22460660.474    22460660.0594   22460673.1084
 80  9  1 19  9 46.0000000  0  3 24  4  9                            0.000000000
    -41124.340 9    -29463.08549  20180761.080    20180760.9404   20180769.7814
    136643.365 9     99044.61348  21430928.749    21430928.9974   21430936.9174
    132679.454 9     91039.06347  22461029.607    22461029.1334   22461042.1944
 80  9  1 19  9 47.0000000  0  3 24  4  9                            0.000000000
    -41741.065 9    -29943.65049  20180643.696    20180643.5614   20180652.4294
    138562.776 9    100540.25748  21431294.086    21431294.2644   21431302.1894
    134619.030 9     92550.41447  22461398.432    22461398.2184   22461411.2864
 80  9  1 19  9 48.0000000  0  3 24  4  9                            0.000000000
    -42357.235 9    -30423.77949  20180526.345    20180526.3124   20180535.1744
    140482.562 9    102036.19448  21431659.466    21431659.5714   21431667.5024
    136558.937 9     94062.02547  22461767.275    22461767.3924   22461780.4674
 80  9  1 19  9 49.0000000  0  3 24  4  9                            0.000000000
    -42973.052 9    -30903.63549  20180409.164    20180409.1234   20180417.9784
    142402.544 9    103532.28048  21432024.683    21432024.9384   21432032.8904
    138498.981 9     95573.74147  22462136.577    22462136.5964   22462149.6424
 80  9  1 19  9 50.0000000  0  3 24  4  9                            0.000000000
    -43588.410 9    -31383.13349  20180291.980    20180292.0154   20180300.8884
    144322.786 9    105028.57548  21432389.814    21432390.3354   21432398.2914
    140439.242 9     97085.62547  22462505.785    22462505.8314   22462518.8724
 80  9  1 19  9 51.0000000  0  3 24  4  9                            0.000000000
    -44203.446 9    -31862.38249  20180174.922    20180174.9764   20180183.8534
    146243.163 9    106524.97048  21432755.170    21432755.7824   21432763.7484
    142379.598 9     98597.58347  22462875.250    22462875.0854   22462888.1124
 80  9  1 19  9 52.0000000  0  3 24  4  9                            0.000000000
    -44817.524 9    -32340.88049  20180058.005    20180058.1174   20180066.9924
    148164.315 9    108021.97348  21433120.607    21433121.3494   21433129.3424
    144320.687 9    100110.11447  22463244.752    22463244.4994   22463257.5164
 80  9  1 19  9 53.0000000  0  3 24  4  9                            0.000000000
    -45431.510 9    -32819.31149  20179941.411    20179941.2874   20179950.1734
    150085.391 9    109518.91548  21433486.251    21433486.8864   21433494.8904
    146261.646 9    101622.54647  22463614.119    22463613.8244   22463626.8584
 80  9  1 19  9 54.0000000  0  3 24  4  9                            0.000000000
    -46045.232 9    -33297.53649  20179824.769    20179824.4984   20179833.3854
    152006.547 9    111015.91548  21433851.842    21433852.4734   21433860.4784
    148202.643 9    103135.00047  22463983.467    22463983.1284   22463996.2044
 80  9  1 19  9 55.0000000  0  3 24  4  9                            0.000000000
    -46658.864 9    -33775.68849  20179707.987    20179707.7294   20179716.6184
    153927.604 9    112512.84348  21434217.490    21434218.0304   21434226.0444
    150143.500 9    104647.34847  22464352.670    22464352.4524   22464365.5624
 80  9  1 19  9 56.0000000  0  3 24  4  9                            0.000000000
    -47271.816 9    -34253.31249  20179591.519    20179591.0804   20179599.9584
    155849.176 9    114010.16948  21434583.114    21434583.6974   21434591.7394
    152084.824 9    106160.06147  22464722.223    22464721.8774   22464734.9994
 80  9  1 19  9 57.0000000  0  3 24  4  9                            0.000000000
    -47884.526 9    -34730.74649  20179474.991    20179474.5004   20179483.3754
    157770.813 9    115507.54648  21434948.721    21434949.3444   21434957.3904
    154026.165 9    107672.79047  22465091.857    22465091.3314   22465104.4584
 80  9  1 19  9 58.0000000  0  3 24  4  9                            0.000000000
    -48497.079 9    -35208.06249  20179358.347    20179357.9514   20179366.8324
    159692.452 9    117004.92448  21435314.444    21435315.0314   21435323.0924
    155967.437 9    109185.46047  22465461.526    22465460.7454   22465473.8604
 80  9  1 19  9 59.0000000  0  3 24  4  9                            0.000000000
    -49109.375 9    -35685.17549  20179241.679    20179241.4324   20179250.3104
    161614.170 9    118502.36848  21435680.201    21435680.7174   21435688.7874
    157908.747 9    110698.16247  22465831.098    22465830.1994   22465843.3024
 80  9  1 19 10  0.0000000  0  3 24  4  9                            0.000000000
    -49721.111 9    -36161.84849  20179125.158    20179124.9924   20179133.8764
    163536.272 9    120000.11048  21436045.917    21436046.4644   21436054.5314
    159850.404 9    112211.13947  22466200.540    22466199.6844   22466212.8034
 80  9  1 19 10  1.0000000  0  3 24  4  9                            0.000000000
    -50331.942 9    -36637.81949  20179008.920    20179008.7634   20179017.6654
    165459.113 9    121498.42748  21436411.883    21436412.3414   21436420.4394
    161792.734 9    113724.63647  22466570.148    22466569.3084   22466582.4304
 80  9  1 19 10  2.0000000  0  3 24  4  9                            0.000000000
    -50942.759 9    -37113.78349  20178892.946    20178892.5534   20178901.4354
    167381.790 9    122996.61048  21436778.048    21436778.2184   21436786.3244
    163734.842 9    115237.95947  22466939.332    22466938.8924   22466952.0044
 80  9  1 19 10  3.0000000  0  3 24  4  9                            0.000000000
    -51553.342 9    -37589.55849  20178776.763    20178776.3344   20178785.2224
    169304.500 9    124494.82448  21437143.800    21437144.0844   21437152.2074
    165676.948 9    116751.28247  22467308.843    22467308.4564   22467321.5714
 80  9  1 19 10  4.0000000  0  3 24  4  9                            0.000000000
    -52162.859 9    -38064.50449  20178660.840    20178660.3444   20178669.2394
    171228.122 9    125993.75148  21437509.712    21437510.1214   21437518.2284
    167619.905 9    118265.26447  22467678.559    22467678.1804   22467691.3124
 80  9  1 19 10  5.0000000  0  3 24  4  9                            0.000000000
    -52772.853 9    -38539.82649  20178544.851    20178544.2944   20178553.1784
    173151.092 9    127492.16748  21437875.627    21437876.0584   21437884.1884
    169562.157 9    119778.69947  22468048.190    22468047.7744   22468060.9254
 80  9  1 19 10  6.0000000  0  3 24  4  9                            0.000000000
    -53382.228 9    -39014.66249  20178428.737    20178428.3054   20178437.2134
    175074.510 9    128990.93448  21438241.440    21438242.0544   21438250.1904
    171504.815 9    121292.45447  22468417.913    22468417.4584   22468430.5954
 80  9  1 19 10  7.0000000  0  3 24  4  9                            0.000000000
    -53991.190 9    -39489.17949  20178312.843    20178312.4354   20178321.3364
    176998.174 9    130489.89248  21438607.459    21438608.1214   21438616.2714
    173447.692 9    122806.37847  22468787.415    22468787.1724   22468800.3034
 80  9  1 19 10  8.0000000  0  3 24  4  9                            0.000000000
    -54599.539 9    -39963.21549  20178196.966    20178196.6554   20178205.5464
    178922.278 9    131989.19348  21438973.793    21438974.2474   21438982.3954
    175390.964 9    124320.61147  22469157.057    22469156.9864   22469170.1284
 80  9  1 19 10  9.0000000  0  3 24  4  9                            0.000000000
    -55206.976 9    -40436.54049  20178081.375    20178081.0954   20178089.9954
    180847.120 9    133489.06848  21439340.110    21439340.5344   21439348.6884
    177334.952 9    125835.39847  22469526.940    22469526.9104   22469540.0654
 80  9  1 19 10 10.0000000  0  3 24  4  9                            0.000000000
    -55814.195 9    -40909.69749  20177965.815    20177965.5354   20177974.4244
    182772.017 9    134988.98648  21439706.666    21439706.8304   21439714.9754
    179278.949 9    127350.19147  22469896.737    22469896.8244   22469909.9824
 80  9  1 19 10 11.0000000  0  3 24  4  9                            0.000000000
    -56421.122 9    -41382.62849  20177850.264    20177850.0354   20177858.9224
    184697.016 9    136488.98648  21440073.042    21440073.1464   21440081.3004
    181223.019 9    128865.04147  22470266.795    22470266.7784   22470279.9474
 80  9  1 19 10 12.0000000  0  3 24  4  9                            0.000000000
    -57027.432 9    -41855.07349  20177734.829    20177734.6454   20177743.5334
    186622.470 9    137989.34048  21440439.466    21440439.5434   21440447.6914
    183167.503 9    130380.22247  22470636.807    22470636.8124   22470649.9814
 80  9  1 19 10 13.0000000  0  3 24  4  9                            0.000000000
    -57632.017 9    -42326.17749  20177619.913    20177619.5854   20177628.4924
    188549.460 9    139490.88848  21440806.183    21440806.2394   21440814.3924
    185113.506 9    131896.58347  22471007.219    22471007.1154   22471020.2914
 80  9  1 19 10 14.0000000  0  3 24  4  9                            0.000000000
    -58235.921 9    -42796.75149  20177504.875    20177504.6944   20177513.5984
    190476.956 9    140992.83348  21441172.993    21441173.0254   21441181.1704
    187059.981 9    133413.30747  22471377.656    22471377.5194   22471390.6994
 80  9  1 19 10 15.0000000  0  3 24  4  9                            0.000000000
    -58839.629 9    -43267.17149  20177389.922    20177389.7844   20177398.6824
    192404.453 9    142494.77548  21441539.791    21441539.8214   21441547.9564
    189006.424 9    134930.00647  22471748.098    22471747.8934   22471761.0914
 80  9  1 19 10 16.0000000  0  3 24  4  9                            0.000000000
    -59443.181 9    -43737.47049  20177275.087    20177274.9534   20177283.8724
    194331.928 9    143996.70648  21441906.589    21441906.6074   21441914.7414
    190952.857 9    136446.70447  22472118.530    22472118.2864   22472131.5034
 80  9  1 19 10 17.0000000  0  3 24  4  9                            0.000000000
    -60046.470 9    -44207.56549  20177160.339    20177160.1534   20177169.0574
    196259.496 9    145498.70648  21442273.418    21442273.4234   21442281.5504
    192899.329 9    137963.42747  22472488.973    22472488.7004   22472501.9174
 80  9  1 19 10 18.0000000  0  3 24  4  9                            0.000000000
    -60649.226 9    -44677.24349  20177045.732    20177045.4424   20177054.3674
    198187.408 9    147000.97348  21442640.280    21442640.2594   21442648.4044
    194846.122 9    139480.40247  22472859.460    22472859.1634   22472872.3824
 80  9  1 19 10 19.0000000  0  3 24  4  9                            0.000000000
    -61251.726 9    -45146.72549  20176931.086    20176930.7824   20176939.7024
    200115.379 9    148503.28348  21443007.195    21443007.1554   21443015.3164
    196792.964 9    140997.41447  22473229.929    22473229.6074   22473242.8384
 80  9  1 19 10 20.0000000  0  3 24  4  9                            0.000000000
    -61853.842 9    -45615.90449  20176816.532    20176816.2214   20176825.1184
    202043.531 9    150005.73948  21443374.121    21443374.0714   21443382.2364
    198739.968 9    142514.55647  22473600.453    22473600.1204   22473613.3534
 80  9  1 19 10 21.0000000  0  3 24  4  9                            0.000000000
    -62455.716 9    -46084.89349  20176702.023    20176701.6804   20176710.5994
    203971.753 9    151508.25248  21443741.057    21443740.9974   21443749.1504
    200687.032 9    144031.74347  22473970.981    22473970.6444   22473983.8664
 80  9  1 19 10 22.0000000  0  3 24  4  9                            0.000000000
    -63057.069 9    -46553.48249  20176587.579    20176587.2194   20176596.1314
    205900.299 9    153011.01048  21444108.030    21444107.9634   21444116.1134
    202634.407 9    145549.16847  22474341.569    22474341.2274   22474354.4494
 80  9  1 19 10 23.0000000  0  3 24  4  9                            0.000000000
    -63658.400 9    -47022.05249  20176473.170    20176472.7994   20176481.7074
    207828.685 9    154513.64948  21444475.006    21444474.9394   21444483.0994
    204581.605 9    147066.45947  22474712.115    22474711.7714   22474724.9854
 80  9  1 19 10 24.0000000  0  3 24  4  9                            0.000000000
    -64259.501 9    -47490.44049  20176358.807    20176358.4184   20176367.3364
    209757.144 9    156016.35148  21444841.981    21444841.9054   21444850.0514
    206528.835 9    148583.77347  22475082.680    22475082.3344   22475095.5464
 80  9  1 19 10 25.0000000  0  3 24  4  9                            0.000000000
    -64860.317 9    -47958.60949  20176244.511    20176244.0974   20176253.0134
    211685.696 9    157519.11448  21445208.987    21445208.9214   21445217.0624
    208476.169 9    150101.16947  22475453.249    22475452.8884   22475466.1114
 80  9  1 19 10 26.0000000  0  3 24  4  9                            0.000000000
    -65460.092 9    -48425.96549  20176130.380    20176129.9464   20176138.8584
    213615.112 9    159022.55448  21445576.137    21445576.0674   21445584.2004
    210424.345 9    151619.22047  22475823.989    22475823.6214   22475836.8484
 80  9  1 19 10 27.0000000  0  3 24  4  9                            0.000000000
    -66059.876 9    -48893.32949  20176016.278    20176015.8354   20176024.7444
    215544.324 9    160525.83548  21445943.254    21445943.1824   21445951.3124
    212372.315 9    153137.11547  22476194.685    22476194.3044   22476207.5434
 80  9  1 19 10 28.0000000  0  3 24  4  9                            0.000000000
    -66659.906 9    -49360.88549  20175902.102    20175901.6444   20175910.5474
    217473.114 9    162028.78748  21446310.281    21446310.1984   21446318.3414
    214319.826 9    154654.64747  22476565.291    22476564.9184   22476578.1434
 80  9  1 19 10 29.0000000  0  3 24  4  9                            0.000000000
    -67259.637 9    -49828.20549  20175787.979    20175787.5034   20175796.4124
    219402.014 9    163531.83048  21446677.359    21446677.2844   21446685.4174
    216267.422 9    156172.24947  22476935.917    22476935.5514   22476948.7714
 80  9  1 19 10 30.0000000  0  3 24  4  9                            0.000000000
    -67858.813 9    -50295.09549  20175673.983    20175673.5024   20175682.4104
    221331.313 9    165035.17648  21447044.482    21447044.4004   21447052.5364
    218215.358 9    157690.11747  22477306.616    22477306.2644   22477319.4834
 80  9  1 19 10 31.0000000  0  3 24  4  9                            0.000000000
    -68457.723 9    -50761.77749  20175560.020    20175559.5114   20175568.4334
    223260.687 9    166538.58448  21447411.618    21447411.5464   21447419.6884
    220163.340 9    159208.01547  22477677.304    22477676.9684   22477690.1704
 80  9  1 19 10 32.0000000  0  4 24  4  9  7                         0.000000000
    -69056.156 9    -51228.08649  20175446.168    20175445.6594   20175454.5524
    225190.350 9    168042.21648  21447778.817    21447778.7524   21447786.8694
    222111.582 9    160726.12047  22478048.023    22478047.6914   22478060.8934
     94637.52919     68179.66955         0.000           0.0005   24185668.4055
 80  9  1 19 10 33.0000000  0  5 24  4  9  7  5                      0.000057538
    -69653.854 9    -51693.82549  20175332.451    20175331.9384   20175340.8264
    227120.562 9    169546.27448  21448146.126    21448146.0674   21448154.1864
    224060.335 9    162244.62047  22478418.874    22478418.5354   22478431.7514
     96307.337 9     69480.81545         0.000           0.0004   24185986.4994
   -130121.790 9    -93517.15948  20777879.379    20777878.8744   20777887.6864
 80  9  1 19 10 34.0000000  0  5 24  4  9  7  5                      0.000057289
    -70251.141 9    -52159.24549  20175218.782    20175218.2574   20175227.1524
    229051.000 9    171050.51048  21448513.493    21448513.4234   21448521.5604
    226009.270 9    163763.26147  22478789.762    22478789.4184   22478802.6334
     97977.023 9     70781.86745         0.000           0.0004   24186304.1034
   -132365.137 9    -95265.22348  20777452.439    20777451.9694   20777460.7854
 80  9  1 19 10 35.0000000  0  5 24  4  9  7  5                      0.000056919
    -70848.462 9    -52624.68649  20175105.136    20175104.6064   20175113.4914
    230981.207 9    172554.57148  21448880.780    21448880.7094   21448888.8354
    227957.942 9    165281.70147  22479160.588    22479160.2414   22479173.4524
     99646.13819     72082.47345         0.000           0.0005   24186621.6584
   -134608.664 9    -97013.42548  20777025.370    20777025.0254   20777033.8274
 80  9  1 19 10 36.0000000  0  5 24  4  9  7  5                      0.000056549
    -71445.433 9    -53089.85949  20174991.547    20174991.0044   20174999.8984
    232911.591 9    174058.76448  21449248.116    21449248.0454   21449256.1704
    229906.729 9    166800.23647  22479531.426    22479531.0844   22479544.2864
    101315.07919     73382.94445         0.000           0.0005   24186939.2234
   -136851.987 9    -98761.46948  20776598.415    20776598.1214   20776606.9274
 80  9  1 19 10 37.0000000  0  5 24  4  9  7  5                      0.000056179
    -72042.142 9    -53554.82549  20174877.995    20174877.4434   20174886.3484
    234842.035 9    175563.00348  21449615.488    21449615.4304   21449623.5424
    231855.576 9    168318.80947  22479902.288    22479901.9474   22479915.1464
    102983.74619     74683.20245         0.000           0.0005   24187256.7114
   -139095.173 9   -100509.40748  20776171.511    20776171.2564   20776180.0804
 80  9  1 19 10 38.0000000  0  5 24  4  9  7  5                      0.000055809
    -72638.496 9    -54019.51549  20174764.519    20174763.9624   20174772.8564
    236772.657 9    177067.38348  21449982.854    21449982.7964   21449990.9164
    233804.563 9    169837.49847  22480273.205    22480272.8514   22480286.0514
    104652.25019     75983.33045         0.000           0.0005   24187574.5484
   -141338.139 9   -102257.17048  20775744.760    20775744.4024   20775753.2264
 80  9  1 19 10 39.0000000  0  5 24  4  9  7  5                      0.000055441
    -73234.781 9    -54484.15049  20174651.055    20174650.5004   20174659.3834
    238703.165 9    178571.67748  21450350.232    21450350.1814   21450358.2974
    235753.392 9    171356.05847  22480644.052    22480643.6844   22480656.8864
    106320.29419     77283.09945         0.000           0.0005   24187891.7344
   -143581.178 9   -104004.99248  20775318.172    20775317.5774   20775326.4094
 80  9  1 19 10 40.0000000  0  5 24  4  9  7  5                      0.000055072
    -73830.727 9    -54948.52349  20174537.663    20174537.0984   20174546.0004
    240633.790 9    180076.06348  21450717.593    21450717.5474   21450725.6684
    237702.338 9    172874.71047  22481014.949    22481014.5674   22481027.7734
    107988.11619     78582.69645         0.000           0.0005   24188209.2084
   -145824.019 9   -105752.65948  20774891.367    20774890.7924   20774899.6114
 80  9  1 19 10 41.0000000  0  5 24  4  9  7  5                      0.000054700
    -74426.447 9    -55412.71849  20174424.296    20174423.7374   20174432.6334
    242564.453 9    181580.47748  21451085.002    21451084.9634   21451093.0834
    239651.305 9    174393.38047  22481385.835    22481385.4414   22481398.6444
    109655.64519     79882.06545         0.000           0.0005   24188526.6634
   -148066.764 9   -107500.25048  20774464.599    20774463.9984   20774472.8304
 80  9  1 19 10 42.0000000  0  5 24  4  9  7  5                      0.000054329
    -75021.701 9    -55876.55249  20174311.031    20174310.4654   20174319.3564
    244495.401 9    183085.10648  21451452.439    21451452.3984   21451460.5064
    241600.500 9    175912.22847  22481756.776    22481756.3744   22481769.5754
    111323.10219     81181.37945         0.000           0.0005   24188844.4374
   -150309.193 9   -109247.59648  20774037.806    20774037.2534   20774046.0904
 80  9  1 19 10 43.0000000  0  5 24  4  9  7  5                      0.000053959
    -75616.564 9    -56340.08049  20174197.825    20174197.2644   20174206.1624
    246426.550 9    184589.89448  21451819.913    21451819.8844   21451827.9834
    243549.886 9    177431.22547  22482127.741    22482127.3174   22482140.5334
    112990.41119     82480.57645         0.000           0.0005   24189161.8654
   -152551.359 9   -110994.73948  20773611.091    20773610.5794   20773619.4334
 80  9  1 19 10 44.0000000  0  5 24  4  9  7  5                      0.000000119
   -160447.962 9   -122442.46649  20158054.946    20158054.3794   20158063.2704
    164121.116 9    120455.79048  21436157.733    21436157.7074   21436165.8034
    161262.651 9    113311.29547  22466469.024    22466468.5974   22466481.8034
     30420.79719     18140.61345         0.000           0.0005   24173449.4334
   -239030.284 9   -178380.91348  20757154.477    20757154.1714   20757163.0444
 80  9  1 19 10 45.0000000  0  5 24  4  9  7  5                      0.000000120
   -160457.730 9   -122450.07749  20158053.086    20158052.5214   20158061.4204
    166636.978 9    122416.20248  21436636.467    21436636.4454   21436644.5324
    163796.696 9    115285.86947  22466951.258    22466950.8134   22466964.0324
     32672.15619     19894.91445         0.000           0.0005   24173878.0934
   -240687.625 9   -179672.34748  20756839.005    20756838.7904   20756847.6704
 80  9  1 19 10 46.0000000  0  5 24  4  9  7  5                      0.000000120
   -160466.995 9   -122457.29549  20158051.317    20158050.7524   20158059.6414
    169153.169 9    124376.87348  21437115.296    21437115.2744   21437123.3554
    166331.033 9    117260.67247  22467433.540    22467433.0904   22467446.2894
     34923.52419     21649.22345         0.000           0.0005   24174306.2564
   -242344.590 9   -180963.48848  20756523.784    20756523.4784   20756532.3614
 80  9  1 19 10 47.0000000  0  5 24  4  9  7  5                      0.000000120
   -160475.745 9   -122464.11249  20158049.674    20158049.1134   20158058.0064
    171669.682 9    126337.79548  21437594.161    21437594.1424   21437602.2314
    168865.659 9    119235.70347  22467915.895    22467915.4254   22467928.6334
     37174.86919     23403.51345         0.000           0.0005   24174734.8034
   -244001.187 9   -182254.33948  20756208.706    20756208.2464   20756217.1254
 80  9  1 19 10 48.0000000  0  5 24  4  9  7  5                      0.000000120
   -160483.963 9   -122470.51549  20158048.115    20158047.5544   20158056.4504
    174186.538 9    128298.98148  21438073.109    21438073.0914   21438081.1764
    171400.615 9    121210.98547  22468398.274    22468397.8024   22468410.9994
     39426.22419     25157.81045         0.000           0.0005   24175163.3104
   -245657.372 9   -183544.87248  20755893.454    20755893.0744   20755901.9554
 80  9  1 19 10 49.0000000  0  5 24  4  9  7  5                      0.000000120
   -160491.547 9   -122476.42349  20158046.672    20158046.1154   20158055.0034
    176703.832 9    130260.50548  21438552.132    21438552.1194   21438560.1974
    173935.986 9    123186.59247  22468880.760    22468880.2684   22468893.4784
     41677.69619     26912.19745         0.000           0.0005   24175591.7234
   -247313.084 9   -184835.03648  20755578.266    20755577.9834   20755586.8854
 80  9  1 19 10 50.0000000  0  5 24  4  9  7  5                      0.000000120
   -160498.658 9   -122481.96449  20158045.291    20158044.7364   20158053.6244
    179221.404 9    132222.24848  21439031.220    21439031.2174   21439039.2764
    176471.601 9    125162.39147  22469363.303    22469362.8044   22469376.0074
     43929.094 9     28666.52945  24176007.475    24176006.8794   24176020.1694
   -248968.481 9   -186124.95648  20755263.278    20755262.9714   20755271.8784
 80  9  1 19 10 51.0000000  0  4 24  4  7  5                         0.000000301
   -160507.041 9   -122488.49349  20158043.702    20158043.1374   20158052.0344
    181737.505 9    134182.84748  21439510.017    21439510.0164   21439518.0694
     46178.733 9     30419.48745  24176435.446    24176434.5934   24176448.2904
   -250625.283 9   -187415.96848  20754947.893    20754947.6894   20754956.6014
 80  9  1 19 10 52.0000000  0  4 24  4  7  5                         0.000050800
    -80956.420 9    -60500.99649  20173181.698    20173181.1374   20173190.0344
    263812.311 9    198137.24048  21455128.335    21455128.3334   21455136.3884
    127986.757 9     94165.99045  24192003.384    24192002.3054   24192015.7084
   -172723.139 9   -126712.99648  20769771.977    20769771.9464   20769780.8714
 80  9  1 19 10 53.0000000  0  4 24  4  7  5                         0.000050428
    -81548.736 9    -60962.54149  20173068.964    20173068.4154   20173077.3054
    265744.121 9    199642.54848  21455495.946    21455495.9494   21455504.0024
    129651.473 9     95463.16545  24192320.297    24192318.9764   24192332.4464
   -174964.166 9   -128459.25248  20769345.461    20769345.5014   20769354.4304
 80  9  1 19 10 54.0000000  0  4 24  4  7  5                         0.000050053
    -82140.888 9    -61423.95749  20172956.274    20172955.7234   20172964.6054
    267675.910 9    201147.83548  21455863.556    21455863.5644   21455871.6024
    131315.817 9     96760.04945  24192636.831    24192636.0374   24192649.4054
   -177205.175 9   -130205.49248  20768919.056    20768919.0574   20768927.9904
 80  9  1 19 10 55.0000000  0  4 24  4  7  5                         0.000049680
    -82732.784 9    -61885.17149  20172843.655    20172843.1114   20172851.9854
    269607.782 9    202653.19348  21456231.187    21456231.2004   21456239.2334
    132979.962 9     98056.77745  24192953.485    24192952.5274   24192965.7144
   -179446.073 9   -131951.64248  20768492.680    20768492.6124   20768501.5584
 80  9  1 19 10 56.0000000  0  5 24  4  9  7  5                      0.000049128
    -83324.587 9    -62346.31749  20172731.028    20172730.4794   20172739.3764
    271539.545 9    204158.46248  21456598.775    21456598.7864   21456606.8094
    268897.759 9    197182.73147  22486951.422    22486950.9374   22486964.1284
    134643.669 9     99353.16645  24193270.038    24193269.0784   24193282.1474
   -181687.039 9   -133697.84848  20768066.352    20768066.1474   20768075.0884
 80  9  1 19 10 57.0000000  0  5 24  4  9  7  5                      0.000048755
    -83916.263 9    -62807.36349  20172618.420    20172617.8674   20172626.7724
    273471.236 9    205663.67748  21456966.367    21456966.3814   21456974.3984
    270847.423 9    198701.94547  22487322.463    22487321.9714   22487335.1544
    136307.004 9    100649.26845  24193586.815    24193585.7494   24193598.1864
   -183928.033 9   -135444.07848  20767639.914    20767639.7134   20767648.6764
 80  9  1 19 10 58.0000000  0  5 24  4  9  7  5                      0.000048383
    -84507.616 9    -63268.15549  20172505.900    20172505.3654   20172514.2474
    275403.080 9    207169.01348  21457333.997    21457334.0064   21457342.0234
    272797.234 9    200221.27047  22487693.494    22487692.9844   22487706.1694
    137970.178 9    101945.24245  24193903.689    24193902.1504   24193914.7054
   -186168.847 9   -137190.16448  20767213.492    20767213.2684   20767222.2494
 80  9  1 19 10 59.0000000  0  5 24  4  9  7  5                      0.000048010
    -85098.515 9    -63728.59549  20172393.446    20172392.9034   20172401.8054
    277335.210 9    208674.57148  21457701.662    21457701.6824   21457709.6964
    274747.291 9    201740.79147  22488064.597    22488064.0874   22488077.2644
    139633.285 9    103241.16445  24194220.512    24194218.6114   24194231.1704
   -188409.356 9   -138936.01148  20766787.135    20766786.9334   20766795.9044
 80  9  1 19 11  0.0000000  0  5 24  4  9  7  5                      0.000047637
    -85689.193 9    -64188.86349  20172281.056    20172280.5214   20172289.4104
    279267.357 9    210180.14248  21458069.358    21458069.3774   21458077.3914
    276697.367 9    203260.32747  22488435.711    22488435.1904   22488448.3594
    141296.113 9    104536.87045  24194537.113    24194535.1024   24194547.5604
   -190649.791 9   -140681.80348  20766360.709    20766360.5784   20766369.5804
 80  9  1 19 11  1.0000000  0  5 24  4  9  7  5                      0.000047264
    -86279.649 9    -64648.95749  20172168.683    20172168.1594   20172177.0524
    281199.563 9    211685.75648  21458437.047    21458437.0634   21458445.0654
    278647.470 9    204779.87947  22488806.827    22488806.2934   22488819.4724
    142958.653 9    105832.34845  24194853.548    24194851.2034   24194863.8504
   -192890.167 9   -142427.54948  20765934.411    20765934.2334   20765943.2374
 80  9  1 19 11  2.0000000  0  5 24  4  9  7  5                      0.000046890
    -86869.409 9    -65108.50949  20172056.438    20172055.9164   20172064.8034
    283132.287 9    213191.77448  21458804.815    21458804.8284   21458812.8244
    280598.070 9    206299.82347  22489178.006    22489177.4664   22489190.6304
    144621.384 9    107127.97945  24195169.889    24195167.9044   24195180.1984
   -195129.983 9   -144172.85748  20765508.022    20765508.0084   20765517.0174
 80  9  1 19 11  3.0000000  0  5 24  4  9  7  5                      0.000046517
    -87458.750 9    -65567.73449  20171944.303    20171943.7844   20171952.6804
    285065.206 9    214697.94548  21459172.664    21459172.6834   21459180.6654
    282548.877 9    207819.92547  22489549.237    22489548.6804   22489561.8574
    146284.024 9    108423.53645  24195486.362    24195484.2754   24195496.5054
   -197369.539 9   -145917.96648  20765082.027    20765081.8434   20765090.8574
 80  9  1 19 11  4.0000000  0  5 24  4  9  7  5                      0.000046143
    -88047.476 9    -66026.47949  20171832.253    20171831.7424   20171840.6514
    286998.572 9    216204.46548  21459540.578    21459540.5994   21459548.5694
    284500.121 9    209340.37047  22489920.573    22489920.0224   22489933.1934
    147946.799 9    109719.20045  24195802.544    24195800.7964   24195812.8904
   -199608.632 9   -147662.71048  20764655.998    20764655.7284   20764664.7504
 80  9  1 19 11  5.0000000  0  5 24  4  9  7  5                      0.000045770
    -88635.483 9    -66484.66749  20171720.363    20171719.8594   20171728.7614
    288932.437 9    217711.37048  21459908.578    21459908.5944   21459916.5494
    286451.848 9    210861.18147  22490291.978    22490291.4254   22490304.5914
    149609.759 9    111015.00545  24196119.080    24196117.1074   24196129.3194
   -201847.193 9   -149407.04548  20764230.209    20764229.7534   20764238.7804
 80  9  1 19 11  6.0000000  0  5 24  4  9  7  5                      0.000000113
   -160565.236 9   -122533.82749  20158032.571    20158032.0754   20158040.9734
    219524.487 9    163627.25248  21446700.689    21446700.7084   21446708.6694
    217061.740 9    156790.95947  22477087.482    22477086.9264   22477100.0944
     79930.557 9     56719.51745  24182859.900    24182857.7064   24182869.8094
   -275427.731 9   -206742.52848  20750228.208    20750227.8264   20750236.8544
 80  9  1 19 11  7.0000000  0  5 24  4  9  7  5                      0.000000112
   -160563.537 9   -122532.50249  20158032.889    20158032.3954   20158041.2974
    222047.651 9    165593.35648  21447180.839    21447180.8554   21447188.7974
    219602.765 9    158770.97647  22477571.011    22477570.4524   22477583.6224
     82182.220 9     58474.05645  24183288.064    24183286.5594   24183298.2874
   -277076.932 9   -208027.61548  20749914.585    20749914.0134   20749923.0604
 80  9  1 19 11  8.0000000  0  5 24  4  9  7  5                      0.000000110
   -160561.172 9   -122530.65949  20158033.327    20158032.8444   20158041.7404
    224571.280 9    167559.82148  21447661.083    21447661.1034   21447669.0354
    222144.231 9    160751.33247  22478054.662    22478054.0974   22478067.2834
     84434.015 9     60228.69645  24183715.887    24183715.3224   24183726.7584
   -278725.630 9   -209312.31348  20749600.667    20749600.2614   20749609.3064
 80  9  1 19 11  9.0000000  0  5 24  4  9  7  5                      0.000000109
   -160558.323 9   -122528.43849  20158033.844    20158033.3644   20158042.2644
    227095.174 9    169526.49148  21448141.387    21448141.4004   21448149.3274
    224685.960 9    162731.89447  22478538.332    22478537.7624   22478550.9474
     86685.798 9     61983.32545  24184143.840    24184144.1154   24184155.2564
   -280374.026 9   -210596.77848  20749286.997    20749286.5984   20749295.6404
 80  9  1 19 11 10.0000000  0  5 24  4  9  7  5                      0.000000110
   -160554.865 9   -122525.74449  20158034.489    20158034.0244   20158042.9184
    229619.462 9    171493.47148  21448621.735    21448621.7484   21448629.6614
    227228.068 9    164712.75647  22479022.075    22479021.5174   22479034.7004
     88937.672 9     63738.02945  24184572.899    24184572.6994   24184583.7354
   -282022.007 9   -211880.91848  20748973.149    20748972.9654   20748982.0194
 80  9  1 19 11 11.0000000  0  5 24  4  9  7  5                      0.000000111
   -160551.024 9   -122522.74849  20158035.216    20158034.7534   20158043.6554
    232143.927 9    173460.58948  21449102.125    21449102.1354   21449110.0424
    229770.373 9    166693.76747  22479505.866    22479505.3124   22479518.4884
     91189.435 9     65492.64445  24185001.574    24185001.5524   24185012.2194
   -283669.758 9   -213164.87848  20748659.587    20748659.4324   20748668.4874
 80  9  1 19 11 12.0000000  0  5 24  4  9  7  5                      0.000000112
   -160546.427 9   -122519.16649  20158036.093    20158035.6424   20158044.5424
    234668.951 9    175428.14148  21449582.650    21449582.6534   21449590.5624
    232313.207 9    168675.18847  22479989.739    22479989.1674   22480002.3684
     93441.439 9     67247.44746  24185430.707    24185429.8654   24185440.7474
   -285316.938 9   -214448.39448  20748346.149    20748345.9594   20748355.0254
 80  9  1 19 11 13.0000000  0  5 24  4  9  7  5                      0.000000113
   -160541.448 9   -122515.28349  20158037.017    20158036.5724   20158045.4754
    237194.111 9    177395.79748  21450063.167    21450063.1704   21450071.0674
    234856.208 9    170656.73747  22480473.654    22480473.1024   22480486.2894
     95693.326 9     69002.15646  24185859.260    24185858.5694   24185869.2374
   -286963.924 9   -215731.75948  20748032.743    20748032.5664   20748041.6194
 80  9  1 19 11 14.0000000  0  5 24  4  9  7  5                      0.000000113
   -160536.300 9   -122511.27249  20158037.991    20158037.5514   20158046.4634
    239719.275 9    179363.45948  21450543.710    21450543.7074   21450551.5914
    237399.149 9    172638.24847  22480957.560    22480956.9974   22480970.2014
     97944.882 9     70756.60946  24186287.841    24186287.2724   24186297.6814
   -288610.915 9   -217015.12648  20747719.322    20747719.1534   20747728.2144
 80  9  1 19 11 15.0000000  0  5 24  4  9  7  5                      0.000000113
   -160530.606 9   -122506.83449  20158039.063    20158038.6304   20158047.5374
    242244.776 9    181331.38448  21451024.314    21451024.3044   21451032.1934
    239942.443 9    174620.02547  22481441.548    22481440.9924   22481454.1814
    100196.511 9     72511.11846  24186716.426    24186715.7354   24186726.1604
   -290257.505 9   -218298.18548  20747405.978    20747405.8104   20747414.8754
 80  9  1 19 11 16.0000000  0  5 24  4  9  7  5                      0.000000113
   -160524.694 9   -122502.22649  20158040.188    20158039.7704   20158048.6714
    244770.306 9    183299.32948  21451504.907    21451504.9024   21451512.7724
    242485.733 9    176601.80347  22481925.513    22481924.9474   22481938.1524
    102447.889 9     74265.43246  24187144.931    24187144.2884   24187154.5854
   -291904.040 9   -219581.19848  20747092.678    20747092.5074   20747101.5674
 80  9  1 19 11 17.0000000  0  5 24  4  9  7  5                      0.000000113
   -160518.362 9   -122497.29349  20158041.382    20158040.9694   20158049.8794
    247296.055 9    185267.44548  21451985.553    21451985.5394   21451993.4064
    245029.267 9    178583.77047  22482409.531    22482408.9824   22482422.1764
    104699.185 9     76019.68246  24187573.424    24187572.8424   24187582.9804
   -293550.305 9   -220864.00048  20746779.391    20746779.2044   20746788.2744
 80  9  1 19 11 18.0000000  0  5 24  4  9  7  5                      0.000000113
   -160511.473 9   -122491.92649  20158042.693    20158042.2884   20158051.1934
    249822.155 9    187235.83148  21452466.263    21452466.2464   21452474.1104
    247573.105 9    180565.97547  22482893.617    22482893.0674   22482906.2694
    106950.540 9     77773.97846  24188001.911    24188001.6354   24188011.4004
   -295196.166 9   -222146.49048  20746466.216    20746466.0304   20746475.0754
 80  9  1 19 11 19.0000000  0  5 24  4  9  7  5                      0.000000112
   -160504.060 9   -122486.14849  20158044.075    20158043.6774   20158052.5844
    252348.600 9    189204.49448  21452947.047    21452947.0234   21452954.8764
    250117.283 9    182548.44047  22483377.731    22483377.1824   22483390.3844
    109201.948 9     79528.31646  24188430.409    24188430.0084   24188439.8264
   -296841.651 9   -223428.68448  20746153.088    20746152.8874   20746161.9364
 80  9  1 19 11 20.0000000  0  5 24  4  9  7  5                      0.000000112
   -160496.270 9   -122480.07349  20158045.561    20158045.1664   20158054.0754
    254875.226 9    191173.29248  21453427.868    21453427.8404   21453435.6954
    252661.617 9    184531.03047  22483861.903    22483861.3564   22483874.5644
    111453.242 9     81282.56746  24188858.876    24188858.1724   24188868.2364
   -298486.910 9   -224710.70248  20745840.033    20745839.8144   20745848.8744
 80  9  1 19 11 21.0000000  0  5 24  4  9  7  5                      0.000000112
   -160487.907 9   -122473.55849  20158047.145    20158046.7654   20158055.6664
    257402.231 9    193142.38948  21453908.734    21453908.7074   21453916.5594
    255206.305 9    186513.89947  22484346.161    22484345.6214   22484358.8194
    113704.590 9     83036.85846  24189287.350    24189286.4854   24189296.6694
   -300131.760 9   -225992.40148  20745527.063    20745526.8304   20745535.8944
 80  9  1 19 11 22.0000000  0  5 24  4  9  7  5                      0.000000111
   -160479.202 9   -122466.77349  20158048.780    20158048.4044   20158057.3054
    259929.393 9    195111.60848  21454389.644    21454389.6154   21454397.4574
    257751.117 9    188496.86347  22484830.404    22484829.8664   22484843.0664
    115955.813 9     84791.05346  24189715.767    24189715.0094   24189725.0644
   -301776.430 9   -227273.96048  20745214.094    20745213.8374   20745222.8984
 80  9  1 19 11 23.0000000  0  5 24  4  9  7  5                      0.000000111
   -160470.215 9   -122459.76849  20158050.483    20158050.1134   20158059.0184
    262456.650 9    197080.90248  21454870.599    21454870.5624   21454878.4054
    260295.997 9    190479.87847  22485314.697    22485314.1514   22485327.3524
    118206.822 9     86545.08046  24190144.157    24190143.4124   24190153.4164
   -303420.971 9   -228555.41848  20744901.171    20744900.9044   20744909.9584
 80  9  1 19 11 24.0000000  0  5 24  4  9  7  5                      0.000000110
   -160460.410 9   -122452.12749  20158052.352    20158051.9914   20158060.8944
    264984.539 9    199050.68348  21455351.647    21455351.6094   21455359.4504
    262841.474 9    192463.36447  22485799.071    22485798.5354   22485811.7354
    120458.146 9     88299.35246  24190572.602    24190571.7964   24190581.8484
   -305064.840 9   -229836.35448  20744588.383    20744588.0904   20744597.1544
 80  9  1 19 11 25.0000000  0  5 24  4  9  7  5                      0.000000110
   -160450.020 9   -122444.03349  20158054.299    20158053.9404   20158062.8434
    267512.841 9    201020.78548  21455832.766    21455832.7264   21455840.5634
    265387.333 9    194447.14147  22486283.553    22486283.0204   22486296.2174
    122709.603 9     90053.72946  24191001.051    24191000.1394   24191010.2914
   -306708.274 9   -231116.95348  20744275.677    20744275.3674   20744284.4174
 80  9  1 19 11 26.0000000  0  5 24  4  9  7  5                      0.000000110
   -160439.204 9   -122435.60249  20158056.349    20158055.9984   20158064.8994
    270041.351 9    202991.05448  21456313.929    21456313.8834   21456321.7204
    267933.390 9    196431.07847  22486768.037    22486767.5044   22486780.7044
    124960.988 9     91808.04646  24191429.499    24191428.4834   24191438.7324
   -308351.432 9   -232397.33448  20743963.022    20743962.6834   20743971.7304
 80  9  1 19 11 27.0000000  0  5 24  4  9  7  5                      0.000000109
   -160427.794 9   -122426.70849  20158058.537    20158058.1974   20158067.0994
    272570.245 9    204961.62248  21456795.162    21456795.1094   21456802.9484
    270479.814 9    198415.30147  22487252.608    22487252.0794   22487265.2574
    127212.477 9     93562.44746  24191857.952    24191856.8364   24191867.1894
   -309994.144 9   -233677.36648  20743650.445    20743650.0804   20743659.1364
 80  9  1 19 11 28.0000000  0  5 24  4  9  7  5                      0.000000109
   -160415.821 9   -122417.38049  20158060.801    20158060.4654   20158069.3614
    275099.518 9    206932.48348  21457276.482    21457276.4264   21457284.2624
    273026.583 9    200399.78647  22487737.251    22487736.7244   22487749.9054
    129464.050 9     95316.91046  24192286.413    24192285.2004   24192295.6474
   -311636.452 9   -234957.08648  20743337.941    20743337.5564   20743346.6084
 80  9  1 19 11 29.0000000  0  5 24  4  9  7  5                      0.000000108
   -160403.270 9   -122407.59949  20158063.164    20158062.8344   20158071.7294
    277629.174 9    208903.64148  21457757.876    21457757.8134   21457765.6604
    275573.682 9    202384.53047  22488221.966    22488221.4384   22488234.6224
    131715.674 9     97071.42046  24192714.875    24192713.6034   24192724.1274
   -313278.350 9   -236236.48848  20743025.529    20743025.1224   20743034.1694
 80  9  1 19 11 30.0000000  0  5 24  4  9  7  5                      0.000000108
   -160390.182 9   -122397.40149  20158065.665    20158065.3424   20158074.2424
    280159.178 9    210875.07448  21458239.317    21458239.2504   21458247.0974
    278121.093 9    204369.52247  22488706.703    22488706.1734   22488719.3494
    133967.348 9     98825.96646  24193143.365    24193142.0564   24193152.6254
   -314919.843 9   -237515.57248  20742713.203    20742712.7694   20742721.8134
 80  9  1 19 11 31.0000000  0  6 24  6  4  9  7  5                   0.000000107
   -160376.653 9   -122386.85249  20158068.226    20158067.9104   20158076.8084
   -194489.58718   -135936.35652         0.000           0.0005          0.0005
    282689.420 9    212846.69248  21458720.799    21458720.7364   21458728.5784
    280668.702 9    206354.66347  22489191.509    22489190.9774   22489204.1594
    136218.952 9    100580.45546  24193571.791    24193570.4704   24193581.0624
   -316561.070 9   -238794.44648  20742400.913    20742400.4654   20742409.5114
 80  9  1 19 11 32.0000000  0  6 24  6  4  9  7  5                   0.000000107
   -160362.334 9   -122375.69449  20158070.926    20158070.6184   20158079.5104
   -196900.346 8   -137814.85952         0.000           0.0004          0.0005
    285220.245 9    214818.76148  21459202.407    21459202.3434   21459210.1814
    283216.867 9    208340.23747  22489676.412    22489675.8714   22489689.0574
    138470.859 9    102335.18246  24194000.318    24193998.9934   24194009.6064
   -318201.650 9   -240072.82348  20742088.729    20742088.2514   20742097.3074
 80  9  1 19 11 33.0000000  0  6 24  6  4  9  7  5                   0.000000107
   -160347.443 9   -122364.09349  20158073.750    20158073.4564   20158082.3354
   -199311.057 8   -139693.32852         0.000           0.0004          0.0005
    287751.443 9    216791.12348  21459684.100    21459684.0304   21459691.8764
    285765.358 9    210326.06547  22490161.381    22490160.8554   22490174.0194
    140722.805 9    104089.94146  24194428.829    24194427.4874   24194438.1294
   -319841.814 9   -241350.87348  20741776.632    20741776.1374   20741785.1774
 80  9  1 19 11 34.0000000  0  6 24  6  4  9  7  5                   0.000000106
   -160332.043 9   -122352.09149  20158076.694    20158076.4144   20158085.2904
   -201721.759 8   -141571.79252         0.000           0.0004          0.0005
    290282.968 9    218763.74048  21460165.832    21460165.7664   21460173.6104
    288314.145 9    212312.12547  22490646.394    22490645.8694   22490659.0394
    142974.794 9    105844.73146  24194857.357    24194856.0004   24194866.6834
   -321481.604 9   -242628.62848  20741464.617    20741464.1034   20741473.1394
 80  9  1 19 11 35.0000000  0  6 24  6  4  9  7  5                   0.000000106
   -160315.981 9   -122339.57649  20158079.750    20158079.4724   20158088.3414
   -204132.342 8   -143450.16152         0.000           0.0004          0.0005
    292814.942 9    220736.70348  21460647.646    21460647.5734   21460655.4234
    290863.356 9    214298.51947  22491131.498    22491130.9844   22491144.1244
    145226.924 9    107599.63346  24195285.885    24195284.5134   24195295.2364
   -323120.880 9   -243905.98448  20741152.704    20741152.1694   20741161.2074
 80  9  1 19 11 36.0000000  0  6 24  6  4  9  7  5                   0.000000106
   -160299.361 9   -122326.62349  20158082.896    20158082.6304   20158091.4904
   -206542.920 8   -145328.53252         0.000           0.0004          0.0005
    295347.244 9    222709.92648  21461129.532    21461129.4494   21461137.3154
    293412.878 9    216285.15047  22491616.662    22491616.1484   22491629.2984
    147479.117 9    109354.58646  24195714.435    24195713.0574   24195723.8324
   -324759.751 9   -245183.02548  20740840.868    20740840.3254   20740849.3524
 80  9  1 19 11 37.0000000  0  6 24  6  4  9  7  5                   0.000000105
   -160281.979 9   -122313.08049  20158086.206    20158085.9374   20158094.7994
   -208953.283 8   -147206.73352         0.000           0.0004          0.0005
    297880.110 9    224683.58748  21461611.532    21461611.4564   21461619.3174
    295962.909 9    218272.17847  22492101.915    22492101.4024   22492114.5494
    149731.554 9    111109.72546  24196143.033    24196141.6404   24196152.4754
   -326398.033 9   -246459.60948  20740529.118    20740528.5514   20740537.5884
 80  9  1 19 11 38.0000000  0  6 24  6  4  9  7  5                   0.000000105
   -160264.199 9   -122299.22349  20158089.583    20158089.3254   20158098.1804
   -211363.762 8   -149085.02152         0.000           0.0004          0.0005
    300413.177 9    226657.40548  21462093.562    21462093.4824   21462101.3634
    298513.121 9    220259.35347  22492587.205    22492586.6964   22492599.8274
    151983.880 9    112864.77746  24196571.590    24196570.1844   24196581.0764
   -328036.056 9   -247735.98948  20740217.432    20740216.8564   20740225.8734
 80  9  1 19 11 39.0000000  0  6 24  6  4  9  7  5                   0.000000104
   -160245.964 9   -122285.01249  20158093.053    20158092.7934   20158101.6514
   -213774.335 8   -150963.38352         0.000           0.0004          0.0005
    302946.499 9    228631.42148  21462575.629    21462575.5484   21462583.4354
    301063.531 9    222246.68147  22493072.537    22493072.0404   22493085.1704
    154236.152 9    114619.79046  24197000.162    24196998.7474   24197009.7004
   -329673.784 9   -249012.13848  20739905.783    20739905.1924   20739914.2144
 80  9  1 19 11 40.0000000  0  6 24  6  4  9  7  5                   0.000000104
   -160226.881 9   -122270.14249  20158096.681    20158096.4304   20158105.2794
   -216184.582 8   -152841.49552         0.000           0.0004          0.0005
    305480.430 9    230605.91048  21463057.800    21463057.7154   21463065.6124
    303614.563 9    224234.49047  22493557.985    22493557.4844   22493570.6284
    156488.750 9    116375.05346  24197428.777    24197427.3604   24197438.3604
   -331310.840 9   -250287.76848  20739594.285    20739593.6884   20739602.7014
 80  9  1 19 11 41.0000000  0  6 24  6  4  9  7  5                   0.000000104
   -160207.212 9   -122254.81749  20158100.413    20158100.1584   20158109.0084
   -218594.793 8   -154719.57752         0.000           0.0004          0.0005
    308014.738 9    232580.69348  21463540.075    21463539.9914   21463547.8934
    306165.930 9    226222.55747  22494043.487    22494042.9884   22494056.1364
    158741.421 9    118130.37546  24197857.395    24197855.9744   24197867.0204
   -332947.464 9   -251563.06148  20739282.848    20739282.2434   20739291.2554
 80  9  1 19 11 42.0000000  0  6 24  6  4  9  7  5                   0.000000103
   -160186.981 9   -122239.05249  20158104.270    20158104.0154   20158112.8564
   -221004.964 8   -156597.62852         0.000           0.0004          0.0005
    310549.389 9    234555.74548  21464022.398    21464022.3074   21464030.2214
    308717.642 9    228210.89347  22494529.047    22494528.5524   22494541.6944
    160994.144 9    119885.74046  24198286.022    24198284.5874   24198295.6974
   -334583.672 9   -252838.02848  20738971.491    20738970.8794   20738979.8844
 80  9  1 19 11 43.0000000  0  6 24  6  4  9  7  5                   0.000000103
   -160166.182 9   -122222.84349  20158108.231    20158107.9824   20158116.8164
   -223415.096 8   -158475.65052         0.000           0.0004          0.0005
    313084.393 9    236531.07548  21464504.779    21464504.6934   21464512.6134
    311269.693 9    230199.49847  22495014.691    22495014.2054   22495027.3434
    163246.923 9    121641.14746  24198714.671    24198713.2304   24198724.4024
   -336219.480 9   -254112.68248  20738660.225    20738659.6044   20738668.6054
 80  9  1 19 11 44.0000000  0  6 24  6  4  9  7  5                   0.000000102
   -160144.799 9   -122206.18149  20158112.297    20158112.0494   20158120.8784
   -225825.201 8   -160353.65252         0.000           0.0004          0.0005
    315619.774 9    238506.69648  21464987.260    21464987.1794   21464995.1064
    313822.096 9    232188.37947  22495500.393    22495499.9094   22495513.0474
    165499.765 9    123396.60246  24199143.342    24199141.8934   24199153.1244
   -337854.862 9   -255387.00348  20738349.037    20738348.4104   20738357.4094
 80  9  1 19 11 45.0000000  0  6 24  6  4  9  7  5                   0.000000102
   -160122.770 9   -122189.01549  20158116.497    20158116.2464   20158125.0694
   -228235.177 8   -162231.55052         0.000           0.0004          0.0005
    318155.600 9    240482.66048  21465469.811    21465469.7354   21465477.6724
    316374.926 9    234177.59647  22495986.184    22495985.7034   22495998.8374
    167752.737 9    125152.15946  24199572.011    24199570.5674   24199581.8434
   -339489.745 9   -256660.93848  20738037.928    20738037.3054   20738046.2924
 80  9  1 19 11 46.0000000  0  6 24  6  4  9  7  5                   0.000000102
   -160100.265 9   -122171.47749  20158120.770    20158120.5134   20158129.3434
   -230645.152 8   -164109.44952         0.000           0.0004          0.0005
    320691.759 9    242458.88748  21465952.400    21465952.3214   21465960.2684
    318928.051 9    236167.03547  22496472.039    22496471.5574   22496484.6964
    170005.715 9    126907.72546  24200000.700    24199999.2504   24200010.6004
   -341124.286 9   -257934.60748  20737726.884    20737726.2614   20737735.2484
 80  9  1 19 11 47.0000000  0  6 24  6  4  9  7  5                   0.000000101
   -160077.248 9   -122153.53849  20158125.182    20158124.9304   20158133.7514
   -233055.205 8   -165987.41152         0.000           0.0004          0.0005
    323228.199 9    244435.33248  21466435.088    21466435.0074   21466442.9724
    321481.437 9    238156.68247  22496957.928    22496957.4504   22496970.5814
    172258.663 9    128663.26546  24200429.384    24200427.9434   24200439.3474
   -342758.493 9   -259208.01448  20737415.914    20737415.2864   20737424.2654
 80  9  1 19 11 48.0000000  0  6 24  6  4  9  7  5                   0.000000101
   -160053.563 9   -122135.08349  20158129.692    20158129.4374   20158138.2484
   -235465.101 8   -167865.25152         0.000           0.0004          0.0005
    325765.121 9    246412.14948  21466917.836    21466917.7624   21466925.7344
    324035.280 9    240146.67847  22497443.918    22497443.4444   22497456.5714
    174511.781 9    130418.93746  24200858.082    24200856.6564   24200868.1154
   -344392.165 9   -260481.00748  20737105.036    20737104.4014   20737113.3814
 80  9  1 19 11 49.0000000  0  6 24  6  4  9  7  5                   0.000000101
   -160029.494 9   -122116.32749  20158134.265    20158134.0044   20158142.8174
   -237875.106 8   -169743.17752         0.000           0.0004          0.0005
    328302.230 9    248389.11648  21467400.624    21467400.5484   21467408.5274
    326589.314 9    242136.82747  22497929.915    22497929.4474   22497942.5694
    176764.791 9    132174.52646  24201286.781    24201285.3594   24201296.8734
   -346025.601 9   -261753.81348  20736794.231    20736793.5964   20736802.5814
 80  9  1 19 11 50.0000000  0  6 24  6  4  9  7  5                   0.000000100
   -160004.816 9   -122097.09649  20158138.977    20158138.7114   20158147.5174
   -240285.028 8   -171621.03852         0.000           0.0004          0.0005
    330839.760 9    250366.41048  21467883.472    21467883.3944   21467891.3904
    329143.732 9    244127.27247  22498416.032    22498415.5714   22498428.6874
    179017.914 9    133930.20246  24201715.494    24201714.0934   24201725.6534
   -347658.584 9   -263026.26648  20736483.488    20736482.8514   20736491.8194
 80  9  1 19 11 51.0000000  0  6 24  6  4  9  7  5                   0.000000100
   -159979.620 9   -122077.46049  20158143.763    20158143.4974   20158152.3014
   -242694.944 8   -173498.89452         0.000           0.0004          0.0005
    333377.608 9    252343.95448  21468366.412    21468366.3404   21468374.3554
    331698.430 9    246117.94947  22498902.167    22498901.7044   22498914.8254
    181271.029 9    135685.87146  24202144.216    24202142.8264   24202154.4374
   -349291.213 9   -264298.44348  20736172.805    20736172.1664   20736181.1304
 80  9  1 19 11 52.0000000  0  6 24  6  4  9  7  5                   0.000000100
   -159953.924 9   -122057.43549  20158148.665    20158148.3944   20158157.2094
   -245104.858 9   -175376.74852         0.000           0.0004          0.0005
    335915.744 9    254321.72248  21468849.409    21468849.3354   21468857.3674
    334253.419 9    248108.84447  22499388.367    22499387.8984   22499401.0254
    183524.160 9    137441.55246  24202572.929    24202571.5594   24202583.2034
   -350923.504 9   -265570.35848  20735862.190    20735861.5514   20735870.5104
 80  9  1 19 11 53.0000000  0  6 24  6  4  9  7  5                   0.000000099
   -159927.741 9   -122037.03249  20158153.669    20158153.3914   20158162.2074
   -247514.839 8   -177254.65752         0.000           0.0004          0.0005
    338454.182 9    256299.72048  21469332.452    21469332.3814   21469340.4174
    336808.673 9    250099.94047  22499874.629    22499874.1614   22499887.2884
    185777.232 9    139197.18846  24203001.630    24203000.2624   24203011.9564
   -352555.477 9   -266842.02548  20735551.649    20735551.0064   20735559.9624
 80  9  1 19 11 54.0000000  0  6 24  6  4  9  7  5                   0.000000099
   -159900.986 9   -122016.18149  20158158.749    20158158.4674   20158167.2694
   -249924.725 8   -179132.49152         0.000           0.0004          0.0005
    340992.982 9    258278.00548  21469815.537    21469815.4774   21469823.5184
    339364.274 9    252091.30947  22500360.933    22500360.4654   22500373.5914
    188030.397 9    140952.89946  24203430.336    24203428.9764   24203440.7284
   -354187.051 9   -268113.38048  20735241.186    20735240.5414   20735249.4834
 80  9  1 19 11 55.0000000  0  6 24  6  4  9  7  5                   0.000000098
   -159873.637 9   -121994.87049  20158163.967    20158163.6834   20158172.4884
   -252334.525 8   -181010.25952         0.000           0.0004          0.0005
    343532.193 9    260256.60948  21470298.739    21470298.6724   21470306.7374
    341920.255 9    254082.97347  22500847.313    22500846.8484   22500859.9544
    190283.656 9    142708.68346  24203859.085    24203857.7384   24203869.5254
   -355818.210 9   -269384.41348  20734930.791    20734930.1464   20734939.0764
 80  9  1 19 11 56.0000000  0  6 24  6  4  9  7  5                   0.000000098
   -159845.696 9   -121973.09849  20158169.303    20158169.0104   20158177.8084
   -254744.268 9   -182887.98152         0.000           0.0004          0.0005
    346071.785 9    262235.50648  21470782.007    21470781.9474   21470790.0194
    344476.596 9    256074.92747  22501333.769    22501333.3014   22501346.4254
    192536.988 9    144464.51946  24204287.864    24204286.5324   24204298.3564
   -357448.954 9   -270655.12448  20734620.460    20734619.8114   20734628.7394
 80  9  1 19 11 57.0000000  0  6 24  6  4  9  7  5                   0.000000098
   -159817.302 9   -121950.97349  20158174.688    20158174.3964   20158183.1874
   -257154.071 8   -184765.74952         0.000           0.0004          0.0005
    348611.613 9    264214.59148  21471265.291    21471265.2334   21471273.3164
    347033.154 9    258067.04147  22501820.298    22501819.8344   22501832.9464
    194790.287 9    146220.33646  24204716.590    24204715.2854   24204727.1314
   -359079.431 9   -271925.62448  20734310.204    20734309.5464   20734318.4734
 80  9  1 19 11 58.0000000  0  6 24  6  4  9  7  5                   0.000000097
   -159788.400 9   -121928.44949  20158180.210    20158179.9124   20158188.7104
   -259563.873 8   -186643.51852         0.000           0.0004          0.0005
    351151.745 9    266193.91648  21471748.668    21471748.6084   21471756.7074
    349590.003 9    260059.38447  22502306.853    22502306.3974   22502319.5064
    197043.575 9    147976.14146  24205145.356    24205144.0684   24205155.9404
   -360709.585 9   -273195.87248  20734000.018    20733999.3614   20734008.2804
 80  9  1 19 11 59.0000000  0  6 24  6  4  9  7  5                   0.000000097
   -159758.899 9   -121905.45949  20158185.829    20158185.5194   20158194.3264
   -261973.603 8   -188521.23052         0.000           0.0004          0.0005
    353692.267 9    268173.54248  21472232.086    21472232.0344   21472240.1424
    352147.241 9    262052.03147  22502793.481    22502793.0204   22502806.1334
    199296.955 9    149732.01946  24205574.124    24205572.8614   24205584.7484
   -362339.296 9   -274465.77848  20733689.903    20733689.2354   20733698.1504
 80  9  1 19 12  0.0000000  0  6 24  6  4  9  7  5                   0.000000096
   -159728.786 9   -121881.99549  20158191.567    20158191.2654   20158200.0604
   -264383.215 9   -190398.85052         0.000           0.0004          0.0005
    356233.198 9    270153.48348  21472715.594    21472715.5494   21472723.6664
    354704.863 9    264044.97547  22503280.173    22503279.7134   22503292.8224
    201550.453 9    151487.98646  24206002.915    24206001.6744   24206013.5864
   -363968.569 9   -275735.34148  20733379.867    20733379.2004   20733388.1044
 80  9  1 19 12  1.0000000  0  6 24  6  4  9  7  5                   0.000000096
   -159698.250 9   -121858.19849  20158197.367    20158197.0514   20158205.8654
   -266792.939 9   -192276.55752         0.000           0.0004          0.0005
    358774.354 9    272133.60148  21473199.174    21473199.1244   21473207.2584
    357262.681 9    266038.07347  22503766.901    22503766.4464   22503779.5564
    203803.859 9    153243.88346  24206431.695    24206430.4774   24206442.4084
   -365597.623 9   -277004.73048  20733069.874    20733069.1954   20733078.1084
 80  9  1 19 12  2.0000000  0  6 24  6  4  9  7  5                   0.000000095
   -159667.196 9   -121834.00149  20158203.292    20158202.9664   20158211.7744
   -269202.683 8   -194154.28052         0.000           0.0004          0.0005
    361315.821 9    274113.96348  21473682.781    21473682.7394   21473690.8794
    359820.785 9    268031.39647  22504253.691    22504253.2394   22504266.3494
    206057.278 9    154999.79146  24206860.473    24206859.2704   24206871.2244
   -367226.323 9   -278273.84648  20732759.940    20732759.2594   20732768.1604
 80  9  1 19 12  3.0000000  0  6 24  6  4  9  7  5                   0.000000095
   -159635.519 9   -121809.31649  20158209.304    20158208.9824   20158217.7854
   -271612.303 8   -196031.90752         0.000           0.0004          0.0005
    363857.686 9    276094.63548  21474166.459    21474166.4244   21474174.5674
    362379.294 9    270025.03247  22504740.580    22504740.1324   22504753.2494
    208310.793 9    156755.77246  24207289.268    24207288.1034   24207300.0564
   -368854.564 9   -279542.60548  20732450.110    20732449.4244   20732458.3184
 80  9  1 19 12  4.0000000  0  7 24  6  4  9  7  5 30                0.000000094
   -159603.347 9   -121784.24649  20158215.444    20158215.1184   20158223.9244
   -274021.942 8   -197909.54652         0.000           0.0004          0.0005
    366399.851 9    278075.54448  21474650.230    21474650.1994   21474658.3554
    364938.091 9    272018.89347  22505227.517    22505227.0654   22505240.1954
    210564.299 9    158511.74646  24207718.077    24207716.9264   24207728.9104
   -370482.489 9   -280811.11948  20732140.344    20732139.6484   20732148.5404
   -200286.465 9   -136733.82545         0.000           0.0004   23258607.5194
 80  9  1 19 12  5.0000000  0  7 24  6  4  9  7  5 30                0.000000073
   -159570.664 9   -121758.77849  20158221.668    20158221.3344   20158230.1574
   -276431.600 8   -199787.20252         0.000           0.0004          0.0005
    368942.318 9    280056.68348  21475134.017    21475133.9854   21475142.1554
    367497.155 9    274012.95647  22505714.483    22505714.0384   22505727.1614
    212817.804 9    160267.72146  24208146.879    24208145.7694   24208157.7424
   -372110.069 9   -282079.36348  20731830.627    20731829.9334   20731838.8194
   -203507.872 9   -139244.00645         0.000           0.0004   23257994.7424
 80  9  1 19 12  6.0000000  0  7 24  6  4  9  7  5 30                0.000000071
   -159537.324 9   -121732.79749  20158228.006    20158227.6704   20158236.4974
   -278841.088 8   -201664.72252         0.000           0.0004          0.0005
    371485.253 9    282038.19348  21475617.925    21475617.8994   21475626.0794
    370056.677 9    276007.38647  22506201.547    22506201.1014   22506214.2174
    215071.464 9    162023.81646  24208575.698    24208574.6124   24208586.5914
   -373737.139 9   -283347.21048  20731521.017    20731520.3174   20731529.1994
   -206729.045 9   -141754.00645         0.000           0.0004   23257381.6164
 80  9  1 19 12  7.0000000  0  7 24  6  4  9  7  5 30                0.000000070
   -159503.536 9   -121706.46649  20158234.428    20158234.0954   20158242.9174
   -281250.677 8   -203542.32452         0.000           0.0004   24952875.5965
    374028.445 9    284019.89848  21476101.855    21476101.8344   21476110.0154
    372616.441 9    278001.99847  22506688.656    22506688.2144   22506701.3274
    217325.078 9    163779.87546  24209004.528    24209003.4564   24209015.4514
   -375363.927 9   -284614.83548  20731211.446    20731210.7414   20731219.6244
   -209950.230 9   -144264.01145         0.000           0.0004   23256768.8454
 80  9  1 19 12  8.0000000  0  7 24  6  4  9  7  5 30                0.000000069
   -159468.973 9   -121679.53649  20158241.017    20158240.6804   20158249.5084
   -283659.944 8   -205419.67243         0.000           0.0004   24952416.8504
    376572.203 9    286002.04348  21476585.919    21476585.8994   21476594.0904
    375176.771 9    279997.05447  22507175.863    22507175.4264   22507188.5364
    219578.979 9    165536.15846  24209433.417    24209432.3694   24209444.3714
   -376990.083 9   -285881.97148  20730901.986    20730901.2754   20730910.1504
   -213171.06919   -146773.74745         0.000           0.0005   23256155.8204
 80  9  1 19 12  9.0000000  0  7 24  6  4  9  7  5 30                0.000000067
   -159434.082 9   -121652.34749  20158247.645    20158247.3064   20158256.1354
   -286069.423 8   -207297.18743         0.000           0.0004   24951958.1934
    379116.094 9    287984.29448  21477069.989    21477069.9744   21477078.1674
    377737.218 9    281992.19947  22507663.100    22507662.6694   22507675.7754
    221832.685 9    167292.29146  24209862.269    24209861.2324   24209873.2484
   -378616.074 9   -287148.97548  20730592.576    20730591.8704   20730600.7434
   -216392.01519   -149283.56945         0.000           0.0005   23255543.1594
 80  9  1 19 12 10.0000000  0  7 24  6  4  9  7  5 30                0.000000066
   -159398.601 9   -121624.69749  20158254.391    20158254.0514   20158262.8814
   -288478.816 8   -209174.63643         0.000           0.0004   24951499.5374
    381660.379 9    289966.85248  21477554.171    21477554.1594   21477562.3574
    380298.046 9    283987.64647  22508150.418    22508149.9824   22508163.0934
    224086.473 9    169048.48346  24210291.115    24210290.0854   24210302.1184
   -380241.645 9   -288415.65148  20730283.271    20730282.5644   20730291.4324
   -219612.83319   -151793.29045         0.000           0.0005   23254930.8934
 80  9  1 19 12 11.0000000  0  7 24  6  4  9  7  5 30                0.000000064
   -159362.630 9   -121596.66749  20158261.236    20158260.8974   20158269.7284
   -290888.214 8   -211052.08644         0.000           0.0004   24951040.5594
    384204.954 9    291949.63848  21478038.378    21478038.3644   21478046.5574
    382859.168 9    285983.31947  22508637.795    22508637.3644   22508650.4694
    226340.256 9    170804.67246  24210719.989    24210718.9684   24210731.0064
   -381866.868 9   -289682.05848  20729973.988    20729973.2784   20729982.1424
   -222833.58819   -154302.96145         0.000           0.0005   23254318.1074
 80  9  1 19 12 12.0000000  0  7 24  6  4  9  7  5 30                0.000000063
   -159326.134 9   -121568.22849  20158268.176    20158267.8324   20158276.6644
   -293297.633 8   -212929.55444         0.000           0.0004   24950581.5674
    386749.832 9    293932.65648  21478522.636    21478522.6294   21478530.8384
    385420.591 9    287979.21847  22509125.226    22509124.7974   22509137.9054
    228594.025 9    172560.84846  24211148.835    24211147.8124   24211159.8764
   -383491.727 9   -290948.18248  20729664.778    20729664.0724   20729672.9274
   -226054.25319   -156812.56345         0.000           0.0005   23253705.2484
 80  9  1 19 12 13.0000000  0  7 24  6  4  9  7  5 30                0.000000061
   -159289.029 9   -121539.31449  20158275.230    20158274.8874   20158283.7324
   -295706.934 9   -214806.93044         0.000           0.0004   24950123.2234
    389295.129 9    295916.00148  21479006.998    21479006.9934   21479015.2004
    387982.392 9    289975.42347  22509612.733    22509612.3094   22509625.4214
    230847.877 9    174317.09046  24211577.730    24211576.7154   24211588.7924
   -385116.157 9   -292213.97148  20729355.670    20729354.9664   20729363.8294
   -229274.77019   -159322.05145         0.000           0.0005   23253092.4704
 80  9  1 19 12 14.0000000  0  7 24  6  4  9  7  5 30                0.000000060
   -159251.392 9   -121509.98549  20158282.388    20158282.0524   20158290.8944
   -298116.228 8   -216684.29944         0.000           0.0004   24949664.7594
    391840.747 9    297899.60248  21479491.400    21479491.3984   21479499.6064
    390544.510 9    291971.87847  22510100.293    22510099.8724   22510112.9774
    233101.745 9    176073.34446  24212006.618    24212005.5984   24212017.7034
   -386740.221 9   -293479.47648  20729046.625    20729045.9204   20729054.7884
   -232495.19519   -161831.46545         0.000           0.0005   23252479.4134
 80  9  1 19 12 15.0000000  0  7 24  6  4  9  7  5 30                0.000000059
   -159213.147 9   -121480.18349  20158289.666    20158289.3274   20158298.1794
   -300525.464 8   -218561.62344         0.000           0.0004   24949206.5564
    394386.765 9    299883.51248  21479975.889    21479975.8824   21479984.0984
    393107.025 9    293968.63847  22510587.924    22510587.5044   22510600.6084
    235355.712 9    177829.68046  24212435.521    24212434.5014   24212446.6214
   -388363.824 9   -294744.62148  20728737.664    20728736.9544   20728745.8174
   -235715.46219   -164340.75845         0.000           0.0005   23251866.3304
 80  9  1 19 12 16.0000000  0  7 24  6  4  9  7  5 30                0.000000057
   -159174.162 9   -121449.80849  20158297.090    20158296.7524   20158305.6064
   -302934.473 8   -220438.76944         0.000           0.0004   24948747.5884
    396933.307 9    301867.82448  21480460.463    21480460.4774   21480468.6774
    395670.073 9    295965.80947  22511075.648    22511075.2274   22511088.3264
    237609.894 9    179586.17846  24212864.444    24212863.4244   24212875.5664
   -389986.851 9   -296009.31948  20728428.824    20728428.1184   20728436.9794
   -238935.43819   -166849.82846         0.000           0.0005   23251253.5644
 80  9  1 19 12 17.0000000  0  7 24  6  4  9  7  5 30                0.000000056
   -159134.858 9   -121419.18049  20158304.562    20158304.2274   20158313.0894
   -305343.70218   -222316.09044         0.000           0.0005   24948289.1914
    399479.954 9    303852.22548  21480945.081    21480945.0814   21480953.2974
    398233.225 9    297963.06347  22511563.417    22511562.9894   22511576.1044
    239863.883 9    181342.53046  24213293.353    24213292.3374   24213304.5034
   -391609.710 9   -297273.88448  20728119.994    20728119.2924   20728128.1554
   -242155.53119   -169358.98346         0.000           0.0005   23250640.8694
 80  9  1 19 12 18.0000000  0  7 24  6  4  9  7  5 30                0.000000054
   -159095.132 9   -121388.22049  20158312.117    20158311.7814   20158320.6464
   -307753.01919   -224193.47945         0.000           0.0005   24947830.4424
    402026.816 9    305836.79648  21481429.737    21481429.7564   21481437.9504
    400796.585 9    299960.48147  22512051.218    22512050.7824   22512063.9004
    242117.820 9    183098.84146  24213722.248    24213721.2304   24213733.4194
   -393232.287 9   -298538.22448  20727811.215    20727810.5154   20727819.3694
   -245375.65919   -171868.16946         0.000           0.0005   23250028.0154
 80  9  1 19 12 19.0000000  0  7 24  6  4  9  7  5 30                0.000000052
   -159054.864 9   -121356.84249  20158319.761    20158319.4264   20158328.2954
   -310162.33419   -226070.86545         0.000           0.0005   24947372.0604
    404574.002 9    307821.61348  21481914.431    21481914.4404   21481922.6544
    403360.291 9    301958.16647  22512539.083    22512538.6544   22512551.7664
    244371.760 9    184855.15646  24214151.154    24214150.1434   24214162.3474
   -394854.483 9   -299802.27548  20727502.539    20727501.8394   20727510.7024
   -248595.67919   -174377.27246         0.000           0.0005   23249415.2294
 80  9  1 19 12 20.0000000  0  7 24  6  4  9  7  5 30                0.000000050
   -159013.808 9   -121324.85049  20158327.591    20158327.2614   20158336.1344
   -312571.38319   -227948.04345         0.000           0.0005   24946913.6194
    407121.802 9    309806.91048  21482399.278    21482399.2854   21482407.5014
    405924.561 9    303956.29147  22513027.045    22513026.6164   22513039.7314
    246625.977 9    186611.68446  24214580.132    24214579.1264   24214591.3444
   -396476.039 9   -301065.82448  20727193.953    20727193.2534   20727202.1124
   -251815.35219   -176886.10046         0.000           0.0005   23248802.4964
 80  9  1 19 12 21.0000000  0  7 24  6  4  9  7  5 30                0.000000049
   -158972.333 9   -121292.53149  20158335.474    20158335.1454   20158344.0214
   -314980.56918   -229825.33145         0.000           0.0005   24946455.5364
    409669.789 9    311792.35448  21482884.125    21482884.1394   21482892.3474
    408489.031 9    305954.57647  22513515.045    22513514.6184   22513527.7394
    248880.084 9    188368.12446  24215009.050    24215008.0394   24215020.2734
   -398097.338 9   -302329.17048  20726885.432    20726884.7364   20726893.5994
   -255035.04419   -179394.94546         0.000           0.0005   23248189.7954
 80  9  1 19 12 22.0000000  0  7 24  6  4  9  7  5 30                0.000000048
   -158930.247 9   -121259.73749  20158343.464    20158343.1404   20158352.0074
   -317389.67318   -231702.55045         0.000           0.0005   24945997.0044
    412218.183 9    313778.12148  21483369.082    21483369.1034   21483377.2974
    411053.892 9    307953.15647  22514003.131    22514002.6904   22514015.8234
    251134.296 9    190124.65046  24215438.019    24215437.0024   24215449.2614
   -399718.191 9   -303592.17248  20726577.000    20726576.3004   20726585.1704
   -258254.59219   -181903.67746         0.000           0.0005   23247577.1104
 80  9  1 19 12 23.0000000  0  7 24  6  4  9  7  5 30                0.000000047
   -158887.706 9   -121226.58749  20158351.564    20158351.2444   20158360.1214
   -319798.80718   -233579.79145         0.000           0.0005   24945538.5334
    414766.854 9    315764.09648  21483854.079    21483854.0974   21483862.2924
    413619.013 9    309951.94347  22514491.273    22514490.8424   22514503.9654
    253388.464 9    191881.13946  24215866.955    24215865.9354   24215878.2024
   -401338.708 9   -304854.91048  20726268.628    20726267.9234   20726276.8014
   -261474.090 9   -184412.37246  23246951.428    23246951.0114   23246964.4284
 80  9  1 19 12 24.0000000  0  7 24  6  4  9  7  5 30                0.000000045
   -158844.777 9   -121193.13249  20158359.726    20158359.4084   20158368.2904
   -322208.12819   -235457.18145         0.000           0.0005   24945079.9904
    417315.706 9    317750.21448  21484339.091    21484339.1124   21484347.2974
    416184.284 9    311950.84847  22514979.427    22514978.9944   22514992.1154
    255642.500 9    193637.52546  24216295.892    24216294.8784   24216307.1544
   -402958.993 9   -306117.46848  20725960.274    20725959.5774   20725968.4534
   -264693.639 9   -186921.10146  23246338.932    23246338.2054   23246351.7184
 80  9  1 19 12 25.0000000  0  7 24  6  4  9  7  5 30                0.000000044
   -158801.136 9   -121159.13149  20158368.024    20158367.7034   20158376.5914
   -324617.28019   -237334.43945         0.000           0.0005   24944621.6074
    419865.031 9    319736.70148  21484824.232    21484824.2554   21484832.4354
    418750.055 9    313950.14347  22515467.682    22515467.2564   22515480.3714
    257896.721 9    195394.05646  24216724.849    24216723.8414   24216736.1294
   -404578.721 9   -307379.59548  20725652.073    20725651.3804   20725660.2514
   -267912.917 9   -189429.62546  23245726.424    23245725.5494   23245739.1074
 80  9  1 19 12 26.0000000  0  7 24  6  4  9  7  5 30                0.000000042
   -158756.953 9   -121124.70049  20158376.443    20158376.1274   20158385.0164
   -327026.38218   -239211.65745         0.000           0.0005   24944162.8044
    422414.694 9    321723.45348  21485309.418    21485309.4394   21485317.6124
    421316.148 9    315949.69347  22515955.995    22515955.5684   22515968.6864
    260150.965 9    197150.60646  24217153.824    24217152.8144   24217165.1114
   -406198.039 9   -308641.40048  20725343.920    20725343.2234   20725352.1024
   -271132.074 9   -191938.05246  23245113.452    23245113.2834   23245126.4914
 80  9  1 19 12 27.0000000  0  7 24  6  4  9  7  5 30                0.000000040
   -158712.106 9   -121089.75349  20158384.955    20158384.6414   20158393.5374
   -329435.34718   -241088.76745         0.000           0.0005   24943704.1654
    424964.797 9    323710.54248  21485794.678    21485794.6944   21485802.8704
    423882.693 9    317949.59047  22516444.393    22516443.9704   22516457.0934
    262405.351 9    198907.26346  24217582.796    24217581.7874   24217594.0894
   -407816.829 9   -309902.79348  20725035.868    20725035.1774   20725044.0654
   -274350.992 9   -194446.29746  23244500.859    23244500.7174   23244513.9584
 80  9  1 19 12 28.0000000  0  7 24  6  4  9  7  5 30                0.000000038
   -158666.891 9   -121054.51749  20158393.560    20158393.2654   20158402.1454
   -331844.47819   -242966.01145         0.000           0.0005   24943245.7784
    427515.095 9    325697.79148  21486279.985    21486279.9984   21486288.1674
    426449.407 9    319949.62047  22516932.806    22516932.3924   22516945.5074
    264659.616 9    200663.82946  24218011.783    24218010.7804   24218023.0894
   -409435.377 9   -311163.99748  20724727.849    20724727.1604   20724736.0504
   -277569.945 9   -196954.56646  23243888.105    23243888.4214   23243901.4184
 80  9  1 19 12 29.0000000  0  7 24  6  4  9  7  5 30                0.000000036
   -158620.950 9   -121018.72149  20158402.298    20158402.0094   20158410.8904
   -334253.37718   -244843.07045         0.000           0.0005   24942787.3194
    430065.889 9    327685.42148  21486765.393    21486765.4024   21486773.5724
    429016.629 9    321950.04447  22517421.362    22517420.9544   22517434.0694
    266914.080 9    202420.54946  24218440.792    24218439.7934   24218452.1014
   -411053.336 9   -312424.74448  20724419.957    20724419.2734   20724428.1654
   -280788.589 9   -199462.59346  23243275.374    23243275.9754   23243288.9224
 80  9  1 19 12 30.0000000  0  7 24  6  4  9  7  5 30                0.000000034
   -158574.579 9   -120982.58549  20158411.131    20158410.8334   20158419.7264
   -336662.38518   -246720.21445         0.000           0.0005   24942329.0174
    432616.873 9    329673.20448  21487250.844    21487250.8564   21487259.0154
    431584.050 9    323950.62147  22517909.909    22517909.5054   22517922.6284
    269168.449 9    204177.19546  24218869.796    24218868.8064   24218881.1104
   -412671.010 9   -313685.26548  20724112.123    20724111.4364   20724120.3394
   -284007.249 9   -201970.63346  23242662.579    23242663.5594   23242676.4024
 80  9  1 19 12 31.0000000  0  7 24  6  4  9  7  5 30                0.000000033
   -158527.628 9   -120946.00049  20158420.066    20158419.7864   20158428.6744
   -339071.31819   -248597.29945         0.000           0.0005   24941871.0454
    435168.227 9    331661.27448  21487736.361    21487736.3694   21487744.5174
    434151.833 9    325951.48347  22518398.541    22518398.1374   22518411.2664
    271422.878 9    205933.88946  24219298.776    24219297.7894   24219310.1024
   -414288.239 9   -314945.44148  20723804.370    20723803.6894   20723812.5954
   -287225.742 9   -204478.54446  23242050.528    23242050.5434   23242063.9104
 80  9  1 19 12 32.0000000  0  7 24  6  4  9  7  5 30                0.000000032
   -158480.108 9   -120908.97049  20158429.096    20158428.8104   20158437.7104
   -341480.22619   -250474.36745         0.000           0.0005   24941413.0224
    437719.941 9    333649.62148  21488221.935    21488221.9434   21488230.0824
    436719.974 9    327952.62847  22518887.239    22518886.8394   22518899.9734
    273677.357 9    207690.62246  24219727.799    24219726.8224   24219739.1364
   -415905.035 9   -316205.28148  20723496.713    20723496.0324   20723504.9424
   -290444.085 9   -206986.34046  23241438.022    23241438.4574   23241451.4744
 80  9  1 19 12 33.0000000  0  7 24  6  4  9  7  5 30                0.000000029
   -158432.063 9   -120871.53149  20158438.244    20158437.9644   20158446.8564
   -343889.11818   -252351.42145         0.000           0.0005   24940954.9374
    440271.993 9    335638.23248  21488707.581    21488707.5874   21488715.7174
    439288.414 9    329954.00447  22519376.005    22519375.6104   22519388.7424
    275931.851 9    209447.36746  24220156.817    24220155.8354   24220168.1724
   -417521.433 9   -317464.81348  20723189.118    20723188.4454   20723197.3604
   -293662.341 9   -209494.06646  23240825.305    23240826.2814   23240839.0104
 80  9  1 19 12 34.0000000  0  7 24  6  4  9  7  5 30                0.000000029
   -158383.603 9   -120833.76949  20158447.445    20158447.1674   20158456.0684
   -346298.117 8   -254228.55845  24940477.375    24940474.8894   24940496.6054
    442824.232 9    337626.99148  21489193.275    21489193.2814   21489201.3944
    441857.064 9    331955.54547  22519864.805    22519864.4124   22519877.5464
    278186.267 9    211204.04846  24220585.812    24220584.8384   24220597.1754
   -419137.545 9   -318724.11948  20722881.559    20722880.8884   20722889.8074
   -296880.596 9   -212001.79346  23240213.410    23240213.7154   23240226.5634
 80  9  1 19 12 35.0000000  0  7 24  6  4  9  7  5 30                0.000000028
   -158334.324 9   -120795.36849  20158456.815    20158456.5414   20158465.4264
   -348706.836 8   -256105.47845  24940019.050    24940015.9664   24940038.2854
    445377.044 9    339616.19448  21489679.061    21489679.0644   21489687.1704
    444426.286 9    333957.52847  22520353.735    22520353.3534   22520366.4824
    280440.961 9    212960.94846  24221014.878    24221013.9014   24221026.2424
   -420752.988 9   -319982.90348  20722574.157    20722573.4914   20722582.4154
   -300098.483 9   -214509.22946  23239601.259    23239601.2994   23239614.1964
 80  9  1 19 12 36.0000000  0  7 24  6  4  9  7  5 30                0.000000026
   -158284.646 9   -120756.65949  20158466.277    20158466.0044   20158474.9114
   -351115.656 9   -257982.47545  24939560.701    24939557.6144   24939579.7404
    447930.052 9    341605.55348  21490164.872    21490164.8684   21490172.9694
    446995.699 9    335959.66047  22520842.679    22520842.3054   22520855.4294
    282695.556 9    214717.76946  24221443.905    24221442.9244   24221455.2794
   -422368.148 9   -321241.46648  20722266.777    20722266.1144   20722275.0504
   -303316.378 9   -217016.67446  23238989.091    23238989.3924   23239001.8844
 80  9  1 19 12 37.0000000  0  7 24  6  4  9  7  5 30                0.000000025
   -158234.569 9   -120717.63649  20158475.796    20158475.5284   20158484.4204
   -353524.590 8   -259859.56045  24939102.328    24939099.2314   24939121.1294
    450483.257 9    343595.06348  21490650.764    21490650.7624   21490658.8514
    449565.306 9    337961.94447  22521331.653    22521331.2764   22521344.4114
    284950.042 9    216474.50646  24221872.920    24221871.9274   24221884.2944
   -423983.041 9   -322499.82348  20721959.489    20721958.8274   20721967.7724
   -306534.300 9   -219524.13646  23238376.798    23238376.9464   23238389.5384
 80  9  1 19 12 38.0000000  0  7 24  6  4  9  7  5 30                0.000000023
   -158183.724 9   -120678.01549  20158485.478    20158485.2114   20158494.1044
   -355933.311 8   -261736.48045  24938643.967    24938640.7884   24938662.4224
    453036.992 9    345584.98648  21491136.708    21491136.7054   21491144.7864
    452135.422 9    339964.62647  22521820.725    22521820.3584   22521833.4834
    287204.795 9    218231.45446  24222301.994    24222301.0104   24222313.3754
   -425597.308 9   -323757.69148  20721652.292    20721651.6394   20721660.5844
   -309751.878 9   -222031.33446  23237764.374    23237764.5914   23237777.2514
 80  9  1 19 12 39.0000000  0  7 24  6  4  9  7  5 30                0.000000021
   -158132.386 9   -120638.01349  20158495.224    20158494.9544   20158503.8504
   -358342.066 8   -263613.42645  24938185.614    24938182.6754   24938204.0274
    455591.017 9    347575.13548  21491622.727    21491622.7194   21491630.8004
    454705.789 9    341967.49847  22522309.842    22522309.4794   22522322.5964
    289459.498 9    219988.35846  24222731.063    24222730.0734   24222742.4474
   -427211.231 9   -325015.29148  20721345.178    20721344.5224   20721353.4844
   -312969.398 9   -224538.48746  23237152.046    23237152.1444   23237165.0004
 80  9  1 19 12 40.0000000  0  7 24  6  4  9  7  5 30                0.000000020
   -158080.427 9   -120597.52649  20158505.116    20158504.8474   20158513.7454
   -360750.721 8   -265490.29645  24937727.266    24937724.1434   24937745.6444
    458145.453 9    349565.60748  21492108.843    21492108.8324   21492116.9034
    457276.536 9    343970.67247  22522799.058    22522798.7014   22522811.8144
    291714.310 9    221745.35046  24223160.133    24223159.1464   24223171.5194
   -428824.681 9   -326272.52548  20721038.138    20721037.4844   20721046.4594
   -316186.731 9   -227045.49846  23236539.813    23236539.8384   23236552.7904
 80  9  1 19 12 41.0000000  0  7 24  6  4  9  7  5 30                0.000000018
   -158028.209 9   -120556.83249  20158515.067    20158514.8114   20158523.6954
   -363159.635 8   -267367.36445  24937268.881    24937265.7004   24937287.1344
    460699.944 9    351556.12248  21492594.967    21492594.9464   21492603.0104
    459847.315 9    345973.87147  22523288.262    22523287.9024   22523301.0234
    293968.861 9    223502.13746  24223589.162    24223588.1594   24223600.5424
   -430438.012 9   -327529.66248  20720731.110    20720730.4674   20720739.4424
   -319404.205 9   -229552.61246  23235927.745    23235927.5224   23235940.5584
 80  9  1 19 12 42.0000000  0  7 24  6  4  9  7  5 30                0.000000017
   -157975.067 9   -120515.42249  20158525.151    20158524.9044   20158533.7824
   -365568.146 9   -269244.12245  24936810.562    24936807.4074   24936828.8144
    463255.131 9    353547.18048  21493081.201    21493081.1794   21493089.2374
    462418.760 9    347977.58847  22523777.607    22523777.2434   22523790.3644
    296223.818 9    225259.24046  24224018.284    24224017.2924   24224029.6624
   -432050.568 9   -328786.19848  20720424.250    20720423.6104   20720432.5904
   -322621.188 9   -232059.34346  23235315.642    23235315.2764   23235328.3844
 80  9  1 19 12 43.0000000  0  7 24  6  4  9  7  5 30                0.000000016
   -157921.432 9   -120473.62849  20158535.365    20158535.1174   20158543.9964
   -367976.677 9   -271120.89445  24936352.247    24936349.3254   24936370.5794
    465810.628 9    355538.47748  21493567.502    21493567.4834   21493575.5364
    464990.485 9    349981.52347  22524266.999    22524266.6344   22524279.7574
    298478.772 9    227016.34046  24224447.384    24224446.3954   24224458.7694
   -433662.752 9   -330042.44348  20720117.456    20720116.8124   20720125.8054
   -325838.059 9   -234565.98946  23234703.751    23234703.1204   23234716.2634
 80  9  1 19 12 44.0000000  0  7 24  6  4  9  7  5 30                0.000000015
   -157867.389 9   -120431.51649  20158545.652    20158545.4094   20158554.2824
   -370385.339 8   -272997.76945  24935893.871    24935890.9124   24935912.2604
    468366.312 9    357529.92148  21494053.832    21494053.8064   21494061.8504
    467562.378 9    351985.59647  22524756.401    22524756.0354   22524769.1574
    300733.615 9    228773.35146  24224876.476    24224875.4774   24224887.8554
   -435274.667 9   -331298.47848  20719810.722    20719810.0844   20719819.0784
   -329054.961 9   -237072.65846  23234091.898    23234090.9934   23234104.1224
 80  9  1 19 12 45.0000000  0  7 24  6  4  9  7  5 30                0.000000013
   -157812.601 9   -120388.82249  20158556.064    20158555.8124   20158564.6994
   -372793.765 8   -274874.45845  24935435.552    24935432.5594   24935454.2224
    470922.515 9    359521.76548  21494540.282    21494540.2494   21494548.2894
    470134.779 9    353990.05847  22525245.927    22525245.5564   22525258.6804
    302988.684 9    230530.54346  24225305.582    24225304.5904   24225316.9544
   -436885.975 9   -332554.04248  20719504.089    20719503.4474   20719512.4614
   -332271.517 9   -239579.05846  23233479.767    23233478.9174   23233492.0274
 80  9  1 19 12 46.0000000  0  7 24  6  4  9  7  5 30                0.000000012
   -157757.428 9   -120345.82949  20158566.557    20158566.3054   20158575.1904
   -375202.314 8   -276751.24445  24934977.199    24934974.2074   24934996.0214
    473478.903 9    361513.75348  21495026.743    21495026.7124   21495034.7364
    472707.325 9    355994.63147  22525735.487    22525735.1184   22525748.2414
    305243.639 9    232287.64246  24225734.717    24225733.7234   24225746.0754
   -438497.034 9   -333809.41048  20719197.508    20719196.8694   20719205.8844
   -335488.090 9   -242085.47446  23232867.735    23232866.8214   23232879.9624
 80  9  1 19 12 47.0000000  0  7 24  6  4  9  7  5 30                0.000000010
   -157701.495 9   -120302.24249  20158577.227    20158576.9774   20158585.8604
   -377610.626 9   -278627.84445  24934518.887    24934516.4234   24934538.3914
    476035.808 9    363506.15148  21495513.324    21495513.2854   21495521.3044
    475280.393 9    357999.60747  22526225.108    22526224.7394   22526237.8634
    307498.841 9    234044.93446  24226163.849    24226162.8564   24226175.2034
   -440107.469 9   -335064.29148  20718891.058    20718890.4214   20718899.4484
   -338704.300 9   -244591.60646  23232255.762    23232254.7754   23232267.9394
 80  9  1 19 12 48.0000000  0  7 24  6  4  9  7  5 30                0.000000009
   -157645.109 9   -120258.30449  20158587.935    20158587.6904   20158596.5644
   -380018.996 9   -280504.49145  24934060.568    24934058.2814   24934080.1904
    478592.964 9    365498.74248  21495999.929    21495999.8994   21496007.9064
    477853.681 9    360004.75947  22526714.799    22526714.4304   22526727.5474
    309753.986 9    235802.18546  24226593.005    24226592.0194   24226604.3494
   -441717.585 9   -336318.92648  20718584.659    20718584.0234   20718593.0644
   -341920.466 9   -247097.70246  23231643.417    23231642.7394   23231655.9334
 80  9  1 19 12 49.0000000  0  7 24  6  4  9  7  5 30                0.000000007
   -157588.152 9   -120213.92149  20158598.777    20158598.5234   20158607.4044
   -382427.291 8   -282381.08145  24933602.266    24933600.1684   24933622.0294
    481150.460 9    367491.59648  21496486.604    21496486.5724   21496494.5604
    480427.307 9    362010.17647  22527204.550    22527204.1814   22527217.2924
    312009.199 9    237559.48746  24227022.144    24227021.1624   24227033.4814
   -443327.253 9   -337573.21048  20718278.330    20718277.6954   20718286.7374
   -345136.438 9   -249603.64746  23231031.290    23231030.7424   23231043.9674
 80  9  1 19 12 50.0000000  0  7 24  6  4  9  7  5 30                0.000000005
   -157530.744 9   -120169.18549  20158609.709    20158609.4554   20158618.3304
   -384835.631 8   -284257.70445  24933143.943    24933141.7254   24933163.3614
    483708.180 9    369484.62448  21496973.329    21496973.2954   21496981.2874
    483001.134 9    364015.75947  22527694.353    22527693.9824   22527707.0984
    314264.347 9    239316.74046  24227451.290    24227450.3154   24227462.6244
   -444936.604 9   -338827.24748  20717972.084    20717971.4474   20717980.5124
   -348352.357 9   -252109.55146  23230419.114    23230418.7764   23230431.9844
 80  9  1 19 12 51.0000000  0  7 24  6  4  9  7  5 30                0.000000004
   -157472.638 9   -120123.90649  20158620.775    20158620.5174   20158629.3904
   -387243.798 8   -286134.19245  24932685.650    24932683.4024   24932704.9224
    486266.391 9    371478.03948  21497460.164    21497460.1284   21497468.1044
    485575.438 9    366021.70047  22528184.247    22528183.8724   22528196.9954
    316519.683 9    241074.13946  24227880.474    24227879.5084   24227891.7914
   -446545.382 9   -340080.84048  20717665.928    20717665.2994   20717674.3594
   -351567.967 9   -254615.21246  23229807.473    23229806.8694   23229820.0564
 80  9  1 19 12 52.0000000  0  7 24  6  4  9  7  5 30                0.000000002
   -157413.870 9   -120078.11349  20158631.952    20158631.6904   20158640.5724
   -389651.803 8   -288010.55345  24932227.397    24932225.1104   24932247.0924
    488825.036 9    373471.78748  21497947.068    21497947.0314   21497955.0004
    488150.164 9    368027.96947  22528674.190    22528673.8134   22528686.9314
    318775.187 9    242831.67146  24228309.699    24228308.7314   24228321.0074
   -448153.632 9   -341334.02148  20717359.890    20717359.2614   20717368.3314
   -354783.302 9   -257120.66346  23229195.439    23229195.0634   23229208.2304
 80  9  1 19 12 53.0000000  0  7 24  6  4  9  7  5 30                0.000000000
   -157354.753 9   -120032.04749  20158643.204    20158642.9424   20158651.8214
   -392059.966 8   -289887.03845  24931769.102    24931766.9374   24931788.5334
    491383.797 9    375465.63048  21498433.972    21498433.9344   21498441.8964
    490725.002 9    370034.32947  22529164.179    22529163.8044   22529176.9154
    321030.515 9    244589.06346  24228738.882    24228737.9134   24228750.1734
   -449761.660 9   -342587.02848  20717053.894    20717053.2634   20717062.3464
   -357998.681 9   -259626.15046  23228583.284    23228583.1874   23228596.3574
 80  9  1 19 12 54.0000000  0  7 24  6  4  9  7  5 30               -0.000000001
   -157294.926 9   -119985.42749  20158654.594    20158654.3244   20158663.2014
   -394467.925 8   -291763.36245  24931310.871    24931308.7044   24931330.2424
    493943.056 9    377459.86248  21498921.007    21498920.9664   21498928.9284
    493300.316 9    372041.06147  22529654.249    22529653.8754   22529666.9784
    323286.073 9    246346.63446  24229168.080    24229167.1164   24229179.3774
   -451369.100 9   -343839.57748  20716747.994    20716747.3654   20716756.4614
   -361213.752 9   -262131.39446  23227971.742    23227971.3604   23227984.5334
 80  9  1 19 12 55.0000000  0  7 24  6  4  9  7  5 30               -0.000000002
   -157234.620 9   -119938.43449  20158666.065    20158665.7964   20158674.6704
   -396875.906 8   -293639.70845  24930852.626    24930850.2624   24930871.9164
    496502.559 9    379454.27648  21499408.043    21499408.0094   21499415.9534
    495875.876 9    374047.98547  22530144.384    22530144.0054   22530157.1034
    325541.623 9    248104.20246  24229597.323    24229596.3594   24229608.6034
   -452976.201 9   -345091.86048  20716442.170    20716441.5364   20716450.6454
   -364428.737 9   -264636.56946  23227359.978    23227359.5734   23227372.7364
 80  9  1 19 12 56.0000000  0  7 24  6  4  9  7  5 30               -0.000000003
   -157173.665 9   -119890.93449  20158677.674    20158677.4084   20158686.2754
   -399283.748 8   -295515.94045  24930394.371    24930392.1794   24930413.2834
    499062.470 9    381449.00948  21499895.192    21499895.1524   21499903.0964
    498451.846 9    376055.23147  22530634.586    22530634.2064   22530647.3084
    327797.309 9    249861.87145  24230026.562    24230025.6024   24230037.8334
   -454582.796 9   -346343.75048  20716136.448    20716135.8184   20716144.9304
   -367643.466 9   -267141.54246  23226748.318    23226747.8574   23226761.0184
 80  9  1 19 12 57.0000000  0  7 24  6  4  9  7  5 30               -0.000000005
   -157112.257 9   -119843.08449  20158689.359    20158689.1004   20158697.9574
   -401691.643 9   -297392.21645  24929936.142    24929934.1264   24929955.0794
    501622.622 9    383443.93848  21500382.382    21500382.3454   21500390.2894
    501028.046 9    378062.64847  22531124.836    22531124.4474   22531137.5444
    330052.955 9    251619.50845  24230455.786    24230454.8354   24230467.0584
   -456189.058 9   -347595.38248  20715830.789    20715830.1594   20715839.2794
   -370858.148 9   -269646.48346  23226136.522    23226136.1404   23226149.2874
 80  9  1 19 12 58.0000000  0  7 24  6  4  9  7  5 30               -0.000000006
   -157050.264 9   -119794.77849  20158701.163    20158700.9024   20158709.7534
   -404099.456 8   -299268.43245  24929477.925    24929476.0134   24929497.0154
    504183.094 9    385439.11248  21500869.612    21500869.5784   21500877.5004
    503604.598 9    380070.34747  22531615.157    22531614.7674   22531627.8594
    332308.710 9    253377.23345  24230885.042    24230884.0974   24230896.3184
   -457794.882 9   -348846.67248  20715525.180    20715524.5614   20715533.6794
   -374072.629 9   -272151.26846  23225524.974    23225524.4644   23225537.6054
 80  9  1 19 12 59.0000000  0  7 24  6  4  9  7  5 30               -0.000000007
   -156987.748 9   -119746.06249  20158713.068    20158712.8034   20158721.6564
   -406507.268 8   -301144.64545  24929019.705    24929017.6904   24929038.9324
    506743.864 9    387434.52148  21501356.929    21501356.8904   21501364.8184
    506181.411 9    382078.24247  22532105.495    22532105.0984   22532118.1984
    334564.462 9    255134.95845  24231314.313    24231313.3704   24231325.5804
   -459400.338 9   -350097.67348  20715219.668    20715219.0524   20715228.1754
   -377286.996 9   -274655.95946  23224913.179    23224912.7974   23224925.8984
 80  9  1 19 13  0.0000000  0  7 24  6  4  9  7  5 30               -0.000000008
   -156924.306 9   -119696.62949  20158725.144    20158724.8754   20158733.7304
   -408914.660 8   -303020.53045  24928561.544    24928559.5474   24928580.8614
    509305.319 9    389430.46048  21501844.354    21501844.3224   21501852.2304
    508758.909 9    384086.68047  22532596.001    22532595.5984   22532608.6994
    336820.642 9    256893.01445  24231743.650    24231742.7134   24231754.9214
   -461005.024 9   -351348.07948  20714914.310    20714913.6944   20714922.8224
   -380500.835 9   -277160.24646  23224301.596    23224301.2514   23224314.3184
 80  9  1 19 13  1.0000000  0  7 24  6  4  9  7  5 30               -0.000000009
   -156860.444 9   -119646.86649  20158737.303    20158737.0274   20158745.8824
   -411322.113 8   -304896.46345  24928103.395    24928101.4054   24928122.7534
    511866.950 9    391426.53148  21502331.834    21502331.8054   21502339.7064
    511336.591 9    386095.25247  22533086.523    22533086.1194   22533099.2154
    339076.758 9    258651.02245  24232172.989    24232172.0664   24232184.2634
   -462609.423 9   -352598.25848  20714609.002    20714608.3854   20714617.5204
   -383714.624 9   -279664.49646  23223690.054    23223689.7244   23223702.7764
 80  9  1 19 13  2.0000000  0  7 24  6  4  9  7  5 30               -0.000000011
   -156796.052 9   -119596.68749  20158749.553    20158749.2784   20158758.1394
   -413729.549 8   -306772.38345  24927645.238    24927643.0824   24927664.6964
    514428.899 9    393422.85748  21502819.343    21502819.3184   21502827.2084
    513914.570 9    388104.06147  22533577.095    22533576.6894   22533589.7834
    341332.923 9    260409.06945  24232602.294    24232601.3784   24232613.5714
   -464213.443 9   -353848.14048  20714303.777    20714303.1664   20714312.3024
   -386928.269 9   -282168.62746  23223078.520    23223078.2074   23223091.2354
 80  9  1 19 13  3.0000000  0  7 24  6  4  9  7  5 30               -0.000000012
   -156730.919 9   -119545.93249  20158761.959    20158761.6804   20158770.5324
   -416136.724 8   -308648.09745  24927187.144    24927185.2094   24927206.6964
    516991.361 9    395419.58348  21503306.991    21503306.9604   21503314.8554
    516493.057 9    390113.26447  22534067.778    22534067.3694   22534080.4604
    343589.329 9    262167.30245  24233031.698    24233030.8014   24233042.9664
   -465816.853 9   -355097.55148  20713998.644    20713998.0384   20714007.1694
   -390141.559 9   -284672.48146  23222467.054    23222466.7514   23222479.7704
 80  9  1 19 13  4.0000000  0  7 24  6  4  9  7  5 30               -0.000000104
   -156809.644 9   -119607.27549  20158746.957    20158746.6804   20158755.5234
   -418688.272 8   -310636.30945  24926701.562    24926699.7254   24926721.2404
    519409.702 9    397304.00448  21503767.191    21503767.1614   21503775.0434
    518927.412 9    392010.16347  22534531.050    22534530.6394   22534543.7224
    345701.368 9    263813.03645  24233433.605    24233432.7134   24233444.8634
   -467564.305 9   -356459.19948  20713666.126    20713665.5184   20713674.6544
   -393499.100 9   -287288.73746  23221828.127    23221827.8334   23221840.8394
 80  9  1 19 13  5.0000000  0  7 24  6  4  9  7  5 30               -0.000000502
   -157368.123 9   -120042.45349  20158640.707    20158640.4334   20158649.2824
   -421720.102 8   -312998.76945  24926124.622    24926122.9544   24926144.3784
    521348.070 9    398814.42248  21504136.046    21504136.0164   21504143.8904
    520881.765 9    393533.02947  22534902.966    22534902.5514   22534915.6334
    347333.167 9    265084.56645  24233744.124    24233743.2484   24233755.3784
   -469791.649 9   -358194.79148  20713242.266    20713241.6714   20713250.8044
   -397336.776 9   -290279.12946  23221097.849    23221097.5794   23221110.5534
 80  9  1 19 13  6.0000000  0  7 24  6  4  9  7  5 30               -0.000000899
   -157926.072 9   -120477.21849  20158534.538    20158534.2574   20158543.1044
   -424751.895 8   -315361.20245  24925547.645    24925546.1234   24925567.4404
    523286.740 9    400325.07748  21504504.962    21504504.9314   21504512.8014
    522836.412 9    395056.12747  22535274.915    22535274.4944   22535287.5804
    348964.973 9    266356.09845  24234054.651    24234053.7834   24234065.9084
   -472018.606 9   -359930.08148  20712818.489    20712817.8944   20712827.0324
   -401174.295 9   -293269.39646  23220367.574    23220367.2954   23220380.2834
 80  9  1 19 13  7.0000000  0  7 24  6  4  9  7  5 30               -0.000001297
   -158483.856 9   -120911.85249  20158428.392    20158428.1114   20158436.9604
   -427784.034 8   -317723.90445  24924970.616    24924968.9034   24924990.4724
    525225.339 9    401835.67148  21504873.866    21504873.8354   21504881.7034
    524790.957 9    396579.13947  22535646.873    22535646.4564   22535659.5364
    350596.457 9    267627.38145  24234365.114    24234364.2584   24234376.3654
   -474245.568 9   -361665.37448  20712394.714    20712394.1184   20712403.2654
   -405012.034 9   -296259.83146  23219637.253    23219636.9704   23219649.9724
 80  9  1 19 13  8.0000000  0  7 24  6  4  9  7  5 30               -0.000001695
   -159041.628 9   -121346.47949  20158322.240    20158321.9544   20158330.8034
   -430816.676 8   -320086.99745  24924393.508    24924391.6234   24924413.4294
    527163.709 9    403346.09048  21505242.727    21505242.7004   21505250.5584
    526745.270 9    398101.97547  22536018.784    22536018.3594   22536031.4404
    352227.433 9    268898.26845  24234675.479    24234674.6344   24234686.7304
   -476472.661 9   -363400.76948  20711970.917    20711970.3114   20711979.4724
   -408850.156 9   -299250.57246  23218906.886    23218906.5964   23218919.6064
 80  9  1 19 13  9.0000000  0  7 24  6  4  9  7  5 30               -0.000002093
   -159597.791 9   -121779.85249  20158216.435    20158216.1474   20158224.9984
   -433848.208 8   -322449.22345  24923816.586    24923814.9724   24923836.5594
    529103.455 9    404857.58148  21505611.842    21505611.8144   21505619.6854
    528700.949 9    399625.87247  22536390.922    22536390.4914   22536403.5744
    353859.507 9    270170.01245  24234986.047    24234985.2094   24234997.2934
   -478698.284 9   -365135.02148  20711547.369    20711546.7744   20711555.9174
   -412687.038 9   -302240.34646  23218176.712    23218176.4314   23218189.4404
 80  9  1 19 13 10.0000000  0  7 24  6  4  9  7  5 30               -0.000002490
   -160153.941 9   -122213.21649  20158110.601    20158110.3114   20158119.1624
   -436880.244 8   -324811.84645  24923239.588    24923237.6924   24923259.6234
    531042.995 9    406368.91248  21505980.924    21505980.8994   21505988.7544
    530656.400 9    401149.59347  22536763.039    22536762.6134   22536775.6934
    355491.108 9    271441.38345  24235296.511    24235295.6734   24235307.7494
   -480924.037 9   -366869.37348  20711123.845    20711123.2584   20711132.4014
   -416524.276 9   -305230.39646  23217446.496    23217446.2174   23217459.2394
 80  9  1 19 13 11.0000000  0  7 24  6  4  9  7  5 30               -0.000002888
   -160709.880 9   -122646.41349  20158004.795    20158004.5044   20158013.3464
   -439912.568 8   -327174.69045  24922662.511    24922660.6214   24922682.5724
    532982.529 9    407880.23848  21506350.023    21506350.0034   21506357.8554
    532611.794 9    402673.27447  22537135.165    22537134.7364   22537147.8194
    357122.406 9    272712.51945  24235606.933    24235606.0994   24235618.1614
   -483149.732 9   -368603.67848  20710700.304    20710699.7114   20710708.8654
   -420361.701 9   -308220.59046  23216716.234    23216715.9634   23216728.9854
 80  9  1 19 13 12.0000000  0  7 24  6  4  9  7  5 30               -0.000003287
   -161265.620 9   -123079.45849  20157899.054    20157898.7674   20157907.6084
   -442945.205 8   -329537.78045  24922085.393    24922084.0004   24922105.4724
    534922.003 9    409391.51448  21506719.095    21506719.0784   21506726.9134
    534567.110 9    404196.89347  22537507.247    22537506.8084   22537519.8934
    358753.360 9    273983.38645  24235917.293    24235916.4644   24235928.5244
   -485375.391 9   -370337.95748  20710276.754    20710276.1644   20710285.3064
   -424199.343 9   -311210.95446  23215985.952    23215985.6884   23215998.7074
 80  9  1 19 13 13.0000000  0  7 24  6  4  9  7  5 30               -0.000003685
   -161821.277 9   -123512.43749  20157793.311    20157793.0204   20157801.8624
   -445978.232 8   -331901.17345  24921508.215    24921506.9604   24921528.3264
    536861.325 9    410902.67348  21507088.145    21507088.1234   21507095.9654
    536522.271 9    405720.38447  22537879.321    22537878.8814   22537891.9764
    360383.899 9    275253.93345  24236227.572    24236226.7394   24236238.7974
   -487601.090 9   -372072.26848  20709853.230    20709852.6474   20709861.7914
   -428037.269 9   -314201.54046  23215255.577    23215255.3244   23215268.3444
 80  9  1 19 13 14.0000000  0  7 24  6  4  9  7  5 30               -0.000000109
   -156114.128 9   -119065.30249  20158879.363    20158879.0684   20158887.9104
   -442748.969 8   -329384.86145  24922122.670    24922121.5044   24922142.8044
    545063.213 9    417293.75648  21508648.897    21508648.8824   21508656.7134
    544739.942 9    412123.75347  22539443.090    22539442.6394   22539455.7304
    368276.689 9    281404.15645  24237729.519    24237728.6804   24237740.7534
   -483564.137 9   -368926.58448  20710621.426    20710620.8454   20710629.9824
   -425612.791 9   -312312.32846  23215716.935    23215716.6844   23215729.7264
 80  9  1 19 13 15.0000000  0  7 24  6  4  9  7  5 30               -0.000000108
   -156039.231 9   -119006.93949  20158893.620    20158893.3194   20158902.1674
   -445152.483 8   -331257.72645  24921665.290    24921664.1114   24921685.4534
    547632.636 9    419295.90048  21509137.839    21509137.8244   21509145.6534
    547325.100 9    414138.15047  22539935.044    22539934.5984   22539947.6844
    370536.732 9    283165.22145  24238159.598    24238158.7724   24238170.8374
   -485159.585 9   -370169.79048  20710317.820    20710317.2364   20710326.3734
   -428820.985 9   -314812.21646  23215106.399    23215106.1664   23215119.2134
 80  9  1 19 13 16.0000000  0  7 24  6  4  9  7  5 30               -0.000000107
   -155963.736 9   -118948.11249  20158907.975    20158907.6694   20158916.5094
   -447555.903 8   -333130.51545  24921207.889    24921207.1074   24921228.0894
    550202.400 9    421298.31848  21509626.870    21509626.8554   21509634.6914
    549910.583 9    416152.80847  22540427.041    22540426.5874   22540439.6874
    372796.829 9    284926.33045  24238589.667    24238588.8444   24238600.9164
   -486754.591 9   -371412.65448  20710014.310    20710013.7264   20710022.8614
   -432028.975 9   -317311.94446  23214495.928    23214495.7094   23214508.7684
 80  9  1 19 13 17.0000000  0  7 24  6  4  9  7  5 30               -0.000000106
   -155887.715 9   -118888.87649  20158922.437    20158922.1294   20158930.9704
   -449959.329 8   -335003.30945  24920750.498    24920749.7444   24920770.7334
    552772.458 9    423300.95948  21510115.921    21510115.9074   21510123.7464
    552496.328 9    418167.67047  22540919.107    22540918.6574   22540931.7494
    375056.934 9    286687.44745  24239019.752    24239018.9364   24239031.0074
   -488349.203 9   -372655.21048  20709710.876    20709710.2964   20709719.4314
   -435236.831 9   -319811.56946  23213885.462    23213885.2914   23213898.3274
 80  9  1 19 13 18.0000000  0  7 24  6  4  9  7  5 30               -0.000000105
   -155810.861 9   -118828.98949  20158937.060    20158936.7684   20158945.5924
   -452362.408 8   -336875.83445  24920293.194    24920292.3214   24920313.4494
    555343.128 9    425304.07948  21510605.103    21510605.0884   21510612.9314
    555082.625 9    420182.96447  22541411.270    22541410.8064   22541423.9084
    377317.331 9    288448.79245  24239449.889    24239449.0884   24239461.1634
   -489943.129 9   -373897.22748  20709407.555    20709406.9764   20709416.1004
   -438444.267 9   -322310.86246  23213275.081    23213274.9444   23213287.9684
 80  9  1 19 13 19.0000000  0  7 24  6  4  9  7  5 30               -0.000000104
   -155733.910 9   -118769.02449  20158951.721    20158951.4284   20158960.2574
   -454765.926 8   -338748.69845  24919835.791    24919834.7774   24919856.0624
    557913.630 9    427307.07348  21511094.255    21511094.2394   21511102.0794
    557668.713 9    422198.08547  22541903.376    22541902.9154   22541916.0194
    379577.282 9    290209.78645  24239879.945    24239879.1504   24239891.2244
   -491537.115 9   -375139.29148  20709104.222    20709103.6464   20709112.7724
   -441652.000 9   -324810.38446  23212664.636    23212664.5374   23212677.5524
 80  9  1 19 13 20.0000000  0  7 24  6  4  9  7  5 30               -0.000000103
   -155655.823 9   -118708.17749  20158966.585    20158966.2884   20158975.1124
   -457168.842 8   -340621.09645  24919378.493    24919377.5944   24919398.7944
    560485.032 9    429310.75948  21511583.584    21511583.5704   21511591.4064
    560255.659 9    424213.87947  22542395.662    22542395.2054   22542408.3044
    381837.835 9    291971.25145  24240310.104    24240309.3224   24240321.3904
   -493130.107 9   -376380.58548  20708801.108    20708800.5364   20708809.6504
   -444859.003 9   -327309.34146  23212054.330    23212054.2494   23212067.2654
 80  9  1 19 13 21.0000000  0  7 24  6  4  9  7  5 30               -0.000000102
   -155577.414 9   -118647.07949  20158981.504    20158981.1984   20158990.0434
   -459571.950 8   -342493.64545  24918921.169    24918920.6504   24918941.4944
    563056.525 9    431314.51748  21512072.905    21512072.9024   21512080.7304
    562842.637 9    426229.70347  22542887.953    22542887.4934   22542900.5964
    384098.158 9    293732.53645  24240740.225    24240739.4554   24240751.5214
   -494722.910 9   -377621.73048  20708498.005    20708497.4254   20708506.5444
   -448066.094 9   -329808.36746  23211444.013    23211443.9614   23211456.9794
 80  9  1 19 13 22.0000000  0  7 24  6  4  9  7  5 30               -0.000000101
   -155498.593 9   -118585.65749  20158996.496    20158996.1874   20159005.0374
   -461975.178 8   -344366.28645  24918463.830    24918463.2274   24918484.1714
    565628.183 9    433318.41048  21512562.294    21512562.2834   21512570.1234
    565429.731 9    428245.61847  22543380.252    22543379.7934   22543392.8934
    386358.340 9    295493.71445  24241170.328    24241169.5674   24241181.6214
   -496315.443 9   -378862.66248  20708194.952    20708194.3754   20708203.4824
   -451273.166 9   -332307.37746  23210833.713    23210833.6844   23210846.7034
 80  9  1 19 13 23.0000000  0  7 24  6  4  9  7  5 30               -0.000000100
   -155419.110 9   -118523.72149  20159011.610    20159011.3174   20159020.1494
   -464378.242 9   -346238.79945  24918006.505    24918005.8634   24918026.8754
    568200.257 9    435322.62448  21513051.739    21513051.7244   21513059.5624
    568017.223 9    430261.83847  22543872.641    22543872.1924   22543885.2874
    388618.672 9    297255.00845  24241600.463    24241599.7094   24241611.7664
   -497907.438 9   -380103.17748  20707892.012    20707891.4354   20707900.5404
   -454479.979 9   -334806.18846  23210223.467    23210223.4574   23210236.4774
 80  9  1 19 13 24.0000000  0  7 24  6  4  9  7  5 30               -0.000000099
   -155339.323 9   -118461.54949  20159026.806    20159026.5064   20159035.3484
   -466781.555 8   -348111.50745  24917549.149    24917548.7004   24917569.5414
    570772.399 9    437326.88948  21513541.205    21513541.1954   21513549.0244
    570604.735 9    432278.06947  22544365.024    22544364.5614   22544377.6664
    390878.772 9    299016.11845  24242030.537    24242029.7914   24242041.8304
   -499499.273 9   -381343.56548  20707589.112    20707588.5354   20707597.6494
   -457686.907 9   -337305.08846  23209613.158    23209613.1694   23209626.1954
 80  9  1 19 13 25.0000000  0  7 24  6  4  9  7  5 30               -0.000000098
   -155258.640 9   -118398.67949  20159042.150    20159041.8564   20159050.6974
   -469184.471 8   -349983.90545  24917091.852    24917091.5064   24917112.2794
    573345.228 9    439331.68448  21514030.793    21514030.7864   21514038.6214
    573192.839 9    434294.76547  22544857.531    22544857.0804   22544870.1874
    393139.216 9    300777.49545  24242460.686    24242459.9534   24242471.9774
   -501090.347 9   -382583.36648  20707286.329    20707285.7544   20707294.8474
   -460893.345 9   -339803.60946  23209002.999    23209003.0414   23209016.0664
 80  9  1 19 13 26.0000000  0  7 24  6  4  9  7  5 30               -0.000000097
   -155177.117 9   -118335.15449  20159057.654    20159057.3454   20159066.1984
   -471587.079 8   -351856.06345  24916634.643    24916634.3534   24916655.1034
    575918.633 9    441336.93448  21514520.483    21514520.4874   21514528.3154
    575781.515 9    436311.90547  22545350.141    22545349.6794   22545362.8014
    395399.956 9    302539.10845  24242890.902    24242890.1854   24242902.1794
   -502680.726 9   -383822.62248  20706983.688    20706983.1144   20706992.1964
   -464099.361 9   -342301.79746  23208392.889    23208392.9444   23208405.9784
 80  9  1 19 13 27.0000000  0  7 24  6  4  9  7  5 30               -0.000000096
   -155095.442 9   -118271.50949  20159073.205    20159072.9044   20159081.7574
   -473990.041 8   -353728.49845  24916177.348    24916177.1294   24916197.8414
    578491.939 9    443342.11248  21515010.181    21515010.1884   21515018.0124
    578370.038 9    438328.93447  22545842.726    22545842.2684   22545855.3904
    397660.305 9    304300.41545  24243321.034    24243320.3284   24243332.3104
   -504271.101 9   -385061.87348  20706681.049    20706680.4734   20706689.5564
   -467305.649 9   -344800.19746  23207782.715    23207782.7764   23207795.8144
 80  9  1 19 13 28.0000000  0  7 24  6  4  9  7  5 30               -0.000000095
   -155013.087 9   -118207.33549  20159088.867    20159088.5634   20159097.4134
   -476392.866 8   -355600.82445  24915720.068    24915719.8864   24915740.5704
    581065.691 9    445347.62948  21515499.950    21515499.9594   21515507.7884
    580958.936 9    440346.25247  22546335.362    22546334.9074   22546348.0334
    399920.772 9    306061.81145  24243751.172    24243750.4704   24243762.4464
   -505860.921 9   -386300.69348  20706378.540    20706377.9634   20706387.0394
   -470511.665 9   -347298.38546  23207172.626    23207172.7184   23207185.7504
 80  9  1 19 13 29.0000000  0  7 24  6  4  9  7  5 30               -0.000000094
   -154930.183 9   -118142.73349  20159104.658    20159104.3534   20159113.2074
   -478795.684 8   -357473.14645  24915262.819    24915262.6334   24915283.3454
    583639.740 9    447353.38148  21515989.765    21515989.7704   21515997.6034
    583548.107 9    442363.77447  22546828.072    22546827.6164   22546840.7424
    402181.242 9    307823.20945  24244181.349    24244180.6524   24244192.6184
   -507450.334 9   -387539.19448  20706076.078    20706075.5024   20706084.5624
   -473717.540 9   -349796.46046  23206562.537    23206562.6614   23206575.6734
 80  9  1 19 13 30.0000000  0  7 24  6  4  9  7  5 30               -0.000000094
   -154846.769 9   -118077.73549  20159120.538    20159120.2314   20159129.0904
   -481198.508 8   -359345.47045  24914805.534    24914805.3294   24914826.0894
    586214.096 9    449359.36948  21516479.628    21516479.6414   21516487.4664
    586137.529 9    444381.49847  22547320.840    22547320.3944   22547333.5194
    404441.705 9    309584.60445  24244611.508    24244610.8254   24244622.7774
   -509039.344 9   -388777.38448  20705773.704    20705773.1214   20705782.1874
   -476923.307 9   -352294.45446  23205952.496    23205952.6434   23205965.6424
 80  9  1 19 13 31.0000000  0  7 24  6  4  9  7  5 30               -0.000000093
   -154762.652 9   -118012.18949  20159136.546    20159136.2404   20159145.1034
   -483601.118 8   -361217.62845  24914348.320    24914348.0764   24914368.8944
    588788.912 9    451365.71948  21516969.614    21516969.6224   21516977.4584
    588727.328 9    446399.51647  22547813.663    22547813.2234   22547826.3494
    406702.298 9    311346.10045  24245041.660    24245040.9774   24245052.9254
   -510627.788 9   -390015.13148  20705471.436    20705470.8514   20705479.9094
   -480128.800 9   -354792.23646  23205342.504    23205342.6754   23205355.6654
 80  9  1 19 13 32.0000000  0  7 24  6  4  9  7  5 30               -0.000000092
   -154678.047 9   -117946.26149  20159152.625    20159152.3194   20159161.1924
   -486003.801 8   -363089.84445  24913891.096    24913890.8224   24913911.7034
    591363.995 9    453372.27748  21517459.643    21517459.6534   21517467.4864
    591317.333 9    448417.69547  22548306.505    22548306.0624   22548319.2044
    408962.827 9    313107.54645  24245471.844    24245471.1594   24245483.1124
   -512215.877 9   -391252.60248  20705169.254    20705168.6704   20705177.7174
   -483334.216 9   -357289.95546  23204732.504    23204732.6984   23204745.6844
 80  9  1 19 13 33.0000000  0  7 24  6  4  9  7  5 30               -0.000000091
   -154592.748 9   -117879.79549  20159168.848    20159168.5484   20159177.4194
   -488406.286 9   -364961.90445  24913433.890    24913433.6094   24913454.5104
    593939.544 9    455379.19748  21517949.737    21517949.7434   21517957.5924
    593907.740 9    450436.18747  22548799.441    22548798.9914   22548812.1514
    411223.490 9    314869.09545  24245902.022    24245901.3314   24245913.2974
   -513803.407 9   -392489.64048  20704867.165    20704866.5794   20704875.6244
   -486539.367 9   -359787.47646  23204122.583    23204122.7904   23204135.7784
 80  9  1 19 13 34.0000000  0  7 24  6  4  9  7  5 30               -0.000000091
   -154507.000 9   -117812.97549  20159185.172    20159184.8674   20159193.7404
   -490808.889 8   -366834.05745  24912976.659    24912976.3864   24912997.3004
    596515.289 9    457386.27448  21518439.874    21518439.8844   21518447.7334
    596498.294 9    452454.79847  22549292.423    22549291.9804   22549305.1364
    413484.042 9    316630.56245  24246332.199    24246331.5134   24246343.4804
   -515390.617 9   -393726.42648  20704565.141    20704564.5484   20704573.5864
   -489744.476 9   -362284.95546  23203512.663    23203512.8724   23203525.8624
 80  9  1 19 13 35.0000000  0  7 24  6  4  9  7  5 30               -0.000000090
   -154420.742 9   -117745.75949  20159201.597    20159201.2954   20159210.1694
   -493211.466 8   -368706.18945  24912519.475    24912519.1824   24912540.1184
    599091.314 9    459393.56548  21518930.096    21518930.1154   21518937.9564
    599089.081 9    454473.58647  22549785.425    22549784.9884   22549798.1444
    415744.563 9    318392.00245  24246762.378    24246761.6964   24246773.6624
   -516977.431 9   -394962.90348  20704263.160    20704262.5674   20704271.6014
   -492949.482 9   -364782.35546  23202902.749    23202902.9654   23202915.9614
 80  9  1 19 13 36.0000000  0  7 24  6  4  9  7  5 30               -0.000000089
   -154333.818 9   -117678.02749  20159218.140    20159217.8344   20159226.7174
   -495613.908 8   -370578.21745  24912062.294    24912061.9894   24912082.9484
    601667.802 9    461401.21748  21519420.362    21519420.3754   21519428.2294
    601680.264 9    456492.67847  22550278.524    22550278.0874   22550291.2514
    418005.216 9    320153.54545  24247192.559    24247191.8784   24247203.8444
   -518563.704 9   -396198.96048  20703961.321    20703960.7264   20703969.7504
   -496154.236 9   -367279.55346  23202292.911    23202293.1374   23202306.1274
 80  9  1 19 13 37.0000000  0  7 24  6  4  9  7  5 30               -0.000000089
   -154246.389 9   -117609.90149  20159234.760    20159234.4624   20159243.3354
   -498016.388 8   -372450.27245  24911605.082    24911604.7554   24911625.7404
    604244.549 9    463409.06948  21519910.714    21519910.7364   21519918.5894
    604271.654 9    458511.93747  22550771.640    22550771.2064   22550784.3794
    420265.789 9    321915.02845  24247622.735    24247622.0604   24247634.0024
   -520149.590 9   -397434.71648  20703659.531    20703658.9354   20703667.9524
   -499358.889 9   -369776.68046  23201683.061    23201683.2994   23201696.2784
 80  9  1 19 13 38.0000000  0  7 24  6  4  9  7  5 30               -0.000000088
   -154158.369 9   -117541.31149  20159251.515    20159251.2214   20159260.0944
   -500418.798 8   -374322.27745  24911147.921    24911147.6014   24911168.5794
    606821.657 9    465417.20448  21520401.107    21520401.1174   21520408.9914
    606863.372 9    460531.44847  22551264.844    22551264.4054   22551277.5954
    422526.411 9    323676.54145  24248052.925    24248052.2424   24248064.1994
   -521735.006 9   -398670.10448  20703357.834    20703357.2344   20703366.2404
   -502563.371 9   -372273.67546  23201073.271    23201073.5214   23201086.5004
 80  9  1 19 13 39.0000000  0  7 24  6  4  9  7  5 30               -0.000000087
   -154069.789 9   -117472.28749  20159268.371    20159268.0794   20159276.9584
   -502821.152 8   -376194.23345  24910690.757    24910690.4484   24910711.4024
    609399.108 9    467425.60748  21520891.595    21520891.6074   21520899.4894
    609455.368 9    462551.18347  22551758.078    22551757.6334   22551770.8324
    424787.042 9    325438.06345  24248483.144    24248482.4644   24248494.4084
   -523319.988 9   -399905.15548  20703056.251    20703055.6534   20703064.6504
   -505767.697 9   -374770.54846  23200463.510    23200463.7734   23200476.7354
 80  9  1 19 13 40.0000000  0  7 24  6  4  9  7  5 30               -0.000000087
   -153980.598 9   -117402.78949  20159285.336    20159285.0474   20159293.9214
   -505223.412 8   -378066.11945  24910233.607    24910233.3044   24910254.2414
    611976.950 9    469434.31548  21521382.122    21521382.1474   21521390.0214
    612047.707 9    464571.17947  22552251.386    22552250.9514   22552264.1454
    427047.709 9    327199.61645  24248913.336    24248912.6564   24248924.5804
   -524904.468 9   -401139.81348  20702754.720    20702754.1214   20702763.1164
   -508971.807 9   -377267.25246  23199853.780    23199854.0554   23199867.0094
 80  9  1 19 13 41.0000000  0  7 24  6  4  9  7  5 30               -0.000000086
   -153890.840 9   -117332.84649  20159302.429    20159302.1454   20159311.0144
   -507625.653 8   -379937.99245  24909776.480    24909776.1814   24909797.1074
    614555.108 9    471443.27048  21521872.745    21521872.7584   21521880.6514
    614640.335 9    466591.40047  22552744.740    22552744.3004   22552757.5014
    429308.434 9    328961.21445  24249343.539    24249342.8684   24249354.7794
   -526488.514 9   -402374.13648  20702453.289    20702452.6904   20702461.6744
   -512175.779 9   -379763.84746  23199244.068    23199244.3474   23199257.3004
 80  9  1 19 13 42.0000000  0  7 24  6  4  9  7  5 30               -0.000000085
   -153800.552 9   -117262.49049  20159319.596    20159319.2944   20159328.1854
   -510027.925 8   -381809.88545  24909319.347    24909319.0374   24909339.9584
    617133.552 9    473452.44348  21522363.405    21522363.4384   21522371.3184
    617233.214 9    468611.81747  22553238.152    22553237.7184   22553250.9224
    431569.104 9    330722.76845  24249773.736    24249773.0714   24249784.9724
   -528072.167 9   -403608.15048  20702151.926    20702151.3294   20702160.3074
   -515379.628 9   -382260.34646  23198634.410    23198634.6894   23198647.6414
 80  9  1 19 13 43.0000000  0  7 24  6  4  9  7  5 30               -0.000000085
   -153709.542 9   -117191.57449  20159336.915    20159336.6324   20159345.5114
   -512430.012 9   -383681.63745  24908862.249    24908861.9344   24908882.8554
    619712.473 9    475461.99148  21522854.155    21522854.1884   21522862.0724
    619826.532 9    470632.58147  22553731.673    22553731.2364   22553744.4454
    433829.911 9    332484.42745  24250203.976    24250203.3034   24250215.2134
   -529655.225 9   -404841.70348  20701850.703    20701850.0974   20701859.0664
   -518583.166 9   -384756.59646  23198024.794    23198025.0814   23198038.0404
 80  9  1 19 13 44.0000000  0  7 24  6  4  9  7  5 30               -0.000000084
   -153618.142 9   -117120.35249  20159354.312    20159354.0204   20159362.9084
   -514832.211 8   -385553.47445  24908405.100    24908404.7604   24908425.7034
    622291.552 9    477471.66148  21523344.926    21523344.9684   21523352.8484
    622419.970 9    472653.43347  22554225.179    22554224.7454   22554237.9594
    436090.588 9    334245.99045  24250634.167    24250633.4864   24250645.4124
   -531238.011 9   -406075.04048  20701549.502    20701548.8964   20701557.8594
   -521786.703 9   -387252.85246  23197415.169    23197415.4734   23197428.4144
 80  9  1 19 13 45.0000000  0  7 24  6  4  9  7  5 30               -0.000000084
   -153526.165 9   -117048.67849  20159371.809    20159371.5084   20159380.4084
   -517234.370 8   -387425.27945  24907947.988    24907947.6374   24907968.5764
    624870.956 9    479481.59048  21523835.784    21523835.8184   21523843.7114
    625013.721 9    474674.53447  22554718.742    22554718.3134   22554731.5294
    438351.277 9    336007.56145  24251064.364    24251063.6684   24251075.5954
   -532820.339 9   -407308.02048  20701248.388    20701247.7744   20701256.7394
   -524990.068 9   -389748.97146  23196805.579    23196805.8854   23196818.8144
 80  9  1 19 13 46.0000000  0  7 24  6  4  9  7  5 30               -0.000000083
   -153433.652 9   -116976.59049  20159389.434    20159389.1354   20159398.0344
   -519636.501 8   -389297.06345  24907490.892    24907490.5234   24907511.4614
    627450.652 9    481491.74248  21524326.681    21524326.7184   21524334.6174
    627607.686 9    476695.80047  22555212.375    22555211.9524   22555225.1734
    440611.903 9    337769.08545  24251494.552    24251493.8504   24251505.7774
   -534402.274 9   -408540.69748  20700947.355    20700946.7534   20700955.6944
   -528193.316 9   -392245.00746  23196196.010    23196196.3074   23196209.2454
 80  9  1 19 13 47.0000000  0  7 24  6  4  9  7  5 30               -0.000000083
   -153340.367 9   -116903.90149  20159407.167    20159406.8734   20159415.7724
   -522038.414 8   -391168.67745  24907033.804    24907033.4204   24907054.3744
    630030.912 9    483502.33548  21524817.691    21524817.7294   21524825.6384
    630202.196 9    478717.48847  22555706.095    22555705.6704   22555718.9034
    442872.786 9    339530.81145  24251924.804    24251924.1024   24251936.0274
   -535983.532 9   -409772.84648  20700646.468    20700645.8614   20700654.8054
   -531396.158 9   -394740.72246  23195586.530    23195586.8394   23195599.7594
 80  9  1 19 13 48.0000000  0  7 24  6  4  9  7  5 30               -0.000000082
   -153246.611 9   -116830.84449  20159425.009    20159424.7214   20159433.6104
   -524440.379 8   -393040.33445  24906576.749    24906576.3364   24906597.3114
    632611.372 9    485513.07948  21525308.736    21525308.7794   21525316.6894
    632796.883 9    480739.31647  22556199.849    22556199.4284   22556212.6694
    445133.585 9    341292.46545  24252355.042    24252354.3344   24252366.2554
   -537564.467 9   -411004.74448  20700345.629    20700345.0194   20700353.9544
   -534598.961 9   -397236.40146  23194977.055    23194977.3514   23194990.2934
 80  9  1 19 13 49.0000000  0  7 24  6  4  9  7  5 30               -0.000000082
   -153152.258 9   -116757.32149  20159442.963    20159442.6684   20159451.5694
   -526842.280 8   -394911.93845  24906119.677    24906119.2334   24906140.2364
    635192.177 9    487524.09448  21525799.835    21525799.8794   21525807.7894
    635391.883 9    482761.38747  22556693.651    22556693.2264   22556706.4794
    447394.362 9    343054.10045  24252785.259    24252784.5364   24252796.4534
   -539144.938 9   -412236.28048  20700044.874    20700044.2584   20700053.1944
   -537801.564 9   -399731.92946  23194367.639    23194367.9334   23194380.8854
 80  9  1 19 13 50.0000000  0  7 24  6  4  9  7  5 30               -0.000000081
   -153057.304 9   -116683.33149  20159461.038    20159460.7464   20159469.6504
   -529244.113 8   -396783.49245  24905662.614    24905662.1494   24905683.1654
    637773.341 9    489535.38948  21526291.010    21526291.0594   21526298.9694
    637987.210 9    484783.71047  22557187.528    22557187.1144   22557200.3544
    449655.196 9    344815.78245  24253215.481    24253214.7584   24253226.6714
   -540724.936 9   -413467.44448  20699744.219    20699743.6154   20699752.5334
   -541003.961 9   -402227.29446  23193758.245    23193758.5454   23193771.5014
 80  9  1 19 13 51.0000000  0  7 24  6  4  9  7  5 30               -0.000000081
   -152961.740 9   -116608.86349  20159479.223    20159478.9234   20159487.8354
   -531645.878 9   -398654.99145  24905205.579    24905205.0964   24905226.1214
    640354.848 9    491546.95448  21526782.258    21526782.3094   21526790.2234
    640582.868 9    486806.29747  22557681.478    22557681.0724   22557694.3044
    451916.062 9    346577.48845  24253645.722    24253644.9904   24253656.8964
   -542304.459 9   -414698.24048  20699443.632    20699443.0244   20699451.9444
   -544206.177 9   -404722.52346  23193148.879    23193149.1774   23193162.1384
 80  9  1 19 13 52.0000000  0  7 24  6  4  9  7  5 30               -0.000000080
   -152865.608 9   -116533.95549  20159497.506    20159497.2114   20159506.1174
   -534047.586 8   -400526.44545  24904748.561    24904748.0524   24904769.1014
    642936.671 9    493558.76448  21527273.563    21527273.6094   21527281.5364
    643178.808 9    488829.10047  22558175.467    22558175.0504   22558188.2914
    454176.919 9    348339.19145  24254075.966    24254075.2424   24254087.1314
   -543883.558 9   -415928.70448  20699143.147    20699142.5424   20699151.4454
   -547408.208 9   -407217.60646  23192539.565    23192539.8594   23192552.8284
 80  9  1 19 13 53.0000000  0  7 24  6  4  9  7  5 30               -0.000000080
   -152769.095 9   -116458.74749  20159515.866    20159515.5884   20159524.4844
   -536449.439 8   -402398.01445  24904291.497    24904290.9684   24904312.0414
    645518.640 9    495570.68648  21527764.891    21527764.9294   21527772.8754
    645774.872 9    490851.99847  22558669.507    22558669.0984   22558682.3394
    456437.622 9    350100.77345  24254506.201    24254505.4744   24254517.3644
   -545462.391 9   -417158.96248  20698842.692    20698842.0804   20698850.9914
   -550610.266 9   -409712.71346  23191930.238    23191930.5214   23191943.4964
 80  9  1 19 13 54.0000000  0  7 24  6  4  9  7  5 30               -0.000000080
   -152671.979 9   -116383.07349  20159534.343    20159534.0554   20159542.9664
   -538851.194 8   -404269.50445  24903834.462    24903833.9154   24903854.9964
    648100.973 9    497582.89248  21528256.292    21528256.3284   21528264.2884
    648371.284 9    492875.16247  22559163.581    22559163.1754   22559176.4104
    458698.387 9    351862.40145  24254936.414    24254935.6874   24254947.5574
   -547040.739 9   -418388.84648  20698542.356    20698541.7484   20698550.6494
   -553812.113 9   -412207.64946  23191320.949    23191321.2234   23191334.1984
 80  9  1 19 13 55.0000000  0  7 24  6  4  9  7  5 30               -0.000000079
   -152574.151 9   -116306.84049  20159552.982    20159552.6924   20159561.5924
   -541252.781 8   -406140.86745  24903377.453    24903376.8814   24903397.9784
    650683.789 9    499595.47848  21528747.772    21528747.8184   21528755.7744
    650968.123 9    494898.67047  22559657.753    22559657.3634   22559670.5864
    460959.249 9    353624.10945  24255366.659    24255365.9194   24255377.7924
   -548618.522 9   -419618.28448  20698242.125    20698241.5164   20698250.4114
   -557013.661 9   -414702.35446  23190711.715    23190711.9844   23190724.9574
 80  9  1 19 13 56.0000000  0  7 24  6  4  9  7  5 30               -0.000000079
   -152475.774 9   -116230.18349  20159571.700    20159571.4194   20159580.3224
   -543654.360 8   -408012.22445  24902920.451    24902919.8674   24902940.9654
    653266.899 9    501608.28748  21529239.348    21529239.3984   21529247.3534
    653565.249 9    496922.39547  22560151.974    22560151.5814   22560164.8124
    463220.134 9    355385.83345  24255796.894    24255796.1514   24255808.0214
   -550195.885 9   -420847.39748  20697941.942    20697941.3334   20697950.2264
   -560215.063 9   -417196.94746  23190102.494    23190102.7564   23190115.7284
 80  9  1 19 13 57.0000000  0  7 24  6  4  9  7  5 30               -0.000000078
   -152376.943 9   -116153.17249  20159590.482    20159590.1964   20159599.1114
   -546055.992 8   -409883.62345  24902463.447    24902462.8644   24902483.9564
    655850.243 9    503621.28248  21529730.936    21529730.9874   21529738.9514
    656162.563 9    498946.26947  22560646.240    22560645.8604   22560659.0754
    465480.899 9    357147.46045  24256227.122    24256226.3834   24256238.2394
   -551772.922 9   -422076.25748  20697641.837    20697641.2314   20697650.1104
   -563416.425 9   -419691.50946  23189493.313    23189493.5684   23189506.5404
 80  9  1 19 13 58.0000000  0  7 24  6  4  9  7  5 30               -0.000000078
   -152277.342 9   -116075.56049  20159609.443    20159609.1634   20159618.0714
   -548457.360 8   -411754.81345  24902006.481    24902005.8804   24902026.9874
    658434.102 9    505634.67848  21530222.624    21530222.6674   21530230.6544
    658760.381 9    500970.53647  22561140.587    22561140.1974   22561153.4304
    467741.889 9    358909.26745  24256657.391    24256656.6554   24256668.4944
   -553349.294 9   -423304.59948  20697341.861    20697341.2494   20697350.1334
   -566617.375 9   -422185.74846  23188884.198    23188884.4504   23188897.4104
 80  9  1 19 13 59.0000000  0  7 24  6  4  9  7  5 30               -0.000000078
   -152177.228 9   -115997.54749  20159628.483    20159628.2104   20159637.1094
   -550858.754 8   -413626.02345  24901549.520    24901548.9074   24901570.0294
    661018.236 9    507648.28748  21530714.374    21530714.4264   21530722.4154
    661358.451 9    502995.00647  22561634.984    22561634.6054   22561647.8284
    470002.836 9    360671.04045  24257087.638    24257086.8984   24257098.7384
   -554925.282 9   -424532.63948  20697041.972    20697041.3564   20697050.2344
   -569818.231 9   -424679.91746  23188275.069    23188275.3314   23188288.2774
 80  9  1 19 14  0.0000000  0  7 24  6  4  9  7  5 30               -0.000000077
   -152076.658 9   -115919.18049  20159647.613    20159647.3374   20159656.2464
   -553260.176 8   -415497.25545  24901092.551    24901091.9234   24901113.0504
    663602.608 9    509662.08448  21531206.159    21531206.2064   21531214.2084
    663956.721 9    505019.62547  22562129.426    22562129.0434   22562142.2714
    472263.708 9    362432.74945  24257517.885    24257517.1404   24257528.9854
   -556500.917 9   -425760.40548  20696742.133    20696741.5144   20696750.3994
   -573019.009 9   -427174.02746  23187666.010    23187666.2734   23187679.2094
 80  9  1 19 14  1.0000000  0  7 24  6  4  9  7  5 30               -0.000000077
   -151975.446 9   -115840.31249  20159666.891    20159666.6234   20159675.5284
   -555661.493 8   -417368.40745  24900635.600    24900634.9594   24900656.1124
    666187.390 9    511676.19548  21531698.006    21531698.0564   21531706.0644
    666555.370 9    507044.53647  22562623.939    22562623.5604   22562636.7824
    474524.654 9    364194.52145  24257948.146    24257947.3924   24257959.2514
   -558076.032 9   -426987.76948  20696442.394    20696441.7724   20696450.6514
   -576219.547 9   -429667.94646  23187056.962    23187057.2244   23187070.1464
 80  9  1 19 14  2.0000000  0  7 24  6  4  9  7  5 30               -0.000000077
   -151873.685 9   -115761.01749  20159686.236    20159685.9704   20159694.8794
   -558062.775 8   -419239.53145  24900178.653    24900178.0064   24900199.1674
    668772.474 9    513690.54748  21532189.931    21532189.9854   21532197.9954
    669154.296 9    509069.66547  22563118.513    22563118.1284   22563131.3644
    476785.602 9    365956.29645  24258378.396    24258377.6444   24258389.5124
   -559650.719 9   -428214.79848  20696142.736    20696142.1294   20696150.9904
   -579419.951 9   -432161.75846  23186447.939    23186448.1964   23186461.1224
 80  9  1 19 14  3.0000000  0  7 24  6  4  9  7  5 30               -0.000000076
   -151771.264 9   -115681.20849  20159705.711    20159705.4564   20159714.3504
   -560463.931 8   -421110.55745  24899721.717    24899721.0524   24899742.2234
    671357.973 9    515705.22048  21532681.939    21532681.9944   21532690.0134
    671753.610 9    511095.09947  22563613.148    22563612.7654   22563626.0024
    479046.654 9    367718.14845  24258808.683    24258807.9164   24258819.8034
   -561224.875 9   -429441.41248  20695843.211    20695842.6064   20695851.4704
   -582620.104 9   -434655.37646  23185838.981    23185839.2384   23185852.1634
 80  9  1 19 14  4.0000000  0  7 24  6  4  9  7  5 30               -0.000000076
   -151668.417 9   -115601.06749  20159725.284    20159725.0234   20159733.9434
   -562865.178 8   -422981.65545  24899264.774    24899264.0994   24899285.2914
    673943.613 9    517720.00348  21533173.979    21533174.0444   21533182.0624
    674353.075 9    513120.65147  22564107.830    22564107.4434   22564120.6784
    481307.536 9    369479.86545  24259238.914    24259238.1484   24259250.0314
   -562798.721 9   -430667.78348  20695543.690    20695543.0844   20695551.9474
   -585820.242 9   -437148.98546  23185230.016    23185230.2694   23185243.1954
 80  9  1 19 14  5.0000000  0  7 24  6  4  9  7  5 30               -0.000000076
   -151564.804 9   -115520.33049  20159745.013    20159744.7594   20159753.6614
   -565266.188 8   -424852.56845  24898807.864    24898807.1754   24898828.3884
    676529.797 9    519735.20748  21533666.126    21533666.1934   21533674.2164
    676953.038 9    515146.58947  22564602.577    22564602.1904   22564615.4224
    483568.664 9    371241.77845  24259669.217    24259668.4414   24259680.3334
   -564371.919 9   -431893.65248  20695244.324    20695243.7114   20695252.5814
   -589020.022 9   -439642.31846  23184621.092    23184621.3514   23184634.2714
 80  9  1 19 14  6.0000000  0  7 24  6  4  9  7  5 30               -0.000000076
   -151460.529 9   -115439.07749  20159764.825    20159764.5754   20159773.4834
   -567667.059 8   -426723.37345  24898351.003    24898350.3014   24898371.5254
    679116.417 9    521750.75348  21534158.326    21534158.3924   21534166.4314
    679553.390 9    517172.82347  22565097.408    22565097.0184   22565110.2534
    485829.911 8    373003.78345  24260099.535    24260098.7534   24260110.6544
   -565944.580 9   -433119.10548  20694945.066    20694944.4684   20694953.3244
   -592219.548 9   -442135.45046  23184012.240    23184012.4924   23184025.4264
 80  9  1 19 14  7.0000000  0  7 24  6  4  9  7  5 30               -0.000000075
   -151355.917 9   -115357.55749  20159784.737    20159784.4924   20159793.3934
   -570068.125 8   -428594.32945  24897894.074    24897893.3674   24897914.6064
    681703.115 9    523766.36548  21534650.546    21534650.6024   21534658.6604
    682153.797 9    519199.11547  22565592.280    22565591.8764   22565605.1254
    488090.933 9    374765.61245  24260529.802    24260529.0154   24260540.9264
   -567517.017 9   -434344.37348  20694645.838    20694645.2354   20694654.0984
   -595419.147 9   -444628.63846  23183403.372    23183403.6244   23183416.5704
 80  9  1 19 14  8.0000000  0  7 24  6  4  9  7  5 30               -0.000000075
   -151250.796 9   -115275.64249  20159804.732    20159804.4884   20159813.3924
   -572469.221 8   -430465.31145  24897437.164    24897436.4544   24897457.7094
    684290.093 9    525782.19148  21535142.844    21535142.9014   21535150.9614
    684754.447 9    521225.59047  22566087.165    22566086.7634   22566100.0064
    490351.943 8    376527.43345  24260960.070    24260959.2774   24260971.1864
   -569089.064 9   -435569.34548  20694346.677    20694346.0824   20694354.9304
   -598618.656 9   -447121.75346  23182794.529    23182794.7764   23182807.7174
 80  9  1 19 14  9.0000000  0  7 24  6  4  9  7  5 30               -0.000000075
   -151145.189 9   -115193.34949  20159824.829    20159824.5944   20159833.4944
   -574870.358 8   -432336.32445  24896980.240    24896979.5304   24897000.7934
    686877.301 9    527798.19648  21535635.179    21535635.2404   21535643.3024
    687355.302 9    523252.22147  22566582.100    22566581.6904   22566594.9374
    492612.894 8    378289.20945  24261390.313    24261389.5194   24261401.4284
   -570660.754 9   -436794.03748  20694047.610    20694047.0094   20694055.8674
   -601818.085 9   -449614.80946  23182185.693    23182185.9374   23182198.8814
 80  9  1 19 14 10.0000000  0  7 24  6  4  9  7  5 30               -0.000000075
   -151038.966 9   -115110.57949  20159845.052    20159844.8204   20159853.7184
   -577271.394 8   -434207.25445  24896523.345    24896522.6364   24896543.9094
    689464.865 9    529814.47848  21536127.568    21536127.6294   21536135.6994
    689956.478 9    525279.10247  22567077.101    22567076.6884   22567089.9454
    494873.886 8    380051.01745  24261820.579    24261819.7724   24261831.6954
   -572231.954 9   -438018.34748  20693748.598    20693748.0064   20693756.8614
   -605017.335 9   -452107.72446  23181576.889    23181577.1284   23181590.0804
 80  9  1 19 14 11.0000000  0  7 24  6  4  9  7  5 30               -0.000000075
   -150932.187 9   -115027.37449  20159865.343    20159865.1264   20159874.0074
   -579672.444 8   -436078.19845  24896066.431    24896065.7234   24896086.9954
    692052.728 9    531830.99548  21536620.025    21536620.0784   21536628.1684
    692557.922 9    527306.19147  22567572.134    22567571.7154   22567584.9814
    497134.893 8    381812.83545  24262250.847    24262250.0344   24262261.9694
   -573802.717 9   -439242.31848  20693449.704    20693449.1034   20693457.9614
   -608216.446 9   -454600.52646  23180968.118    23180968.3694   23180981.3084
 80  9  1 19 14 12.0000000  0  7 24  6  4  9  7  5 30               -0.000000075
   -150824.780 9   -114943.68149  20159885.777    20159885.5524   20159894.4434
   -582073.377 8   -437949.05045  24895609.544    24895608.8394   24895630.1194
    694640.973 9    533847.80848  21537112.536    21537112.6074   21537120.6944
    695159.731 9    529333.57147  22568067.240    22568066.8224   22568080.0964
    499395.989 8    383574.72445  24262681.104    24262680.2764   24262692.2244
   -575372.965 9   -440465.88748  20693150.892    20693150.3004   20693159.1564
   -611415.350 9   -457093.17346  23180359.380    23180359.6314   23180372.5754
 80  9  1 19 14 13.0000000  0  7 24  6  4  9  7  5 30               -0.000000075
   -150716.834 9   -114859.56649  20159906.318    20159906.1074   20159914.9864
   -584474.301 8   -439819.89445  24895152.658    24895151.9554   24895173.2324
    697229.504 9    535864.84148  21537605.139    21537605.2064   21537613.3054
    697761.802 9    531361.15247  22568562.427    22568562.0104   22568575.2854
    501657.072 9    385336.60345  24263111.389    24263110.5684   24263122.5174
   -576942.794 9   -441689.12848  20692852.154    20692851.5674   20692860.4184
   -614614.127 9   -459585.72046  23179750.682    23179750.9434   23179763.8754
 80  9  1 19 14 14.0000000  0  7 24  6  4  9  7  5 30               -0.000000075
   -150608.218 9   -114774.93149  20159926.993    20159926.7734   20159935.6664
   -586875.076 8   -441690.62345  24894695.801    24894695.0914   24894716.3744
    699818.456 9    537882.20348  21538097.795    21538097.8654   21538105.9664
    700364.272 9    533389.04047  22569057.664    22569057.2474   22569070.5274
    503918.275 8    387098.57245  24263541.704    24263540.8804   24263552.8284
   -578512.076 9   -442911.94548  20692553.518    20692552.9244   20692561.7844
   -617812.652 9   -462078.07346  23179142.026    23179142.2844   23179155.2184
 80  9  1 19 14 15.0000000  0  7 24  6  4  9  7  5 30               -0.000000075
   -150499.141 9   -114689.93449  20159947.738    20159947.5194   20159956.4054
   -589275.956 8   -443561.43645  24894238.925    24894238.2084   24894259.4924
    702407.606 9    539899.72248  21538590.488    21538590.5544   21538598.6744
    702966.915 9    535417.06847  22569552.922    22569552.5044   22569565.7794
    506179.377 8    388860.46445  24263971.953    24263971.1224   24263983.0884
   -580081.029 9   -444134.50448  20692254.957    20692254.3604   20692263.2274
   -621011.162 9   -464570.41246  23178533.353    23178533.6154   23178546.5514
 80  9  1 19 14 16.0000000  0  7 24  6  4  9  7  5 30               -0.000000075
   -150389.376 9   -114604.40249  20159968.646    20159968.4344   20159977.3094
   -591676.716 8   -445432.15445  24893782.070    24893781.3744   24893802.6384
    704997.186 9    541917.57648  21539083.254    21539083.3234   21539091.4424
    705569.969 9    537445.41647  22570048.280    22570047.8614   22570061.1414
    508440.628 8    390622.46845  24264402.281    24264401.4544   24264413.4164
   -581649.396 9   -445356.60548  20691956.514    20691955.9274   20691964.7874
   -624209.390 9   -467062.53246  23177924.739    23177925.0164   23177937.9364
 80  9  1 19 14 17.0000000  0  7 24  6  4  9  7  5 30               -0.000000075
   -150279.104 9   -114518.47649  20159989.627    20159989.4204   20159998.2964
   -594077.467 8   -447302.86245  24893325.208    24893324.5104   24893345.7794
    707587.052 9    543935.65248  21539576.103    21539576.1624   21539584.3024
    708173.284 9    539473.96647  22570543.674    22570543.2384   22570556.5474
    510701.855 8    392384.45745  24264832.585    24264831.7564   24264843.7254
   -583217.353 9   -446578.38948  20691658.157    20691657.5734   20691666.4394
   -627407.512 9   -469554.56746  23177316.163    23177316.4384   23177329.3704
 80  9  1 19 14 18.0000000  0  7 24  6  4  9  7  5 30               -0.000000075
   -150168.277 9   -114432.11749  20160010.704    20160010.5054   20160019.3674
   -596478.223 8   -449173.57545  24892868.358    24892867.6664   24892888.9284
    710177.191 9    545953.94448  21540068.989    21540069.0514   21540077.1924
    710776.865 9    541502.72047  22571039.123    22571038.6854   22571051.9974
    512963.087 8    394146.45345  24265262.892    24265262.0684   24265274.0194
   -584784.870 9   -447799.83048  20691359.843    20691359.2504   20691368.1274
   -630605.486 9   -472046.48846  23176707.597    23176707.8694   23176720.8094
 80  9  1 19 14 19.0000000  0  7 24  6  4  9  7  5 30               -0.000000075
   -150056.821 9   -114345.26549  20160031.918    20160031.7204   20160040.5784
   -598878.914 8   -451044.23945  24892411.537    24892410.8624   24892432.0944
    712767.676 9    547972.50248  21540561.931    21540561.9994   21540570.1474
    713380.791 9    543531.74747  22571534.624    22571534.1924   22571547.5134
    515224.394 8    395908.50645  24265693.189    24265692.3714   24265704.3194
   -586351.867 9   -449020.86248  20691061.666    20691061.0774   20691069.9484
   -633803.248 9   -474538.24446  23176099.075    23176099.3514   23176112.2914
 80  9  1 19 14 20.0000000  0  7 24  6  4  9  7  5 30               -0.000000075
   -149944.819 9   -114257.99149  20160053.226    20160053.0364   20160061.8864
   -601279.591 8   -452914.89045  24891954.676    24891954.0084   24891975.2314
    715358.468 9    549991.29648  21541054.939    21541054.9984   21541063.1704
    715985.010 9    545560.99847  22572030.180    22572029.7484   22572043.0714
    517485.699 8    397670.55345  24266123.507    24266122.6834   24266134.6284
   -587918.407 9   -450241.54548  20690763.560    20690762.9734   20690771.8504
   -637000.872 9   -477029.89446  23175490.586    23175490.8624   23175503.8084
 80  9  1 19 14 21.0000000  0  7 24  6  4  9  7  5 30               -0.000000075
   -149832.218 9   -114170.25149  20160074.648    20160074.4514   20160083.3074
   -603680.184 8   -454785.47645  24891497.867    24891497.2154   24891518.4274
    717949.644 9    552010.38948  21541548.011    21541548.0774   21541556.2494
    718589.563 9    547590.51247  22572525.837    22572525.4164   22572538.7314
    519747.063 8    399432.64845  24266553.820    24266553.0044   24266564.9474
   -589484.449 9   -451461.83748  20690465.546    20690464.9594   20690473.8274
   -640198.297 9   -479521.39046  23174882.122    23174882.3934   23174895.3434
 80  9  1 19 14 22.0000000  0  7 24  6  4  9  7  5 30               -0.000000075
   -149719.030 9   -114082.05049  20160096.195    20160096.0064   20160104.8504
   -606080.729 8   -456656.02445  24891041.063    24891040.4214   24891061.6204
    720541.138 9    554029.73548  21542041.163    21542041.2254   21542049.4124
    721194.431 9    549620.27347  22573021.523    22573021.1034   22573034.4274
    522008.470 8    401194.77545  24266984.169    24266983.3574   24266995.2904
   -591049.975 9   -452681.72548  20690167.649    20690167.0554   20690175.9394
   -643395.536 9   -482012.74046  23174273.702    23174273.9744   23174286.9294
 80  9  1 19 14 23.0000000  0  7 24  6  4  9  7  5 30               -0.000000076
   -149605.200 9   -113993.35149  20160117.861    20160117.6714   20160126.5194
   -608481.187 8   -458526.50345  24890584.262    24890583.6274   24890604.8134
    723133.019 9    556049.38048  21542534.367    21542534.4344   21542542.6194
    723799.660 9    551650.31547  22573517.260    22573516.8394   22573530.1694
    524269.953 8    402956.96445  24267414.514    24267413.7094   24267425.6284
   -592614.980 9   -453901.21048  20689869.822    20689869.2324   20689878.1144
   -646592.550 9   -484503.91646  23173665.308    23173665.5764   23173678.5414
 80  9  1 19 14 24.0000000  0  7 24  6  4  9  7  5 30               -0.000000076
   -149490.799 9   -113904.20649  20160139.624    20160139.4264   20160148.2714
   -610881.590 8   -460396.94145  24890127.464    24890126.8434   24890148.0074
    725725.225 9    558069.28448  21543027.659    21543027.7224   21543035.9144
    726405.201 9    553680.60047  22574013.099    22574012.6864   22574026.0244
    526531.475 8    404719.18645  24267844.860    24267844.0424   24267855.9734
   -594179.500 9   -455120.31448  20689572.118    20689571.5284   20689580.4154
   -649789.382 9   -486994.94446  23173056.987    23173057.2664   23173070.2274
 80  9  1 19 14 25.0000000  0  7 24  6  4  9  7  5 30               -0.000000076
   -149375.956 9   -113814.71849  20160161.459    20160161.2714   20160170.1034
   -613282.059 8   -462267.43345  24889670.672    24889670.0604   24889691.2054
    728317.644 9    560089.34948  21543520.973    21543521.0414   21543529.2354
    729010.929 9    555711.02947  22574508.944    22574508.5234   22574521.8764
    528792.906 8    406481.34045  24268275.189    24268274.3644   24268286.2964
   -595743.639 9   -456339.12348  20689274.472    20689273.8844   20689282.7674
   -652986.140 9   -489485.91646  23172448.656    23172448.9374   23172461.8944
 80  9  1 19 14 26.0000000  0  7 24  6  4  9  7  5 30               -0.000000076
   -149260.476 9   -113724.73349  20160183.434    20160183.2454   20160192.0814
   -615682.471 8   -464137.87845  24889213.872    24889213.2764   24889234.4004
    730910.433 9    562109.70148  21544014.368    21544014.4294   21544022.6374
    731616.990 9    557741.72147  22575004.836    22575004.4294   22575017.7774
    531054.395 8    408243.53345  24268705.530    24268704.7064   24268716.6394
   -597307.275 9   -457557.54048  20688976.910    20688976.3304   20688985.2064
   -656182.681 9   -491976.71946  23171840.363    23171840.6494   23171853.6024
 80  9  1 19 14 27.0000000  0  7 24  6  4  9  7  5 30               -0.000000076
   -149144.255 9   -113634.17149  20160205.568    20160205.3804   20160214.2084
   -618082.667 8   -466008.15545  24888757.117    24888756.5324   24888777.6404
    733503.711 9    564130.43148  21544507.850    21544507.9084   21544516.1204
    734223.531 9    559772.78447  22575500.841    22575500.4364   22575513.7914
    533316.120 8    410005.91145  24269135.922    24269135.0884   24269147.0334
   -598870.270 9   -458775.46048  20688679.479    20688678.8964   20688687.7864
   -659378.870 9   -494467.25746  23171232.132    23171232.4204   23171245.3714
 80  9  1 19 14 28.0000000  0  7 24  6  4  9  7  5 30               -0.000000076
   -149027.616 9   -113543.27949  20160227.748    20160227.5554   20160236.3864
   -620483.009 8   -467878.54745  24888300.342    24888299.7594   24888320.8634
    736097.132 9    566151.28448  21545001.352    21545001.4264   21545009.6314
    736830.196 9    561803.94747  22575996.864    22575996.4734   22576009.8264
    535577.679 8    411768.16445  24269566.300    24269565.4604   24269577.4044
   -600432.934 9   -459993.11748  20688382.122    20688381.5324   20688390.4274
   -662575.022 9   -496957.75346  23170623.935    23170624.2214   23170637.1784
 80  9  1 19 14 29.0000000  0  7 24  6  4  9  7  5 30               -0.000000076
   -148910.541 9   -113452.05249  20160250.039    20160249.8494   20160258.6824
   -622883.449 8   -469749.01245  24887843.552    24887842.9654   24887864.0794
    738690.745 9    568172.27948  21545494.891    21545494.9644   21545503.1714
    739437.042 9    563835.24647  22576492.951    22576492.5694   22576505.9264
    537839.140 8    413530.33945  24269996.635    24269995.7824   24270007.7444
   -601995.255 9   -461210.50648  20688084.811    20688084.2174   20688093.1224
   -665771.125 9   -499448.22046  23170015.713    23170016.0024   23170028.9584
 80  9  1 19 14 30.0000000  0  7 24  6  4  9  7  5 30               -0.000000077
   -148792.816 9   -113360.31749  20160272.427    20160272.2444   20160281.0644
   -625283.761 8   -471619.37845  24887386.794    24887386.2214   24887407.3224
    741284.765 9    570193.59148  21545988.538    21545988.6034   21545996.8284
    742044.272 9    565866.85147  22576989.066    22576988.6764   22577002.0624
    540100.723 8    415292.60545  24270426.975    24270426.1244   24270438.0904
   -603557.030 9   -462427.47148  20687787.612    20687787.0334   20687795.9294
   -668966.949 9   -501938.47146  23169407.577    23169407.8634   23169420.8204
 80  9  1 19 14 31.0000000  0  7 24  6  4  9  7  5 30               -0.000000077
   -148674.519 9   -113268.13549  20160294.956    20160294.7684   20160303.5974
   -627684.021 8   -473489.70345  24886930.024    24886929.4474   24886950.5574
    743879.134 9    572215.18148  21546482.215    21546482.2814   21546490.5184
    744651.821 9    567898.69647  22577485.264    22577484.8924   22577498.2704
    542362.342 8    417054.90045  24270857.361    24270856.5164   24270868.4844
   -605118.278 9   -463644.02648  20687490.524    20687489.9494   20687498.8454
   -672162.583 9   -504428.56746  23168799.462    23168799.7444   23168812.6974
 80  9  1 19 14 32.0000000  0  7 24  6  4  9  7  5 30               -0.000000077
   -148555.664 9   -113175.51849  20160317.561    20160317.3734   20160326.1974
   -630084.274 8   -475360.02445  24886473.259    24886472.6844   24886493.8044
    746473.825 9    574237.01448  21546975.962    21546976.0294   21546984.2714
    747259.659 9    569930.77547  22577981.518    22577981.1494   22577994.5384
    544623.984 8    418817.21345  24271287.713    24271286.8684   24271298.8244
   -606679.069 9   -464860.22648  20687193.522    20687192.9344   20687201.8404
   -675358.047 9   -506918.52946  23168191.392    23168191.6754   23168204.6324
 80  9  1 19 14 33.0000000  0  7 24  6  4  9  7  5 30               -0.000000077
   -148436.188 9   -113082.42249  20160340.312    20160340.1174   20160348.9424
   -632484.467 8   -477230.29845  24886016.531    24886015.9604   24886037.0924
    749068.868 9    576259.12348  21547469.776    21547469.8474   21547478.0844
    749867.828 9    571963.10947  22578477.824    22578477.4754   22578490.8654
    546885.686 8    420579.56845  24271718.090    24271717.2504   24271729.2034
   -608239.363 9   -466076.04148  20686896.600    20686896.0104   20686904.9224
   -678553.310 9   -509408.33446  23167583.354    23167583.6264   23167596.5894
 80  9  1 19 14 34.0000000  0  7 24  6  4  9  7  5 30               -0.000000078
   -148316.121 9   -112988.86549  20160363.135    20160362.9414   20160371.7704
   -634884.618 8   -479100.54145  24885559.792    24885559.2464   24885580.3674
    751664.218 9    578281.47048  21547963.650    21547963.7254   21547971.9624
    752476.289 9    573995.66547  22578974.195    22578973.8514   22578987.2444
    549147.416 8    422341.94945  24272148.493    24272147.6524   24272159.6184
   -609799.160 9   -467291.46648  20686599.789    20686599.1954   20686608.1064
   -681748.380 9   -511897.99746  23166975.352    23166975.6274   23166988.5724
 80  9  1 19 14 35.0000000  0  7 24  6  4  9  7  5 30               -0.000000078
   -148195.445 9   -112894.82949  20160386.106    20160385.9254   20160394.7364
   -637284.707 8   -480970.73345  24885103.064    24885102.5124   24885123.6354
    754259.924 9    580304.10048  21548457.606    21548457.6834   21548465.9264
    755085.090 9    576028.49347  22579470.624    22579470.2884   22579483.6934
    551409.198 8    424104.37145  24272578.884    24272578.0444   24272590.0204
   -611358.462 9   -468506.50748  20686303.061    20686302.4714   20686311.3824
   -684943.257 9   -514387.50546  23166367.370    23166367.6574   23166380.5854
 80  9  1 19 14 36.0000000  0  7 24  6  4  9  7  5 30               -0.000000078
   -148074.303 9   -112800.42849  20160409.161    20160408.9694   20160417.7914
   -639684.904 8   -482841.01045  24884646.320    24884645.7684   24884666.8944
    756855.869 9    582326.91248  21548951.582    21548951.6614   21548959.9024
    757694.105 9    578061.48047  22579967.096    22579966.7744   22579980.1824
    553670.949 8    425866.77045  24273009.277    24273008.4464   24273020.4274
   -612917.377 9   -469721.23948  20686006.398    20686005.8064   20686014.7294
   -688138.047 9   -516876.94246  23165759.427    23165759.7184   23165772.6424
 80  9  1 19 14 37.0000000  0  7 24  6  4  9  7  5 30               -0.000000078
   -147952.470 9   -112705.49249  20160432.364    20160432.1734   20160440.9934
   -642084.931 8   -484711.15645  24884189.587    24884189.0454   24884210.1684
    759452.250 9    584350.06248  21549445.655    21549445.7294   21549453.9724
    760303.515 9    580094.77947  22580463.637    22580463.3204   22580476.7324
    555932.821 8    427629.25945  24273439.690    24273438.8684   24273450.8554
   -614475.699 9   -470935.51648  20685709.870    20685709.2724   20685718.2034
   -691332.554 9   -519366.16546  23165151.547    23165151.8294   23165164.7584
 80  9  1 19 14 38.0000000  0  7 24  6  4  9  7  5 30               -0.000000079
   -147830.015 9   -112610.07449  20160455.666    20160455.4674   20160464.3044
   -644484.887 8   -486581.24745  24883732.897    24883732.3614   24883753.4944
    762049.010 9    586373.51048  21549939.797    21549939.8874   21549948.1124
    762913.281 9    582128.35447  22580960.265    22580959.9664   22580973.3684
    558194.770 8    429391.81045  24273870.130    24273869.3014   24273881.3174
   -616033.512 9   -472149.39548  20685413.410    20685412.8174   20685421.7464
   -694526.856 9   -521855.22746  23164543.676    23164543.9504   23164556.8924
 80  9  1 19 14 39.0000000  0  7 24  6  4  9  7  5 30               -0.000000079
   -147707.063 9   -112514.26449  20160479.053    20160478.8514   20160487.6784
   -646884.889 8   -488451.37345  24883276.186    24883275.6474   24883296.8014
    764646.005 9    588397.14448  21550434.002    21550434.0854   21550442.3264
    765523.257 9    584162.09147  22581456.911    22581456.6224   22581470.0274
    560456.657 8    431154.31745  24274300.541    24274299.7134   24274311.7294
   -617590.934 9   -473362.97048  20685117.058    20685116.4724   20685125.3994
   -697721.064 9   -524344.21546  23163935.855    23163936.1314   23163949.0694
 80  9  1 19 14 40.0000000  0  7 24  6  4  9  7  5 30               -0.000000079
   -147583.456 9   -112417.94849  20160502.560    20160502.3654   20160511.1834
   -649284.783 8   -490321.41645  24882819.475    24882818.9434   24882840.0994
    767243.386 9    590421.07848  21550928.244    21550928.3334   21550936.5714
    768133.610 9    586196.12647  22581953.638    22581953.3594   22581966.7574
    562718.671 8    432916.92145  24274730.987    24274730.1544   24274742.1724
   -619147.801 9   -474576.11148  20684820.781    20684820.1874   20684829.1264
   -700914.998 9   -526832.98846  23163328.063    23163328.3324   23163341.2844
 80  9  1 19 14 41.0000000  0  7 24  6  4  9  7  5 30               -0.000000080
   -147459.323 9   -112321.22349  20160526.204    20160525.9984   20160534.8254
   -651684.644 8   -492191.43145  24882362.808    24882362.2794   24882383.4434
    769841.074 9    592445.24948  21551422.576    21551422.6704   21551430.9074
    770744.215 9    588230.35547  22582450.431    22582450.1554   22582463.5594
    564980.661 8    434679.50845  24275161.399    24275160.5664   24275172.5904
   -620704.240 9   -475788.91848  20684524.607    20684524.0124   20684532.9534
   -704108.804 9   -529321.66246  23162720.296    23162720.5624   23162733.5154
 80  9  1 19 14 42.0000000  0  7 24  6  4  9  7  5 30               -0.000000080
   -147334.562 9   -112224.00449  20160549.930    20160549.7224   20160558.5474
   -654084.461 8   -494061.41145  24881906.121    24881905.5954   24881926.7564
    772439.132 9    594469.70848  21551916.966    21551917.0684   21551925.2934
    773355.184 9    590264.87147  22582947.294    22582947.0314   22582960.4254
    567242.731 8    436442.15645  24275591.863    24275591.0294   24275603.0514
   -622260.165 9   -477001.32648  20684228.533    20684227.9374   20684236.8864
   -707302.382 9   -531810.15646  23162112.568    23162112.8234   23162125.7794
 80  9  1 19 14 43.0000000  0  7 24  6  4  9  7  5 30               -0.000000080
   -147209.272 9   -112126.37349  20160573.794    20160573.5854   20160582.4204
   -656484.254 9   -495931.37445  24881449.452    24881448.9324   24881470.1024
    775037.436 9    596494.36348  21552411.404    21552411.5064   21552419.7374
    775966.391 9    592299.57447  22583444.165    22583443.9074   22583457.3124
    569504.801 8    438204.80945  24276022.309    24276021.4714   24276033.4984
   -623815.647 9   -478213.38848  20683932.539    20683931.9324   20683940.8854
   -710495.833 9   -534298.54946  23161504.870    23161505.1244   23161518.0774
 80  9  1 19 14 44.0000000  0  7 24  6  4  9  7  5 30               -0.000000080
   -147083.438 9   -112028.31849  20160597.715    20160597.5094   20160606.3394
   -658884.040 8   -497801.33145  24880992.808    24880992.2784   24881013.4674
    777636.017 9    598519.23148  21552905.889    21552906.0044   21552914.2214
    778577.870 9    594334.48547  22583941.119    22583940.8634   22583954.2704
    571766.833 8    439967.42745  24276452.773    24276451.9234   24276463.9624
   -625370.703 9   -479425.11948  20683636.617    20683636.0174   20683644.9624
   -713689.148 9   -536786.84346  23160897.209    23160897.4644   23160910.4044
 80  9  1 19 14 45.0000000  0  7 24  6  4  9  7  5 30               -0.000000081
   -146956.908 9   -111929.72349  20160621.794    20160621.5824   20160630.4064
   -661283.657 8   -499671.15545  24880536.171    24880535.6444   24880556.8214
    780235.049 9    600544.45248  21553400.470    21553400.5814   21553408.8094
    781189.762 9    596369.71847  22584438.134    22584437.8794   22584451.2894
    574029.025 8    441730.16745  24276883.252    24276882.3854   24276894.4464
   -626925.181 9   -480636.40048  20683340.813    20683340.2024   20683349.1644
   -716882.184 9   -539274.91546  23160289.595    23160289.8654   23160302.7754
 80  9  1 19 14 46.0000000  0  7 24  6  4  9  7  5 30               -0.000000081
   -146829.970 9   -111830.81149  20160645.976    20160645.7554   20160654.5864
   -663683.404 8   -501541.08545  24880079.507    24880078.9704   24880100.1554
    782834.204 9    602569.76548  21553895.076    21553895.1794   21553903.4104
    783801.779 9    598405.04747  22584935.210    22584934.9554   22584948.3784
    576291.055 8    443492.78045  24277313.678    24277312.8074   24277324.8574
   -628479.348 9   -481847.43748  20683045.068    20683044.4564   20683053.4074
   -720075.220 9   -541762.99246  23159681.973    23159682.2464   23159695.1474
 80  9  1 19 14 47.0000000  0  7 24  6  4  9  7  5 30               -0.000000081
   -146702.204 9   -111731.25549  20160670.296    20160670.0794   20160678.9034
   -666082.826 8   -503410.76045  24879622.907    24879622.3664   24879643.5584
    785433.933 9    604595.52548  21554389.768    21554389.8864   21554398.0954
    786414.355 9    600440.81447  22585432.350    22585432.1014   22585445.5154
    578553.405 8    445255.64945  24277744.202    24277743.3284   24277755.3824
   -630032.796 9   -483057.91548  20682749.434    20682748.8214   20682757.7724
   -723267.823 9   -544250.73346  23159074.442    23159074.7064   23159087.6094
 80  9  1 19 14 48.0000000  0  7 24  6  4  9  7  5 30               -0.000000082
   -146573.953 9   -111631.31849  20160694.699    20160694.4724   20160703.3044
   -668482.297 8   -505280.47145  24879166.289    24879165.7524   24879186.9464
    788033.912 9    606621.48848  21554884.532    21554884.6644   21554892.8734
    789027.155 9    602476.75347  22585929.575    22585929.3264   22585942.7484
    580815.687 8    447018.46545  24278174.673    24278173.8014   24278185.8494
   -631585.862 9   -484268.09448  20682453.895    20682453.2964   20682462.2404
   -726460.343 9   -546738.40746  23158466.927    23158467.1874   23158480.0904
 80  9  1 19 14 49.0000000  0  7 24  6  4  9  7  5 30               -0.000000082
   -146445.134 9   -111530.93949  20160719.199    20160718.9754   20160727.7974
   -670881.731 8   -507150.15145  24878709.706    24878709.1594   24878730.3554
    790634.184 9    608647.67248  21555379.349    21555379.4814   21555387.6874
    791640.228 9    604512.91047  22586426.816    22586426.5624   22586439.9854
    583077.965 8    448781.27545  24278605.191    24278604.3134   24278616.3634
   -633138.495 9   -485477.93848  20682158.458    20682157.8504   20682166.8154
   -729652.730 9   -549225.97446  23157859.427    23157859.6884   23157872.5974
 80  9  1 19 14 50.0000000  0  7 24  6  4  9  7  5 30               -0.000000082
   -146315.802 9   -111430.15949  20160743.831    20160743.5984   20160752.4244
   -673281.177 8   -509019.84445  24878253.089    24878252.5354   24878273.7314
    793234.725 9    610674.06648  21555874.223    21555874.3494   21555882.5564
    794253.555 9    606549.26247  22586924.115    22586923.8684   22586937.2884
    585340.223 8    450544.06945  24279035.664    24279034.7754   24279046.8344
   -634690.719 9   -486687.46148  20681863.067    20681862.4554   20681871.4254
   -732845.001 9   -551713.45146  23157251.976    23157252.2284   23157265.1374
 80  9  1 19 14 51.0000000  0  7 24  6  4  9  7  5 30               -0.000000083
   -146185.941 9   -111328.96849  20160768.548    20160768.3114   20160777.1404
   -675680.642 8   -510889.54745  24877796.489    24877795.9314   24877817.1324
    795835.530 9    612700.67348  21556369.141    21556369.2764   21556377.4754
    796867.114 9    608585.79747  22587421.477    22587421.2334   22587434.6464
    587602.476 8    452306.86145  24279466.158    24279465.2564   24279477.3294
   -636242.561 9   -487896.68448  20681567.768    20681567.1594   20681576.1294
   -736037.201 9   -554200.87046  23156644.505    23156644.7684   23156657.6684
 80  9  1 19 14 52.0000000  0  7 24  6  4  9  7  5 30               -0.000000083
   -146055.590 9   -111227.39349  20160793.338    20160793.0934   20160801.9254
   -678080.162 8   -512759.29745  24877339.859    24877339.2974   24877360.4944
    798436.537 9    614727.42748  21556864.099    21556864.2334   21556872.4254
    799480.848 9    610622.46847  22587918.864    22587918.6194   22587932.0334
    589864.631 8    454069.57045  24279896.644    24279895.7484   24279907.8074
   -637794.066 9   -489105.64748  20681272.528    20681271.9144   20681280.8884
   -739229.346 9   -556688.25046  23156037.074    23156037.3494   23156050.2354
 80  9  1 19 14 53.0000000  0  7 24  6  4  9  7  5 30               -0.000000084
   -145924.253 9   -111125.05649  20160818.325    20160818.0964   20160826.9254
   -680479.223 9   -514628.69345  24876883.338    24876882.7734   24876903.9774
    801038.299 9    616754.77248  21557359.200    21557359.3304   21557367.5204
    802095.300 9    612659.69147  22588416.382    22588416.1354   22588429.5484
    592127.257 8    455832.65045  24280327.203    24280326.3004   24280338.3824
   -639344.698 9   -490313.93348  20680977.425    20680976.8084   20680985.7974
   -742420.915 9   -559175.18346  23155429.737    23155430.0194   23155442.8974
 80  9  1 19 14 54.0000000  0  7 24  6  4  9  7  5 30               -0.000000084
   -145792.563 9   -111022.43949  20160843.390    20160843.1594   20160851.9864
   -682878.460 9   -516498.22245  24876426.773    24876426.1994   24876447.4014
    803640.165 9    618782.20248  21557854.298    21557854.4384   21557862.6034
    804709.831 9    614696.98347  22588913.900    22588913.6504   22588927.0624
    594389.687 8    457595.58145  24280757.725    24280756.8224   24280768.9014
   -640895.110 9   -491522.04648  20680682.413    20680681.8024   20680690.7854
   -745612.556 9   -561662.16846  23154822.390    23154822.6794   23154835.5434
 80  9  1 19 14 55.0000000  0  7 24  6  4  9  7  5 30               -0.000000084
   -145660.199 9   -110919.29849  20160868.592    20160868.3514   20160877.1814
   -685277.521 9   -518367.61545  24875970.259    24875969.6854   24875990.8874
    806242.448 9    620809.95548  21558349.503    21558349.6454   21558357.8094
    807324.740 9    616734.56747  22589411.515    22589411.2664   22589424.6834
    596652.251 8    459358.61745  24281188.280    24281187.3744   24281199.4634
   -642444.983 9   -492729.73948  20680387.461    20680386.8464   20680395.8404
   -748803.933 9   -564148.94446  23154215.077    23154215.3604   23154228.2354
 80  9  1 19 14 56.0000000  0  7 24  6  4  9  7  5 30               -0.000000085
   -145527.188 9   -110815.65249  20160893.900    20160893.6544   20160902.4794
   -687676.527 8   -520236.96545  24875513.740    24875513.1614   24875534.3644
    808845.123 9    622838.01348  21558844.788    21558844.9224   21558853.0764
    809940.024 9    618772.44647  22589909.186    22589908.9214   22589922.3544
    598914.909 8    461121.72245  24281618.839    24281617.9264   24281630.0364
   -643994.342 9   -493937.02948  20680092.627    20680092.0204   20680101.0004
   -751995.084 9   -566635.55146  23153607.826    23153608.1114   23153620.9924
 80  9  1 19 14 57.0000000  0  7 24  6  4  9  7  5 30               -0.000000085
   -145393.750 9   -110711.67349  20160919.282    20160919.0364   20160927.8654
   -690075.596 8   -522106.36545  24875057.220    24875056.6374   24875077.8424
    811447.984 9    624866.22148  21559340.100    21559340.2394   21559348.3814
    812555.458 9    620810.43747  22590406.900    22590406.6374   22590420.0614
    601177.465 8    462884.74945  24282049.388    24282048.4774   24282060.6024
   -645543.412 9   -495144.09548  20679797.840    20679797.2344   20679806.2234
   -755186.220 9   -569122.14546  23153000.558    23153000.8314   23153013.7194
 80  9  1 19 14 58.0000000  0  7 24  6  4  9  7  5 30               -0.000000086
   -145259.582 9   -110607.12449  20160944.835    20160944.5984   20160953.4234
   -692474.478 8   -523975.61745  24874600.704    24874600.1134   24874621.3204
    814051.329 9    626894.79948  21559835.483    21559835.6264   21559843.7654
    815171.313 9    622848.75747  22590904.683    22590904.4124   22590917.8454
    603440.172 8    464647.89245  24282479.968    24282479.0594   24282491.2004
   -647091.895 9   -496350.70548  20679503.166    20679502.5684   20679511.5604
   -758377.049 9   -571608.50246  23152393.353    23152393.6324   23152406.5094
 80  9  1 19 14 59.0000000  0  7 24  6  4  9  7  5 30               -0.000000086
   -145124.888 9   -110502.16849  20160970.449    20160970.2014   20160979.0344
   -694873.352 8   -525844.86245  24874144.228    24874143.6494   24874164.8514
    816654.932 9    628923.57848  21560330.941    21560331.0834   21560339.2144
    817787.411 9    624887.26547  22591402.517    22591402.2474   22591415.6774
    605702.858 8    466411.01445  24282910.556    24282909.6514   24282921.8044
   -648639.997 9   -497557.01548  20679208.596    20679207.9924   20679216.9884
   -761567.754 9   -574094.76246  23151786.198    23151786.4914   23151799.3604
 80  9  1 19 15  0.0000000  0  7 24  6  4  9  7  5 30               -0.000000086
   -144989.571 9   -110396.72349  20160996.214    20160995.9634   20161004.8044
   -697272.128 8   -527714.03445  24873687.755    24873687.1654   24873708.3734
    819258.908 9    630952.65248  21560826.458    21560826.6004   21560834.7194
    820403.855 9    626926.05147  22591900.432    22591900.1634   22591913.5924
    607965.606 8    468174.18745  24283341.127    24283340.2234   24283352.3834
   -650187.608 9   -498762.94448  20678914.078    20678913.4864   20678922.4774
   -764758.252 9   -576580.86046  23151179.044    23151179.3424   23151192.2054
 80  9  1 19 15  1.0000000  0  7 24  6  4  9  7  5 30               -0.000000112
   -144853.765 9   -110290.90049  20161022.058    20161021.8054   20161030.6464
   -699670.963 8   -529583.25045  24873231.261    24873230.6714   24873251.8764
    821863.105 9    632981.89748  21561322.028    21561322.1674   21561330.2794
    823020.498 9    628964.98147  22592398.349    22592398.0784   22592411.5104
    610228.275 8    469937.30345  24283771.707    24283770.8054   24283782.9844
   -651734.870 9   -499968.60148  20678619.644    20678619.0504   20678628.0424
   -767948.679 9   -579066.90246  23150571.938    23150572.2424   23150585.0994
 80  9  1 19 15  2.0000000  0  7 24  6  4  9  7  5 30               -0.000000112
   -144716.566 9   -110183.99449  20161048.154    20161047.9074   20161056.7414
   -702068.904 8   -531451.77045  24872774.945    24872774.3574   24872795.5604
    824468.464 9    635012.04748  21561817.835    21561817.9744   21561826.0754
    825638.270 9    631004.79247  22592896.506    22592896.2334   22592909.6644
    612491.789 8    471701.07445  24284202.436    24284201.5364   24284213.7314
   -653280.867 9   -501173.27448  20678325.446    20678324.8544   20678333.8544
   -771138.122 9   -581552.17646  23149965.003    23149965.3124   23149978.1684
 80  9  1 19 15  3.0000000  0  7 24  6  4  9  7  5 30               -0.000000112
   -144578.755 9   -110076.60649  20161074.400    20161074.1494   20161082.9834
   -704466.753 8   -533320.21845  24872318.647    24872318.0534   24872339.2674
    827074.184 9    637042.48248  21562313.678    21562313.8214   21562321.9064
    828256.395 9    633044.88747  22593394.742    22593394.4784   22593407.9014
    614755.386 8    473464.91645  24284633.191    24284632.3084   24284644.5154
   -654826.369 9   -502377.56248  20678031.344    20678030.7474   20678039.7574
   -774327.358 9   -584037.28946  23149358.104    23149358.4134   23149371.2684
 80  9  1 19 15  4.0000000  0  7 24  6  4  9  7  5 30               -0.000000111
   -144440.375 9   -109968.77949  20161100.732    20161100.4804   20161109.3054
   -706864.586 8   -535188.65245  24871862.359    24871861.7784   24871882.9744
    829680.184 9    639073.12848  21562809.600    21562809.7374   21562817.8204
    830874.809 9    635085.20047  22593892.993    22593892.7234   22593906.1544
    617018.968 8    475228.74045  24285063.954    24285063.0804   24285075.2954
   -656371.453 9   -503581.52348  20677737.325    20677736.7514   20677745.7424
   -777516.465 9   -586522.30446  23148751.239    23148751.5634   23148764.3944
 80  9  1 19 15  5.0000000  0  7 24  6  4  9  7  5 30               -0.000000111
   -144301.354 9   -109860.45049  20161127.185    20161126.9324   20161135.7564
   -709262.297 8   -537056.99145  24871406.098    24871405.5044   24871426.7214
    832286.551 9    641104.06448  21563305.559    21563305.6944   21563313.7674
    833493.592 9    637125.79947  22594391.338    22594391.0684   22594404.4984
    619282.630 8    476992.62445  24285494.723    24285493.8514   24285506.0794
   -657916.031 9   -504785.09048  20677443.384    20677442.8144   20677451.7974
   -780705.357 9   -589007.15046  23148144.391    23148144.7234   23148157.5484
 80  9  1 19 15  6.0000000  0  7 24  6  4  9  7  5 30               -0.000000111
   -144161.723 9   -109751.64649  20161153.744    20161153.4944   20161162.3264
   -711659.933 8   -538925.27045  24870949.831    24870949.2404   24870970.4594
    834893.274 9    643135.27348  21563801.625    21563801.7604   21563809.8184
    836112.723 9    639166.67947  22594889.742    22594889.4734   22594902.8994
    621546.372 8    478756.57545  24285925.489    24285924.6334   24285936.8634
   -659460.131 9   -505988.28248  20677149.546    20677148.9774   20677157.9604
   -783894.037 9   -591491.82946  23147537.604    23147537.9334   23147550.7484
 80  9  1 19 15  7.0000000  0  7 24  6  4  9  7  5 30               -0.000000110
   -144021.544 9   -109642.41349  20161180.438    20161180.1854   20161189.0044
   -714057.534 8   -540793.52545  24870493.585    24870492.9864   24870514.2174
    837500.267 9    645166.70148  21564297.696    21564297.8274   21564305.8814
    838732.125 9    641207.76547  22595388.201    22595387.9384   22595401.3674
    623810.076 8    480520.49845  24286356.288    24286355.4454   24286367.6784
   -661003.822 9   -507191.15748  20676855.813    20676855.2514   20676864.2404
   -787082.620 9   -593976.42946  23146930.852    23146931.1934   23146944.0044
 80  9  1 19 15  8.0000000  0  7 24  6  4  9  7  5 30               -0.000000110
   -143880.860 9   -109532.78849  20161207.211    20161206.9674   20161215.7914
   -716455.210 8   -542661.83745  24870037.322    24870036.7224   24870057.9454
    840107.539 9    647198.34048  21564793.872    21564793.9944   21564802.0464
    841351.774 9    643249.04147  22595886.713    22595886.4534   22595899.8774
    626073.743 8    482284.38945  24286787.056    24286786.2274   24286798.4504
   -662547.135 9   -508393.73748  20676562.105    20676561.5444   20676570.5224
   -790271.095 9   -596460.94946  23146324.081    23146324.4234   23146337.2264
 80  9  1 19 15  9.0000000  0  7 24  6  4  9  7  5 30               -0.000000110
   -143739.605 9   -109422.71849  20161234.084    20161233.8384   20161242.6634
   -718852.780 8   -544530.06645  24869581.060    24869580.4584   24869601.7064
    842715.110 9    649230.21848  21565290.070    21565290.1904   21565298.2424
    843971.718 9    645290.54347  22596385.273    22596385.0084   22596398.4394
    628337.426 8    484048.29845  24287217.817    24287216.9984   24287229.2214
   -664090.005 9   -509595.97148  20676268.525    20676267.9684   20676276.9534
   -793459.425 9   -598945.35346  23145717.382    23145717.7334   23145730.5224
 80  9  1 19 15 10.0000000  0  7 24  6  4  9  7  5 30               -0.000000109
   -143598.076 9   -109312.43449  20161261.027    20161260.7804   20161269.6024
   -721250.617 8   -546398.50445  24869124.774    24869124.1644   24869145.4164
    845322.706 9    651262.11248  21565786.294    21565786.4274   21565794.4554
    846591.674 9    647332.06147  22596883.843    22596883.5924   22596897.0104
    630600.826 8    485811.98345  24287648.515    24287647.7104   24287659.9094
   -665632.719 9   -510798.08448  20675974.948    20675974.4014   20675983.3734
   -796647.902 9   -601429.87746  23145110.634    23145110.9844   23145123.7694
 80  9  1 19 15 11.0000000  0  7 24  6  4  9  7  5 30               -0.000000109
   -143455.427 9   -109201.28249  20161288.155    20161287.9114   20161296.7314
   -723647.916 9   -548266.52045  24868668.571    24868667.9604   24868689.2154
    847931.154 9    653294.66448  21566282.657    21566282.7834   21566290.8054
    849212.453 9    649374.21547  22597382.573    22597382.3274   22597395.7484
    632864.785 8    487576.10145  24288079.352    24288078.5624   24288090.7394
   -667174.461 9   -511999.44448  20675681.568    20675681.0144   20675690.0014
   -799835.689 9   -603913.86646  23144504.017    23144504.3544   23144517.1474
 80  9  1 19 15 12.0000000  0  7 24  6  4  9  7  5 30               -0.000000109
   -143312.459 9   -109089.87349  20161315.379    20161315.1324   20161323.9494
   -726045.436 8   -550134.71245  24868212.335    24868211.7164   24868232.9804
    850539.674 9    655327.27748  21566779.062    21566779.1894   21566787.2034
    851833.277 9    651416.41247  22597881.282    22597881.0324   22597894.4644
    635128.513 8    489340.04045  24288510.146    24288509.3634   24288521.5174
   -668716.015 9   -513200.65348  20675388.210    20675387.6674   20675396.6394
   -803023.575 9   -606397.92546  23143897.358    23143897.7034   23143910.4894
 80  9  1 19 15 13.0000000  0  7 24  6  4  9  7  5 30               -0.000000108
   -143168.910 9   -108978.01549  20161342.676    20161342.4334   20161351.2404
   -728442.919 9   -552002.87545  24867756.119    24867755.4924   24867776.7694
    853148.526 9    657360.15248  21567275.509    21567275.6364   21567283.6434
    854454.397 9    653458.83747  22598380.072    22598379.8274   22598393.2634
    637392.259 8    491103.99045  24288940.923    24288940.1554   24288952.2784
   -670257.118 9   -514401.51248  20675094.967    20675094.4204   20675103.3854
   -806211.318 9   -608881.87746  23143290.766    23143291.1124   23143303.8974
 80  9  1 19 15 14.0000000  0  7 24  6  4  9  7  5 30               -0.000000108
   -143024.808 9   -108865.72949  20161370.114    20161369.8744   20161378.6764
   -730840.375 8   -553871.01445  24867299.887    24867299.2574   24867320.5434
    855757.722 9    659393.29448  21567772.008    21567772.1324   21567780.1414
    857075.826 9    655501.49347  22598878.934    22598878.6914   22598892.1304
    639656.046 8    492867.97245  24289371.701    24289370.9384   24289383.0294
   -671797.774 9   -515602.02548  20674801.789    20674801.2434   20674810.2174
   -809398.909 9   -611365.71046  23142684.192    23142684.5534   23142697.3254
 80  9  1 19 15 15.0000000  0  7 24  6  4  9  7  5 30               -0.000000108
   -142880.058 9   -108752.93849  20161397.658    20161397.4154   20161406.2364
   -733237.702 8   -555739.05445  24866843.701    24866843.0834   24866864.3584
    858367.326 9    661426.74948  21568268.599    21568268.7284   21568276.7214
    859697.627 9    657544.44947  22599377.846    22599377.6064   22599391.0434
    641919.927 8    494632.03445  24289802.523    24289801.7504   24289813.8414
   -673337.905 9   -516802.12448  20674508.706    20674508.1664   20674517.1254
   -812586.260 9   -613849.35546  23142077.658    23142078.0034   23142090.7954
 80  9  1 19 15 16.0000000  0  7 24  6  4  9  7  5 30               -0.000000108
   -142734.769 9   -108639.72349  20161425.308    20161425.0664   20161433.8784
   -735635.073 9   -557607.13045  24866387.490    24866386.8694   24866408.1424
    860977.241 9    663460.45048  21568765.267    21568765.3944   21568773.3774
    862319.715 9    659587.62747  22599876.815    22599876.5714   22599890.0194
    644183.805 8    496396.08345  24290233.319    24290232.5424   24290244.6094
   -674877.613 9   -518001.89448  20674215.701    20674215.1684   20674224.1224
   -815773.497 9   -616332.90846  23141471.148    23141471.5024   23141484.2734
 80  9  1 19 15 17.0000000  0  7 24  6  4  9  7  5 30               -0.000000108
   -142588.904 9   -108526.06249  20161453.070    20161452.8364   20161461.6464
   -738032.372 8   -559475.14945  24865931.300    24865930.6844   24865951.9494
    863587.500 9    665494.42248  21569261.989    21569262.1104   21569270.1134
    864942.113 9    661631.04847  22600375.814    22600375.5754   22600389.0284
    646447.723 8    498160.16945  24290664.147    24290663.3544   24290675.4154
   -676416.875 9   -519201.31848  20673922.786    20673922.2514   20673931.2154
   -818960.567 9   -618816.33546  23140864.657    23140865.0124   23140877.7864
 80  9  1 19 15 18.0000000  0  7 24  6  4  9  7  5 30               -0.000000107
   -142442.648 9   -108412.09449  20161480.884    20161480.6474   20161489.4594
   -740429.858 8   -561343.31345  24865475.083    24865474.4704   24865495.7264
    866197.902 9    667528.50048  21569758.740    21569758.8674   21569766.8464
    867564.635 9    663674.56647  22600874.871    22600874.6394   22600888.0934
    648711.453 8    499924.11245  24291094.933    24291094.1264   24291106.1934
   -677955.882 9   -520400.54148  20673629.926    20673629.3944   20673638.3384
   -822147.681 9   -621299.79746  23140258.179    23140258.5334   23140271.3194
 80  9  1 19 15 19.0000000  0  7 24  6  4  9  7  5 30               -0.000000107
   -142295.704 9   -108297.59249  20161508.866    20161508.6284   20161517.4374
   -742827.198 8   -563211.36445  24865018.858    24865018.2364   24865039.4914
    868808.772 9    669562.93948  21570255.565    21570255.6834   21570263.6784
    870187.578 9    665718.41347  22601374.011    22601373.7844   22601387.2364
    650975.301 8    501688.14145  24291525.726    24291524.9084   24291536.9684
   -679494.331 9   -521599.33348  20673337.178    20673336.6474   20673345.5974
   -825334.532 9   -623783.04946  23139651.728    23139652.0734   23139664.8624
 80  9  1 19 15 20.0000000  0  7 24  6  4  9  7  5 30               -0.000000107
   -142148.185 9   -108182.64249  20161536.925    20161536.6884   20161545.5074
   -745224.483 8   -565079.37045  24864562.682    24864562.0724   24864583.3054
    871419.979 9    671597.64948  21570752.465    21570752.5884   21570760.5574
    872810.833 9    667762.49447  22601873.190    22601872.9694   22601886.4194
    653239.186 8    503452.19845  24291956.541    24291955.7094   24291967.7684
   -681032.321 9   -522797.76548  20673044.516    20673043.9894   20673052.9214
   -828521.214 9   -626266.17146  23139045.337    23139045.6824   23139058.4644
 80  9  1 19 15 21.0000000  0  7 24  6  4  9  7  5 30               -0.000000107
   -141999.984 9   -108067.15949  20161565.135    20161564.9094   20161573.7024
   -747621.613 9   -566947.25745  24864106.516    24864105.9184   24864127.1364
    874031.654 9    673632.72448  21571249.467    21571249.5844   21571257.5564
    875434.508 9    669806.91247  22602372.454    22602372.2334   22602385.6974
    655503.213 8    505216.36845  24292387.381    24292386.5414   24292398.6064
   -682569.742 9   -523995.75548  20672751.943    20672751.4124   20672760.3434
   -831707.627 9   -628749.08146  23138438.981    23138439.3224   23138452.1004
 80  9  1 19 15 22.0000000  0  7 24  6  4  9  7  5 30               -0.000000107
   -141851.250 9   -107951.26149  20161593.418    20161593.1894   20161601.9844
   -750018.752 8   -568815.15045  24863650.355    24863649.7434   24863670.9694
    876643.649 9    675668.04348  21571746.508    21571746.6304   21571754.5994
    878058.454 9    671851.53747  22602871.779    22602871.5674   22602885.0284
    657767.210 8    506980.52045  24292818.219    24292817.3724   24292829.4384
   -684106.747 9   -525193.42248  20672459.485    20672458.9544   20672467.8844
   -834893.924 9   -631231.90046  23137832.646    23137832.9824   23137845.7584
 80  9  1 19 15 23.0000000  0  7 24  6  4  9  7  5 30               -0.000000107
   -141701.970 9   -107834.94149  20161621.830    20161621.6004   20161630.4014
   -752415.866 8   -570683.02645  24863194.206    24863193.5994   24863214.8154
    879255.990 9    677703.63248  21572243.630    21572243.7464   21572251.7284
    880682.701 9    673896.39547  22603371.174    22603370.9614   22603384.4274
    660031.235 8    508744.69145  24293249.073    24293248.2234   24293260.2634
   -685643.305 9   -526390.73848  20672167.073    20672166.5474   20672175.4604
   -838080.084 9   -633714.62046  23137226.330    23137226.6624   23137239.4474
 80  9  1 19 15 24.0000000  0  7 24  6  4  9  7  5 30               -0.000000107
   -141552.084 9   -107718.14449  20161650.365    20161650.1404   20161658.9404
   -754812.895 8   -572550.83345  24862738.069    24862737.4654   24862758.6754
    881868.715 9    679739.52248  21572740.815    21572740.9324   21572748.9064
    883307.292 9    675941.52247  22603870.625    22603870.4164   22603883.8864
    662295.308 8    510508.90045  24293679.900    24293679.0454   24293691.0714
   -687179.384 9   -527587.68448  20671874.789    20671874.2594   20671883.1714
   -841266.059 9   -636197.19146  23136620.071    23136620.3914   23136633.1854
 80  9  1 19 15 25.0000000  0  7 24  6  4  9  7  5 30               -0.000000106
   -141401.661 9   -107600.93049  20161678.986    20161678.7604   20161687.5584
   -757209.970 8   -574418.67445  24862281.917    24862281.3114   24862302.5104
    884481.759 9    681775.66148  21573238.076    21573238.1984   21573246.1714
    885932.140 9    677986.85047  22604370.104    22604369.9104   22604383.3704
    664559.317 8    512273.05645  24294110.751    24294109.8974   24294121.9004
   -688715.054 9   -528784.30848  20671582.561    20671582.0314   20671590.9374
   -844451.946 9   -638679.69446  23136013.816    23136014.1214   23136026.9174
 80  9  1 19 15 26.0000000  0  7 24  6  4  9  7  5 30               -0.000000106
   -141250.766 9   -107483.34849  20161707.686    20161707.4704   20161716.2534
   -759607.090 8   -576286.55445  24861825.744    24861825.1474   24861846.3334
    887095.034 9    683811.97748  21573735.348    21573735.4644   21573743.4364
    888557.205 9    680032.34847  22604869.652    22604869.4644   22604882.9244
    666823.250 8    514037.14845  24294541.571    24294540.7094   24294552.7214
   -690250.367 9   -529980.65248  20671290.412    20671289.8744   20671298.7904
   -847637.780 9   -641162.15746  23135407.579    23135407.8814   23135420.6784
 80  9  1 19 15 27.0000000  0  7 24  6  4  9  7  5 30               -0.000000106
   -141099.128 9   -107365.18949  20161736.558    20161736.3404   20161745.1324
   -762004.010 8   -578154.27645  24861369.646    24861369.0324   24861390.2254
    889708.833 9    685848.69948  21574232.742    21574232.8494   21574240.8294
    891182.757 9    682078.22647  22605369.282    22605369.0984   22605382.5644
    669087.385 8    515801.40545  24294972.428    24294971.5514   24294983.5564
   -691785.044 9   -531176.50548  20670998.364    20670997.8264   20671006.7344
   -850823.306 9   -643644.37746  23134801.392    23134801.7004   23134814.4844
 80  9  1 19 15 28.0000000  0  7 24  6  4  9  7  5 30               -0.000000106
   -140947.062 9   -107246.69649  20161765.497    20161765.2804   20161774.0744
   -764401.029 8   -580022.07445  24860913.493    24860912.8784   24860934.0654
    892322.865 9    687885.60648  21574730.185    21574730.3054   21574738.2694
    893808.487 9    684124.24047  22605868.921    22605868.7424   22605882.2144
    671351.377 8    517565.54745  24295403.263    24295402.3834   24295414.3864
   -693319.397 9   -532372.10548  20670706.408    20670705.8684   20670714.7684
   -854008.826 9   -646126.59946  23134195.199    23134195.5104   23134208.2824
 80  9  1 19 15 29.0000000  0  7 24  6  4  9  7  5 30               -0.000000106
   -140794.334 9   -107127.68749  20161794.564    20161794.3504   20161803.1394
   -766797.917 8   -581889.77245  24860457.390    24860456.7844   24860477.9494
    894937.329 9    689922.85548  21575227.706    21575227.8214   21575235.7894
    896434.631 9    686170.58247  22606368.659    22606368.4864   22606381.9584
    673615.487 8    519329.78145  24295834.141    24295833.2544   24295845.2594
   -694853.201 9   -533567.27648  20670414.532    20670413.9904   20670422.8914
   -857194.117 9   -648608.63546  23133589.056    23133589.3694   23133602.1264
 80  9  1 19 15 30.0000000  0  7 24  6  4  9  7  5 30               -0.000000106
   -140641.006 9   -107008.20849  20161823.730    20161823.5204   20161832.3074
   -769194.728 8   -583757.41245  24860001.287    24860000.6904   24860021.8384
    897552.213 9    691960.42448  21575725.308    21575725.4264   21575733.3974
    899061.139 9    688217.20147  22606868.493    22606868.3204   22606881.7854
    675879.703 8    521094.10145  24296264.996    24296264.1064   24296276.0934
   -696386.501 9   -534762.05548  20670122.745    20670122.2024   20670131.0944
   -860379.215 9   -651090.52246  23132982.960    23132983.2794   23132996.0274
 80  9  1 19 15 31.0000000  0  7 24  6  4  9  7  5 30               -0.000000106
   -140487.114 9   -106888.29249  20161853.015    20161852.8004   20161861.5914
   -771591.526 8   -585625.04245  24859545.181    24859544.5854   24859565.7254
    900167.404 9    693998.23648  21576222.946    21576223.0614   21576231.0364
    901687.939 9    690264.05847  22607368.348    22607368.1744   22607381.6534
    678143.860 8    522858.36845  24296695.893    24296694.9884   24296706.9844
   -697919.363 9   -535956.49348  20669831.055    20669830.5144   20669839.3994
   -863564.198 9   -653572.33146  23132376.877    23132377.1984   23132389.9284
 80  9  1 19 15 32.0000000  0  7 24  6  4  9  7  5 30               -0.000000106
   -140332.679 9   -106767.95249  20161882.399    20161882.1894   20161890.9654
   -773988.308 8   -587492.65745  24859089.104    24859088.5114   24859109.6444
    902782.911 9    696036.29648  21576720.668    21576720.7874   21576728.7484
    904315.034 9    692311.13547  22607868.275    22607868.0984   22607881.5794
    680408.040 8    524622.66245  24297126.738    24297125.8294   24297137.8114
   -699451.794 9   -537150.59348  20669539.474    20669538.9264   20669547.8104
   -866749.053 9   -656054.03246  23131770.817    23131771.1284   23131783.8614
 80  9  1 19 15 33.0000000  0  7 24  6  4  9  7  5 30               -0.000000106
   -140177.657 9   -106647.15449  20161911.917    20161911.7094   20161920.4854
   -776385.058 8   -589360.24845  24858633.003    24858632.4174   24858653.5324
    905398.773 9    698074.62748  21577218.447    21577218.5624   21577226.5344
    906942.441 9    694358.46247  22608368.271    22608368.0924   22608381.5774
    682672.252 8    526386.97545  24297557.626    24297556.7114   24297568.6894
   -700983.767 9   -538344.33848  20669247.946    20669247.3974   20669256.2704
   -869933.757 9   -658535.60546  23131164.792    23131165.0984   23131177.8314
 80  9  1 19 15 34.0000000  0  7 24  6  4  9  7  5 30               -0.000000106
   -140022.241 9   -106526.04849  20161941.467    20161941.2584   20161950.0464
   -778781.929 8   -591227.93445  24858176.877    24858176.2834   24858197.3934
    908014.841 9    700113.12348  21577716.292    21577716.4084   21577724.3804
    909570.007 9    696405.90747  22608868.281    22608868.0874   22608881.5944
    684936.306 8    528151.16745  24297988.476    24297987.5624   24297999.5314
   -702515.448 9   -539537.85348  20668956.484    20668955.9394   20668964.8044
   -873118.483 9   -661017.20846  23130558.779    23130559.0774   23130571.8174
 80  9  1 19 15 35.0000000  0  7 24  6  4  9  7  5 30               -0.000000106
   -139866.342 9   -106404.56749  20161971.138    20161970.9284   20161979.6994
   -781178.862 8   -593095.66945  24857720.756    24857720.1684   24857741.2604
    910631.180 9    702151.82948  21578214.161    21578214.2734   21578222.2454
    912197.802 9    698453.52947  22609368.345    22609368.1504   22609381.6494
    687200.301 8    529915.31445  24298419.323    24298418.4144   24298430.3674
   -704046.772 9   -540731.09348  20668665.077    20668664.5314   20668673.3924
   -876303.144 9   -663498.75746  23129952.755    23129953.0474   23129965.7954
 80  9  1 19 15 36.0000000  0  7 24  6  4  9  7  5 30               -0.000000106
   -139709.690 9   -106282.49949  20162000.970    20162000.7574   20162009.5304
   -783575.588 8   -594963.24345  24857264.682    24857264.0944   24857285.1794
    913248.032 9    704190.93448  21578712.120    21578712.2384   21578720.2054
    914826.101 9    700501.55247  22609868.478    22609868.2844   22609881.7934
    689464.527 8    531679.64145  24298850.208    24298849.3054   24298861.2364
   -705577.468 9   -541923.84548  20668373.799    20668373.2534   20668382.1094
   -879487.467 9   -665980.04146  23129346.793    23129347.0864   23129359.8294
 80  9  1 19 15 37.0000000  0  7 24  6  4  9  7  5 30               -0.000000106
   -139552.449 9   -106159.97349  20162030.892    20162030.6774   20162039.4574
   -785972.314 8   -596830.81945  24856808.605    24856808.0204   24856829.0944
    915865.271 9    706230.34148  21579210.166    21579210.2834   21579218.2574
    917454.738 9    702549.83347  22610368.718    22610368.5174   22610382.0224
    691728.772 8    533443.98345  24299281.070    24299280.1774   24299292.0864
   -707107.706 9   -543116.23848  20668082.603    20668082.0544   20668090.9104
   -882671.639 9   -668461.20246  23128740.877    23128741.1664   23128753.9014
 80  9  1 19 15 38.0000000  0  7 24  6  4  9  7  5 30               -0.000000106
   -139394.713 9   -106037.06249  20162060.899    20162060.6864   20162069.4664
   -788369.046 8   -598698.39445  24856352.498    24856351.9164   24856372.9824
    918482.789 9    708269.96348  21579708.285    21579708.3994   21579716.3834
    920083.632 9    704598.31647  22610868.971    22610868.7714   22610882.2804
    693993.018 8    535208.32445  24299711.976    24299711.0894   24299722.9734
   -708637.563 9   -544308.33148  20667791.492    20667790.9464   20667799.7914
   -885855.716 9   -670942.29446  23128134.964    23128135.2464   23128147.9874
 80  9  1 19 15 39.0000000  0  7 24  6  4  9  7  5 30               -0.000000106
   -139236.279 9   -105913.60849  20162091.036    20162090.8154   20162099.5884
   -790765.650 8   -600565.87345  24855896.453    24855895.8714   24855916.9314
    921100.775 9    710309.95148  21580206.483    21580206.6034   21580214.5754
    922712.980 9    706647.14747  22611369.336    22611369.1254   22611382.6424
    696257.414 8    536972.78245  24300142.887    24300142.0114   24300153.8744
   -710166.841 9   -545499.97548  20667500.496    20667499.9474   20667508.7874
   -889039.493 9   -673423.15746  23127529.110    23127529.3854   23127542.1244
 80  9  1 19 15 40.0000000  0  7 24  6  4  9  7  5 30               -0.000000106
   -139077.123 9   -105789.59149  20162121.323    20162121.1044   20162129.8764
   -793162.051 8   -602433.19445  24855440.414    24855439.8574   24855460.8844
    923719.290 9    712350.35248  21580704.754    21580704.8794   21580712.8494
    925342.842 9    708696.38447  22611869.794    22611869.5684   22611883.0984
    698522.027 8    538737.41145  24300573.826    24300572.9434   24300584.8104
   -711695.509 9   -546691.14548  20667209.596    20667209.0494   20667217.8894
   -892222.961 9   -675903.78246  23126923.319    23126923.5944   23126936.3364
 80  9  1 19 15 41.0000000  0  7 24  6  4  9  7  5 30               -0.000000106
   -138917.301 9   -105665.05349  20162151.738    20162151.5234   20162160.2934
   -795558.307 8   -604300.40245  24854984.420    24854983.8534   24855004.8914
    926338.255 9    714391.10048  21581203.134    21581203.2544   21581211.2234
    927973.122 9    710745.94447  22612370.327    22612370.1124   22612383.6274
    700786.768 8    540502.13745  24301004.804    24301003.9154   24301015.7814
   -713223.633 9   -547881.89448  20666918.808    20666918.2604   20666927.0944
   -895406.173 9   -678384.20346  23126317.557    23126317.8244   23126330.5684
 80  9  1 19 15 42.0000000  0  7 24  6  4  9  7  5 30               -0.000000106
   -138757.404 9   -105540.45549  20162182.177    20162181.9524   20162190.7274
   -797955.051 8   -606167.99045  24854528.318    24854527.7684   24854548.7874
    928957.093 9    716431.75248  21581701.480    21581701.5994   21581709.5774
    930603.258 9    712795.39947  22612870.830    22612870.6054   22612884.1334
    703051.051 8    542266.51045  24301435.723    24301434.8174   24301446.7044
   -714751.782 9   -549072.65548  20666627.996    20666627.4414   20666636.2724
   -898589.701 9   -680864.86546  23125711.760    23125712.0234   23125724.7544
 80  9  1 19 15 43.0000000  0  7 24  6  4  9  7  5 30               -0.000000106
   -138596.672 9   -105415.20849  20162212.780    20162212.5614   20162221.3284
   -800351.504 8   -608035.34845  24854072.274    24854071.7344   24854092.7474
    931576.574 9    718472.90848  21582199.953    21582200.0744   21582208.0464
    933234.007 9    714845.32847  22613371.441    22613371.2194   22613384.7524
    705315.687 8    544031.15445  24301866.678    24301865.7584   24301877.6494
   -716279.223 9   -550262.86848  20666337.344    20666336.7934   20666345.6174
   -901772.811 9   -683345.20346  23125106.054    23125106.3024   23125119.0374
 80  9  1 19 15 44.0000000  0  7 24  6  4  9  7  5 30               -0.000000106
   -138435.476 9   -105289.60149  20162243.456    20162243.2294   20162252.0144
   -802747.990 8   -609902.73345  24853616.231    24853615.7004   24853636.7064
    934196.294 9    720514.24948  21582698.466    21582698.5784   21582706.5624
    935864.994 9    716895.43647  22613872.110    22613871.8824   22613885.4284
    707580.251 8    545795.74345  24302297.604    24302296.6804   24302308.5724
   -717806.311 9   -551452.80748  20666046.758    20666046.2044   20666055.0344
   -904955.843 9   -685825.47546  23124500.347    23124500.5924   23124513.3214
 80  9  1 19 15 45.0000000  0  7 24  6  4  9  7  5 30               -0.000000106
   -138273.785 9   -105163.60549  20162274.215    20162273.9884   20162282.7594
   -805144.517 8   -611770.15045  24853160.181    24853159.6464   24853180.6714
    936816.276 9    722555.79648  21583197.056    21583197.1734   21583205.1524
    938496.247 9    718945.75647  22614372.819    22614372.5964   22614386.1364
    709844.778 8    547560.30645  24302728.559    24302727.6124   24302739.5294
   -719333.029 9   -552642.45548  20665756.221    20665755.6654   20665764.4844
   -908138.797 9   -688305.69146  23123894.635    23123894.8714   23123907.6014
 80  9  1 19 15 46.0000000  0  7 24  6  4  9  7  5 30               -0.000000106
   -138111.378 9   -105037.05349  20162305.113    20162304.8774   20162313.6544
   -807540.854 8   -613637.42245  24852704.178    24852703.6524   24852724.6834
    939436.792 9    724597.75248  21583695.730    21583695.8484   21583703.8224
    941128.014 9    720996.47647  22614873.647    22614873.4194   22614886.9724
    712109.522 8    549325.03945  24303159.551    24303158.6034   24303170.5274
   -720859.150 9   -553831.63748  20665465.833    20665465.2764   20665474.0914
   -911321.411 9   -690785.64946  23123289.032    23123289.2604   23123301.9824
 80  9  1 19 15 47.0000000  0  7 24  6  4  9  7  5 30               -0.000000106
   -137948.447 9   -104910.09549  20162336.139    20162335.9054   20162344.6784
   -809937.220 8   -615504.71645  24852248.135    24852247.6074   24852268.6584
    942057.614 9    726639.94948  21584194.430    21584194.5534   21584202.5264
    943760.069 9    723047.42247  22615374.501    22615374.2724   22615387.8244
    714374.267 8    551089.76645  24303590.531    24303589.5754   24303601.5154
   -722384.853 9   -555020.49748  20665175.476    20665174.9174   20665183.7364
   -914503.905 9   -693265.51246  23122683.427    23122683.6494   23122696.3684
 80  9  1 19 15 48.0000000  0  7 24  6  4  9  7  5 30               -0.000000106
   -137784.913 9   -104782.66449  20162367.248    20162367.0044   20162375.7884
   -812333.534 8   -617371.96745  24851792.140    24851791.6234   24851812.6694
    944678.821 9    728682.44648  21584693.257    21584693.3774   21584701.3524
    946392.489 9    725098.65247  22615875.429    22615875.2054   22615888.7544
    716639.098 8    552854.56845  24304021.500    24304020.5464   24304032.4954
   -723910.074 9   -556208.98148  20664885.254    20664884.6984   20664893.5014
   -917686.191 9   -695745.20846  23122077.863    23122078.0794   23122090.7984
 80  9  1 19 15 49.0000000  0  7 24  6  4  9  7  5 30               -0.000000106
   -137620.922 9   -104654.87749  20162398.467    20162398.2224   20162407.0114
   -814729.875 8   -619239.24145  24851336.116    24851335.6094   24851356.6534
    947300.284 9    730725.14748  21585192.093    21585192.2124   21585200.1924
    949025.181 9    727150.09347  22616376.415    22616376.1884   22616389.7414
    718903.898 8    554619.34345  24304452.496    24304451.5374   24304463.5044
   -725434.913 9   -557397.16748  20664595.088    20664594.5194   20664603.3314
   -920868.377 9   -698224.83546  23121472.300    23121472.5184   23121485.2154
 80  9  1 19 15 50.0000000  0  7 24  6  4  9  7  5 30               -0.000000106
   -137456.305 9   -104526.60149  20162429.798    20162429.5514   20162438.3324
   -817126.142 8   -621106.45645  24850880.129    24850879.6254   24850900.6784
    949922.137 9    732768.15048  21585691.009    21585691.1174   21585699.1124
    951658.261 9    729201.83547  22616877.499    22616877.2714   22616890.8264
    721168.805 8    556384.20045  24304883.499    24304882.5494   24304894.5034
   -726959.257 9   -558584.96848  20664305.007    20664304.4504   20664313.2544
   -924050.337 9   -700704.27946  23120866.810    23120867.0174   23120879.7044
 80  9  1 19 15 51.0000000  0  7 24  6  4  9  7  5 30               -0.000000106
   -137291.177 9   -104397.93149  20162461.201    20162460.9494   20162469.7364
   -819522.392 8   -622973.65545  24850424.108    24850423.6004   24850444.6734
    952544.321 9    734811.41148  21586190.000    21586190.1214   21586198.1004
    954291.638 9    731253.80947  22617378.616    22617378.3954   22617391.9474
    723433.735 8    558149.07345  24305314.510    24305313.5704   24305325.5164
   -728483.177 9   -559772.43648  20664015.006    20664014.4404   20664023.2504
   -927232.173 9   -703183.62346  23120261.321    23120261.5264   23120274.1994
 80  9  1 19 15 52.0000000  0  7 24  6  4  9  7  5 30               -0.000000106
   -137125.415 9   -104268.76749  20162492.754    20162492.5074   20162501.2814
   -821918.525 8   -624840.76545  24849968.128    24849967.6164   24849988.6914
    955166.954 9    736855.01448  21586689.090    21586689.2064   21586697.1964
    956925.456 9    733306.12547  22617879.823    22617879.5974   22617893.1534
    725698.840 8    559914.08045  24305745.583    24305744.6434   24305756.5964
   -730006.567 9   -560959.49448  20663725.140    20663724.5814   20663733.3794
   -930413.730 9   -705662.75146  23119655.886    23119656.0954   23119668.7624
 80  9  1 19 15 53.0000000  0  7 24  6  4  9  7  5 30               -0.000000106
   -136959.207 9   -104139.25349  20162524.373    20162524.1154   20162532.8954
   -824314.795 8   -626707.98245  24849512.140    24849511.6314   24849532.7274
    957789.797 9    738898.79148  21587188.190    21587188.3104   21587196.2834
    959559.466 9    735358.60447  22618381.041    22618380.8204   22618394.3724
    727963.867 8    561679.03245  24306176.603    24306175.6644   24306187.6274
   -731529.625 9   -562146.29148  20663435.287    20663434.7324   20663443.5254
   -933595.250 9   -708141.84546  23119050.462    23119050.6544   23119063.3324
 80  9  1 19 15 54.0000000  0  7 24  6  4  9  7  5 30               -0.000000106
   -136792.384 9   -104009.26049  20162556.127    20162555.8734   20162564.6564
   -826710.958 8   -628575.11745  24849056.162    24849055.6574   24849076.7474
    960413.029 9    740942.86548  21587687.378    21587687.4854   21587695.4734
    962193.867 9    737411.37547  22618882.371    22618882.1634   22618895.7024
    730228.980 8    563444.04645  24306607.644    24306606.6954   24306618.6694
   -733052.194 9   -563332.70648  20663145.570    20663145.0024   20663153.8074
   -936776.546 9   -710620.77046  23118445.083    23118445.2744   23118457.9424
 80  9  1 19 15 55.0000000  0  7 24  6  4  9  7  5 30               -0.000000106
   -136624.972 9   -103878.80849  20162588.002    20162587.7414   20162596.5344
   -829107.037 8   -630442.18345  24848600.187    24848599.6824   24848620.7764
    963036.657 9    742987.25348  21588186.623    21588186.7394   21588194.7234
    964828.662 9    739464.45147  22619383.755    22619383.5464   22619397.0804
    732494.211 8    565209.15745  24307038.701    24307037.7574   24307049.7374
   -734574.265 9   -564518.73548  20662855.932    20662855.3634   20662864.1744
   -939957.613 9   -713099.51746  23117839.751    23117839.9434   23117852.6084
 80  9  1 19 15 56.0000000  0  7 24  6  4  9  7  5 30               -0.000000106
   -136457.088 9   -103747.98949  20162619.923    20162619.6594   20162628.4564
   -831503.235 8   -632309.34045  24848144.214    24848143.7184   24848164.8164
    965660.527 9    745031.82848  21588685.933    21588686.0434   21588694.0344
    967463.684 9    741517.70847  22619885.183    22619884.9894   22619898.5124
    734759.417 8    566974.24945  24307469.777    24307468.8394   24307480.8214
   -736095.994 9   -565704.49948  20662566.332    20662565.7734   20662574.5814
   -943138.627 9   -715578.22746  23117234.426    23117234.6024   23117247.2974
 80  9  1 19 15 57.0000000  0  7 24  6  4  9  7  5 30               -0.000000106
   -136288.683 9   -103616.76149  20162651.981    20162651.7174   20162660.5024
   -833899.409 8   -634176.48345  24847688.213    24847687.7244   24847708.8184
    968284.703 9    747076.63948  21589185.315    21589185.4284   21589193.4164
    970099.017 9    743571.20947  22620386.669    22620386.4724   22620399.9964
    737024.630 8    568739.34545  24307900.840    24307899.9014   24307911.8664
   -737617.309 9   -566889.93648  20662276.838    20662276.2744   20662285.0854
   -946319.500 9   -718056.82146  23116629.135    23116629.3114   23116641.9994
 80  9  1 19 15 58.0000000  0  7 24  6  4  9  7  5 30               -0.000000105
   -136119.812 9   -103485.17349  20162684.133    20162683.8744   20162692.6584
   -836295.662 8   -636043.68945  24847232.236    24847231.7504   24847252.8524
    970909.135 9    749121.65048  21589684.725    21589684.8424   21589692.8264
    972734.608 9    745624.90447  22620888.216    22620888.0254   22620901.5354
    739289.850 8    570504.44945  24308331.914    24308330.9814   24308342.9294
   -739138.255 9   -568075.08748  20661987.422    20661986.8644   20661995.6684
   -949500.286 9   -720535.35446  23116023.854    23116024.0394   23116036.7074
 80  9  1 19 15 59.0000000  0  7 24  6  4  9  7  5 30               -0.000000105
   -135950.212 9   -103353.01749  20162716.401    20162716.1324   20162724.9364
   -838691.752 8   -637910.76445  24846776.262    24846775.7764   24846796.8824
    973534.052 9    751167.03948  21590184.231    21590184.3564   21590192.3324
    975370.682 9    747678.98547  22621389.858    22621389.6674   22621403.1824
    741555.252 8    572269.69345  24308762.998    24308762.0734   24308773.9924
   -740658.601 9   -569259.77248  20661698.095    20661697.5354   20661706.3394
   -952680.739 9   -723013.62846  23115418.653    23115418.8384   23115431.4914
 80  9  1 19 16  0.0000000  0  7 24  6  4  9  7  5 30               -0.000000105
   -135780.176 9   -103220.52149  20162748.739    20162748.4804   20162757.2764
   -841087.951 8   -639777.92845  24846320.264    24846319.7714   24846340.8984
    976159.191 9    753212.60348  21590683.772    21590683.8904   21590691.8824
    978006.957 9    749733.22147  22621891.532    22621891.3404   22621904.8604
    743820.593 8    574034.88745  24309194.080    24309193.1654   24309205.0484
   -742178.629 9   -570444.20848  20661408.849    20661408.2854   20661417.0974
   -955861.153 9   -725491.87046  23114813.416    23114813.6074   23114826.2454
 80  9  1 19 16  1.0000000  0  7 24  6  4  9  7  5 30               -0.000000105
   -135609.489 9   -103087.51949  20162781.239    20162780.9774   20162789.7734
   -843484.039 8   -641645.00245  24845864.307    24845863.8074   24845884.9424
    978784.742 9    755258.48448  21591183.410    21591183.5344   21591191.5224
    980643.652 9    751787.78147  22622393.261    22622393.0734   22622406.5794
    746086.113 8    575800.22145  24309625.215    24309624.3074   24309636.1714
   -743698.125 9   -571628.22948  20661119.701    20661119.1454   20661127.9524
   -959041.318 9   -727969.91246  23114208.266    23114208.4474   23114221.0934
 80  9  1 19 16  2.0000000  0  7 24  6  4  9  7  5 30               -0.000000105
   -135438.277 9   -102954.10549  20162813.819    20162813.5554   20162822.3614
   -845880.132 8   -643512.08145  24845408.345    24845407.8434   24845428.9834
    981410.608 9    757304.61048  21591683.094    21591683.2194   21591691.2004
    983280.647 9    753842.57347  22622895.070    22622894.8854   22622908.3834
    748351.641 8    577565.56645  24310056.326    24310055.4184   24310067.2604
   -745217.210 9   -572811.92948  20660830.606    20660830.0454   20660838.8584
   -962221.333 9   -730447.83946  23113603.131    23113603.3254   23113615.9484
 80  9  1 19 16  3.0000000  0  7 24  6  4  9  7  5 30               -0.000000105
   -135266.461 9   -102820.22149  20162846.510    20162846.2524   20162855.0584
   -848276.176 8   -645379.12145  24844952.396    24844951.8884   24844973.0484
    984036.841 9    759351.02548  21592182.839    21592182.9634   21592190.9504
    985917.995 9    755897.64547  22623396.947    22623396.7684   22623410.2584
    750617.267 8    579330.98745  24310487.457    24310486.5314   24310498.3864
   -746735.808 9   -573995.24848  20660541.629    20660541.0654   20660549.8794
   -965401.142 9   -732925.60546  23112998.027    23112998.2054   23113010.8374
 80  9  1 19 16  4.0000000  0  7 24  6  4  9  7  5 30               -0.000000105
   -135094.067 9   -102685.88949  20162879.314    20162879.0594   20162887.8584
   -850672.162 8   -647246.11745  24844496.443    24844495.9344   24844517.1054
    986663.443 9    761397.72548  21592682.680    21592682.8074   21592690.7934
    988555.691 9    757952.97947  22623898.888    22623898.7104   22623912.1994
    752882.977 8    581096.46645  24310918.609    24310917.6724   24310929.5354
   -748253.943 9   -575178.21448  20660252.748    20660252.1854   20660261.0024
   -968580.743 9   -735403.22346  23112392.965    23112393.1444   23112405.7644
 80  9  1 19 16  5.0000000  0  7 24  6  4  9  7  5 30               -0.000000105
   -134921.144 9   -102551.14349  20162912.194    20162911.9374   20162920.7434
   -853068.171 8   -649113.12945  24844040.490    24844039.9794   24844061.1484
    989290.325 9    763444.64948  21593182.560    21593182.6714   21593190.6704
    991193.658 9    760008.53647  22624400.908    22624400.7234   22624414.2104
    755148.706 8    582861.96145  24311349.767    24311348.8244   24311360.6814
   -749771.686 9   -576360.87048  20659963.904    20659963.3454   20659972.1584
   -971760.211 9   -737880.72346  23111787.938    23111788.1034   23111800.7364
 80  9  1 19 16  6.0000000  0  7 24  6  4  9  7  5 30               -0.000000105
   -134747.704 9   -102415.99349  20162945.214    20162944.9544   20162953.7724
   -855464.183 8   -650980.14545  24843584.542    24843584.0454   24843605.2004
    991917.503 9    765491.80248  21593682.485    21593682.5954   21593690.6014
    993831.913 9    762064.31347  22624902.961    22624902.7754   22624916.2644
    757414.454 8    584627.47845  24311780.950    24311780.0054   24311791.8714
   -751289.021 9   -577543.20648  20659675.166    20659674.6054   20659683.4264
   -974939.561 9   -740358.11846  23111182.902    23111183.0614   23111195.7074
 80  9  1 19 16  7.0000000  0  6 24  6  9  7  5 30                  -0.000000106
   -134573.889 9   -102280.55349  20162978.287    20162978.0314   20162986.8434
   -857860.373 8   -652847.30145  24843128.565    24843128.0704   24843149.2224
    996470.299 9    764120.19347  22625405.041    22625404.8574   22625418.3474
    759680.046 8    586392.86745  24312212.070    24312211.1174   24312222.9744
   -752806.121 9   -578725.36048  20659386.460    20659385.9054   20659394.7174
   -978118.939 9   -742835.55146  23110577.881    23110578.0504   23110590.6944
 80  9  1 19 16  8.0000000  0  6 24  6  9  7  5 30                  -0.000000105
   -134399.271 9   -102144.48649  20163011.510    20163011.2684   20163020.0724
   -860256.272 8   -654714.22845  24842672.646    24842672.1564   24842693.2934
    999109.235 9    766176.49547  22625907.197    22625907.0104   22625920.4954
    761945.952 8    588158.50345  24312643.264    24312642.3094   24312654.1584
   -754322.541 9   -579906.98548  20659097.912    20659097.3554   20659106.1704
   -981297.911 9   -745312.66446  23109972.939    23109973.1094   23109985.7464
 80  9  1 19 16  9.0000000  0  6 24  6  9  7  5 30                  -0.000000105
   -134224.123 9   -102008.00749  20163044.838    20163044.5954   20163053.4074
   -862652.209 8   -656581.18545  24842216.697    24842216.1924   24842237.3434
   1001748.472 9    768233.03947  22626409.440    22626409.2534   22626422.7274
    764211.877 8    589924.15245  24313074.437    24313073.4614   24313085.3294
   -755838.547 9   -581088.28748  20658809.429    20658808.8744   20658817.6974
   -984476.739 9   -747789.67046  23109368.020    23109368.1884   23109380.8234
 80  9  1 19 16 10.0000000  0  6 24  6  9  7  5 30                  -0.000000105
   -134048.467 9   -101871.13049  20163078.247    20163078.0024   20163086.8274
   -865048.170 8   -658448.16145  24841760.773    24841760.2674   24841781.4104
   1004387.985 9    770289.79847  22626911.734    22626911.5444   22626925.0114
    766477.811 8    591689.80245  24313505.647    24313504.6624   24313516.5284
   -757354.183 9   -582269.30148  20658521.000    20658520.4444   20658529.2704
   -987655.470 9   -750266.60346  23108763.130    23108763.2974   23108775.9324
 80  9  1 19 16 11.0000000  0  6 24  6  9  7  5 30                  -0.000000105
   -133872.231 9   -101733.80449  20163111.789    20163111.5484   20163120.3694
   -867444.081 8   -660315.10045  24841304.837    24841304.3334   24841325.4654
   1007027.828 9    772346.81147  22627414.092    22627413.9074   22627427.3724
    768743.827 8    593455.52245  24313936.840    24313935.8434   24313947.7074
   -758869.370 9   -583449.96648  20658232.672    20658232.1144   20658240.9454
   -990834.030 9   -752743.40246  23108158.256    23108158.4354   23108171.0604
 80  9  1 19 16 12.0000000  0  6 24  6  9  7  5 30                  -0.000000105
   -133695.498 9   -101596.09049  20163145.409    20163145.1754   20163153.9964
   -869840.039 8   -662182.07645  24840848.901    24840848.3994   24840869.5294
   1009667.912 9    774404.01047  22627916.508    22627916.3194   22627929.7914
    771009.835 8    595221.23745  24314368.057    24314367.0734   24314378.9134
   -760384.201 9   -584630.35048  20657944.396    20657943.8434   20657952.6694
   -994012.505 9   -755220.12346  23107553.424    23107553.6134   23107566.2324
 80  9  1 19 16 13.0000000  0  6 24  6  9  7  5 30                  -0.000000105
   -133518.176 9   -101457.91649  20163179.170    20163178.9424   20163187.7614
   -872235.968 8   -664049.02945  24840392.967    24840392.4544   24840413.5974
   1012308.355 9    776461.49147  22628418.963    22628418.7814   22628432.2414
    773275.956 8    596987.04145  24314799.288    24314798.3144   24314810.1604
   -761898.587 9   -585810.39048  20657656.212    20657655.6534   20657664.4884
   -997190.799 9   -757696.71146  23106948.593    23106948.7834   23106961.3954
 80  9  1 19 16 14.0000000  0  6 24  6  9  7  5 30                  -0.000000105
   -133340.096 9   -101319.15249  20163213.038    20163212.8184   20163221.6334
   -874631.633 8   -665915.77445  24839937.100    24839936.5904   24839957.7314
   1014949.306 9    778519.36547  22628921.541    22628921.3534   22628934.8064
    775542.328 8    598753.03845  24315230.564    24315229.6064   24315241.4314
   -763412.345 9   -586989.93948  20657368.156    20657367.6024   20657376.4344
  -1000368.746 9   -760173.02446  23106343.853    23106344.0414   23106356.6564
 80  9  1 19 16 15.0000000  0  6 24  6  9  7  5 30                  -0.000000105
   -133162.007 9   -101180.37749  20163246.919    20163246.7054   20163255.5204
   -877027.868 8   -667782.96845  24839481.104    24839480.5864   24839501.7234
   1017590.027 9    780577.06447  22629424.034    22629423.8454   22629437.2974
    777808.201 8    600518.65045  24315661.742    24315660.7874   24315672.6274
   -764926.220 9   -588169.57948  20657080.071    20657079.5124   20657088.3584
  -1003547.103 9   -762649.66346  23105739.020    23105739.2204   23105751.8284
 80  9  1 19 16 16.0000000  0  6 24  6  9  7  5 30                  -0.000000104
   -132982.867 9   -101040.79149  20163281.008    20163280.7814   20163289.6084
   -879423.624 8   -669649.78745  24839025.188    24839024.6714   24839045.8134
   1020231.545 9    782635.37847  22629926.721    22629926.5384   22629939.9844
    780074.617 8    602284.68745  24316093.021    24316092.0894   24316103.9174
   -766439.203 9   -589348.52948  20656792.151    20656791.5914   20656800.4334
  -1006724.823 9   -765125.80146  23105134.319    23105134.5194   23105147.1304
 80  9  1 19 16 17.0000000  0  6 24  6  9  7  5 30                  -0.000000104
   -132803.121 9   -100900.72849  20163315.218    20163315.0074   20163323.8294
   -881819.294 8   -671516.53945  24838569.300    24838568.7774   24838589.9194
   1022873.423 9    784693.97647  22630429.450    22630429.2594   22630442.7144
    782341.128 8    604050.79445  24316524.336    24316523.4204   24316535.2334
   -767951.702 9   -590527.10148  20656504.332    20656503.7804   20656512.6214
  -1009902.350 9   -767601.78646  23104529.634    23104529.8374   23104542.4564
 80  9  1 19 16 18.0000000  0  6 24  6  9  7  5 30                  -0.000000104
   -132622.885 9   -100760.28349  20163349.508    20163349.2944   20163358.1204
   -884215.017 8   -673383.33345  24838113.400    24838112.8734   24838134.0214
   1025515.558 9    786752.77347  22630932.262    22630932.0714   22630945.5204
    784607.653 8    605816.91245  24316955.651    24316954.7514   24316966.5584
   -769463.838 9   -591705.38748  20656216.574    20656216.0204   20656224.8804
  -1013079.779 9   -770077.70146  23103924.986    23103925.2054   23103937.8204
 80  9  1 19 16 19.0000000  0  6 24  6  9  7  5 30                  -0.000000104
   -132442.171 9   -100619.46649  20163383.918    20163383.7104   20163392.5404
   -886610.823 8   -675250.18845  24837657.508    24837656.9784   24837678.1344
   1028157.919 9    788811.75047  22631435.085    22631434.8934   22631448.3394
    786874.150 8    607583.00845  24317386.931    24317386.0434   24317397.8504
   -770975.656 9   -592883.42448  20655928.863    20655928.3094   20655937.1624
  -1016257.165 9   -772553.57846  23103320.340    23103320.5544   23103333.1714
 80  9  1 19 16 20.0000000  0  6 24  6  9  7  5 30                  -0.000000104
   -132260.841 9   -100478.16849  20163418.412    20163418.2064   20163427.0364
   -889006.559 8   -677116.99045  24837201.596    24837201.0644   24837222.2304
   1030800.641 9    790871.00647  22631937.992    22631937.7954   22631951.2414
    789140.791 8    609349.22445  24317818.281    24317817.4054   24317829.2164
   -772486.987 9   -594061.08648  20655641.261    20655640.7084   20655649.5724
  -1019434.329 9   -775029.29246  23102715.730    23102715.9434   23102728.5594
 80  9  1 19 16 21.0000000  0  6 24  6  9  7  5 30                  -0.000000103
   -132078.992 9   -100336.46649  20163453.025    20163452.8224   20163461.6464
   -891402.358 8   -678983.83845  24836745.685    24836745.1604   24836766.3284
   1033443.613 9    792930.46347  22632440.939    22632440.7374   22632454.1884
    791407.397 8    611115.40745  24318249.583    24318248.7264   24318260.5294
   -773997.967 9   -595238.47048  20655353.726    20655353.1774   20655362.0344
  -1022611.424 9   -777504.94446  23102111.152    23102111.3624   23102123.9874
 80  9  1 19 16 22.0000000  0  6 24  6  9  7  5 30                  -0.000000103
   -131896.571 9   -100194.32049  20163487.736    20163487.5384   20163496.3634
   -893798.110 8   -680850.65245  24836289.794    24836289.2654   24836310.4414
   1036086.946 9    794990.19547  22632943.962    22632943.7594   22632957.2104
    793674.096 8    612881.65545  24318680.921    24318680.0774   24318691.8844
   -775508.527 9   -596415.52948  20655066.293    20655065.7464   20655074.6054
  -1025788.358 9   -779980.47346  23101506.607    23101506.8104   23101519.4354
 80  9  1 19 16 23.0000000  0  6 24  6  9  7  5 30                  -0.000000103
   -131713.352 9   -100051.55349  20163522.578    20163522.3844   20163531.2094
   -896193.623 8   -682717.28145  24835833.937    24835833.4114   24835854.5884
   1038730.817 9    797050.34347  22633447.086    22633446.8804   22633460.3304
    795941.078 8    614648.13345  24319112.320    24319111.4984   24319123.3104
   -777018.439 9   -597592.08548  20654778.954    20654778.4154   20654787.2684
  -1028964.904 9   -782455.70346  23100902.110    23100902.3284   23100914.9354
 80  9  1 19 16 24.0000000  0  6 24  6  9  7  5 30                  -0.000000103
   -131529.754 9    -99908.48749  20163557.526    20163557.3304   20163566.1614
   -898589.328 8   -684584.05645  24835378.038    24835377.5074   24835398.6994
   1041374.808 9    799110.59647  22633950.220    22633950.0024   22633963.4554
    798207.971 8    616414.53845  24319543.690    24319542.8904   24319554.7074
   -778528.130 9   -598768.46548  20654491.668    20654491.1234   20654499.9804
  -1032141.505 9   -784930.96846  23100297.613    23100297.8274   23100310.4344
 80  9  1 19 16 25.0000000  0  6 24  6  9  7  5 30                  -0.000000103
   -131345.614 9    -99765.00049  20163592.555    20163592.3554   20163601.1854
   -900985.054 8   -686450.84845  24834922.118    24834921.5924   24834942.7854
   1044019.103 9    801171.07347  22634453.451    22634453.2344   22634466.6734
    800474.868 8    618180.94745  24319975.051    24319974.2624   24319986.0814
   -780037.441 9   -599944.54948  20654204.460    20654203.9224   20654212.7774
  -1035317.987 9   -787406.14346  23099693.144    23099693.3754   23099705.9674
 80  9  1 19 16 26.0000000  0  6 24  6  9  7  5 30                  -0.000000102
   -131160.904 9    -99621.07049  20163627.715    20163627.5214   20163636.3464
   -903380.733 8   -688317.60345  24834466.238    24834465.7084   24834486.9094
   1046663.730 9    803231.81947  22634956.708    22634956.4854   22634969.9244
    802741.893 8    619947.45545  24320406.444    24320405.6634   24320417.5064
   -781546.329 9   -601120.30448  20653917.311    20653916.7714   20653925.6264
  -1038494.292 9   -789881.17346  23099088.719    23099088.9444   23099101.5314
 80  9  1 19 16 27.0000000  0  6 24  6  9  7  5 30                  -0.000000102
   -130975.670 9    -99476.73049  20163662.975    20163662.7774   20163671.6084
   -905776.456 8   -690184.39345  24834010.338    24834009.8134   24834031.0184
   1049308.634 9    805292.77647  22635460.033    22635459.8074   22635473.2404
    805008.907 8    621713.95345  24320837.854    24320837.0754   24320848.9344
   -783054.835 9   -602295.76048  20653630.258    20653629.7304   20653638.5774
  -1041670.479 9   -792356.11846  23098484.312    23098484.5524   23098497.1284
 80  9  1 19 16 28.0000000  0  6 24  6  9  7  5 30                  -0.000000102
   -130790.052 9    -99332.09149  20163698.302    20163698.1124   20163706.9324
   -908172.368 8   -692051.32845  24833554.401    24833553.8794   24833575.0924
   1051953.674 9    807353.83247  22635963.357    22635963.1284   22635976.5644
    807275.808 8    623480.36945  24321269.233    24321268.4474   24321280.3464
   -784563.140 9   -603471.06048  20653343.235    20653342.6984   20653351.5604
  -1044846.711 9   -794831.09646  23097879.871    23097880.1014   23097892.6844
 80  9  1 19 16 29.0000000  0  6 24  6  9  7  5 30                  -0.000000102
   -130603.714 9    -99186.89449  20163733.739    20163733.5484   20163742.3674
   -910568.109 8   -693918.13445  24833098.491    24833097.9654   24833119.1864
   1054599.171 9    809415.25247  22636466.812    22636466.5804   22636480.0154
    809542.905 8    625246.92745  24321700.644    24321699.8674   24321711.7754
   -786070.875 9   -604645.92048  20653056.329    20653055.7874   20653064.6574
  -1048022.635 9   -797305.83546  23097275.524    23097275.7604   23097288.3324
 80  9  1 19 16 30.0000000  0  6 24  6  9  7  5 30                  -0.000000101
   -130416.784 9    -99041.23449  20163769.305    20163769.1134   20163777.9404
   -912963.822 8   -695784.91545  24832642.600    24832642.0804   24832663.2974
   1057245.013 9    811476.94347  22636970.306    22636970.0714   22636983.5034
    811810.086 8    627013.55445  24322132.083    24322131.2994   24322143.2434
   -787578.168 9   -605820.43448  20652769.492    20652768.9564   20652777.8124
  -1051198.360 9   -799780.42146  23096671.201    23096671.4184   23096684.0034
 80  9  1 19 16 31.0000000  0  6 24  6  9  7  5 30                  -0.000000101
   -130229.527 9    -98895.31549  20163804.943    20163804.7584   20163813.5694
   -915359.781 8   -697651.88745  24832186.656    24832186.1264   24832207.3574
   1059890.921 9    813538.68347  22637473.806    22637473.5724   22637487.0004
    814077.085 8    628780.04145  24322563.484    24322562.6914   24322574.6644
   -789085.314 9   -606994.83348  20652482.697    20652482.1544   20652491.0234
  -1054374.198 9   -802255.09846  23096066.835    23096067.0464   23096079.6314
 80  9  1 19 16 32.0000000  0  6 24  6  9  7  5 30                  -0.000000101
   -130041.461 9    -98748.77049  20163840.748    20163840.5544   20163849.3804
   -917755.459 8   -699518.64345  24831730.790    24831730.2624   24831751.4984
   1062537.388 9    815600.85647  22637977.421    22637977.1844   22637990.6184
    816344.390 8    630546.76745  24322994.935    24322994.1334   24323006.1294
   -790591.792 9   -608168.71148  20652196.012    20652195.4834   20652204.3464
  -1057549.635 9   -804729.46546  23095462.585    23095462.7944   23095475.3814
 80  9  1 19 16 33.0000000  0  6 24  6  9  7  5 30                  -0.000000101
   -129852.909 9    -98601.84749  20163876.628    20163876.4394   20163885.2514
   -920151.228 8   -701385.46645  24831274.874    24831274.3374   24831295.5764
   1065184.092 9    817663.21647  22638481.084    22638480.8454   22638494.2814
    818611.646 8    632313.45645  24323426.373    24323425.5544   24323437.5724
   -792097.926 9   -609342.32448  20651909.400    20651908.8614   20651917.7284
  -1060724.989 9   -807203.75546  23094858.323    23094858.5234   23094871.1234
 80  9  1 19 16 34.0000000  0  6 24  6  9  7  5 30                  -0.000000101
   -129663.468 9    -98454.22949  20163912.678    20163912.4744   20163921.2974
   -922546.647 8   -703252.01745  24830819.047    24830818.5134   24830839.7434
   1067831.436 9    819726.07147  22638984.853    22638984.6064   22638998.0374
    820879.319 8    634080.46845  24323857.900    24323857.0744   24323869.0904
   -793603.343 9   -610515.37448  20651622.941    20651622.3994   20651631.2674
  -1063899.873 9   -809677.68946  23094254.170    23094254.3714   23094266.9684
 80  9  1 19 16 35.0000000  0  6 24  6  9  7  5 30                  -0.000000100
   -129473.784 9    -98306.42249  20163948.786    20163948.5794   20163957.4144
   -924942.383 8   -705118.82045  24830363.148    24830362.6084   24830383.8364
   1070478.795 9    821788.94347  22639488.652    22639488.4084   22639501.8294
    823146.715 8    635847.26245  24324289.359    24324288.5264   24324300.5574
   -795108.635 9   -611688.32848  20651336.482    20651335.9384   20651344.8034
  -1067074.897 9   -812151.72546  23093649.971    23093650.1594   23093662.7644
 80  9  1 19 16 36.0000000  0  6 24  6  9  7  5 30                  -0.000000100
   -129283.690 9    -98158.29249  20163984.956    20163984.7644   20163993.5774
   -927338.243 8   -706985.71545  24829907.201    24829906.6544   24829927.8834
   1073126.314 9    823851.94347  22639992.458    22639992.2094   22640005.6424
    825414.032 8    637613.99645  24324720.828    24324719.9784   24324732.0274
   -796613.656 9   -612861.06848  20651050.102    20651049.5664   20651058.4214
  -1070249.909 9   -814625.75546  23093045.785    23093045.9774   23093058.5804
 80  9  1 19 16 37.0000000  0  6 24  6  9  7  5 30                  -0.000000100
   -129092.914 9    -98009.63549  20164021.266    20164021.0694   20164029.8894
   -929733.983 8   -708852.52045  24829451.323    24829450.7794   24829471.9914
   1075774.254 9    825915.26247  22640496.358    22640496.1104   22640509.5274
    827681.516 8    639380.85645  24325152.315    24325151.4484   24325163.5144
   -798118.151 9   -614033.40248  20650763.812    20650763.2744   20650772.1404
  -1073424.639 9   -817099.56446  23092441.672    23092441.8564   23092454.4664
 80  9  1 19 16 38.0000000  0  6 24  6  9  7  5 30                  -0.000000100
   -128901.367 9    -97860.37849  20164057.694    20164057.4834   20164066.3134
   -932129.515 8   -710719.15945  24828995.452    24828994.9054   24829016.1164
   1078422.715 9    827978.98847  22641000.359    22641000.1124   22641013.5254
    829949.243 8    641147.91445  24325583.845    24325582.9704   24325595.0604
   -799622.010 9   -615205.24048  20650477.618    20650477.0824   20650485.9394
  -1076598.999 9   -819573.09346  23091837.597    23091837.7744   23091850.3804
 80  9  1 19 16 39.0000000  0  6 24  6  9  7  5 30                  -0.000000099
   -128709.601 9    -97710.94749  20164094.186    20164093.9784   20164102.8034
   -934525.338 8   -712586.02645  24828539.557    24828539.0104   24828560.2134
   1081071.144 9    830042.69147  22641504.336    22641504.0824   22641517.5074
    832216.713 8    642914.76745  24326015.340    24326014.4714   24326026.5594
   -801125.782 9   -616377.00848  20650191.462    20650190.9204   20650199.7924
  -1079773.533 9   -822046.74746  23091233.503    23091233.6724   23091246.2754
 80  9  1 19 16 40.0000000  0  6 24  6  9  7  5 30                  -0.000000099
   -128517.140 9    -97560.97649  20164130.816    20164130.6034   20164139.4274
   -936921.046 8   -714452.80245  24828083.661    24828083.1164   24828104.3224
   1083720.016 9    832106.74447  22642008.422    22642008.1734   22642021.5954
    834484.360 8    644681.75645  24326446.866    24326446.0014   24326458.1024
   -802629.027 9   -617548.36748  20649905.421    20649904.8784   20649913.7434
  -1082947.782 9   -824520.18346  23090629.463    23090629.6204   23090642.2324
 80  9  1 19 16 41.0000000  0  6 24  6  9  7  5 30                  -0.000000099
   -128324.032 9    -97410.50349  20164167.570    20164167.3574   20164176.1954
   -939316.620 8   -716319.47945  24827627.779    24827627.2324   24827648.4354
   1086369.295 9    834171.11047  22642512.566    22642512.3154   22642525.7454
    836752.137 8    646448.84545  24326878.389    24326877.5324   24326889.6434
   -804131.749 9   -618719.31948  20649619.449    20649618.9064   20649627.7634
  -1086121.768 9   -826993.41146  23090025.474    23090025.6284   23090038.2374
 80  9  1 19 16 42.0000000  0  6 24  6  9  7  5 30                  -0.000000099
   -128130.418 9    -97259.63349  20164204.427    20164204.2124   20164213.0374
   -941712.216 8   -718186.16945  24827171.924    24827171.3774   24827192.5724
   1089018.823 9    836235.66747  22643016.761    22643016.5054   22643029.9394
    839019.935 8    648215.95845  24327309.942    24327309.0844   24327321.2154
   -805634.100 9   -619889.98248  20649333.578    20649333.0344   20649341.8954
  -1089295.651 9   -829466.54946  23089421.526    23089421.6764   23089434.2874
 80  9  1 19 16 43.0000000  0  6 24  6  9  7  5 30                  -0.000000098
   -127936.166 9    -97108.26749  20164241.391    20164241.1764   20164250.0024
   -944107.711 8   -720052.77945  24826716.053    24826715.5034   24826736.7064
   1091668.747 9    838300.53647  22643521.020    22643520.7664   22643534.2014
    841287.831 8    649983.14445  24327741.512    24327740.6464   24327752.8154
   -807135.987 9   -621060.28248  20649047.767    20649047.2224   20649056.0894
  -1092469.305 9   -831939.52746  23088817.570    23088817.7154   23088830.3204
 80  9  1 19 16 44.0000000  0  6 24  6  9  7  5 30                  -0.000000098
   -127741.545 9    -96956.61349  20164278.413    20164278.1914   20164287.0174
   -946503.378 8   -721919.52445  24826260.164    24826259.6194   24826280.8074
   1094318.775 9    840365.48547  22644025.316    22644025.0674   22644038.4904
    843555.583 8    651750.21345  24328173.055    24328172.1684   24328184.3784
   -808637.646 9   -622230.40448  20648762.011    20648761.4704   20648770.3374
  -1095643.006 9   -834412.54346  23088213.648    23088213.8024   23088226.3874
 80  9  1 19 16 45.0000000  0  6 24  6  9  7  5 30                  -0.000000098
   -127546.227 9    -96804.41649  20164315.591    20164315.3654   20164324.1924
   -948898.909 8   -723786.16345  24825804.320    24825803.7644   24825824.9594
   1096969.252 9    842430.77747  22644529.702    22644529.4584   22644542.8734
    845823.520 8    653517.43345  24328604.623    24328603.7194   24328615.9514
   -810138.762 9   -623400.10448  20648476.375    20648475.8384   20648484.7004
  -1098816.408 9   -836885.31846  23087609.763    23087609.9114   23087622.5004
 80  9  1 19 16 46.0000000  0  6 24  6  9  7  5 30                  -0.000000098
   -127350.366 9    -96651.79649  20164352.867    20164352.6394   20164361.4744
   -951294.433 8   -725652.79745  24825348.464    24825347.9104   24825369.1014
   1099620.036 9    844496.32147  22645034.127    22645033.8884   22645047.2954
    848091.512 8    655284.69845  24329036.234    24329035.3114   24329047.5794
   -811639.499 9   -624569.51048  20648190.776    20648190.2354   20648199.0964
  -1101989.661 9   -839357.97546  23087005.915    23087006.0594   23087018.6514
 80  9  1 19 16 47.0000000  0  6 24  6  9  7  5 30                  -0.000000097
   -127154.060 9    -96498.82949  20164390.205    20164389.9734   20164398.8094
   -953690.034 8   -727519.49045  24824892.570    24824892.0154   24824913.1954
   1102271.029 9    846562.02347  22645538.593    22645538.3594   22645551.7614
    850359.432 8    657051.90145  24329467.792    24329466.8424   24329479.1404
   -813139.928 9   -625738.67448  20647905.275    20647904.7334   20647913.5854
  -1105162.862 9   -841830.58846  23086402.064    23086402.1984   23086414.8024
 80  9  1 19 16 48.0000000  0  6 24  6  9  7  5 30                  -0.000000097
   -126956.950 9    -96345.23949  20164427.730    20164427.5074   20164436.3304
   -956085.375 8   -729385.98145  24824436.767    24824436.2114   24824457.3874
   1104922.580 9    848628.15747  22646043.184    22646042.9504   22646056.3594
    852627.690 8    658819.36745  24329899.426    24329898.4534   24329910.7874
   -814639.689 9   -626907.31848  20647619.888    20647619.3504   20647628.2084
  -1108335.663 9   -844302.89746  23085798.317    23085798.4354   23085811.0534
 80  9  1 19 16 49.0000000  0  6 24  6  9  7  5 30                  -0.000000097
   -126759.473 9    -96191.35749  20164465.285    20164465.0624   20164473.8874
   -958480.869 8   -731252.59345  24823980.910    24823980.3474   24824001.5114
   1107574.255 9    850694.39247  22646547.788    22646547.5604   22646560.9564
    854895.800 8    660586.72245  24330331.043    24330330.0444   24330342.4244
   -816139.268 9   -628075.81748  20647334.508    20647333.9684   20647342.8294
  -1111508.503 9   -846775.23846  23085194.526    23085194.6434   23085207.2524
 80  9  1 19 16 50.0000000  0  6 24  6  9  7  5 30                  -0.000000096
   -126561.439 9    -96037.04549  20164502.988    20164502.7654   20164511.5914
   -960876.334 8   -733119.18245  24823525.064    24823524.5024   24823545.6634
   1110226.276 9    852760.89747  22647052.453    22647052.2314   22647065.6214
    857163.971 8    662354.12045  24330762.651    24330761.6254   24330774.0464
   -817638.391 9   -629243.96648  20647049.246    20647048.7054   20647057.5714
  -1114681.165 9   -849247.43746  23084590.785    23084590.9014   23084603.5004
 80  9  1 19 16 51.0000000  0  6 24  6  9  7  5 30                  -0.000000096
   -126362.846 9    -95882.29949  20164540.756    20164540.5294   20164549.3584
   -963271.762 8   -734985.74345  24823069.217    24823068.6474   24823089.7984
   1112878.592 9    854827.62747  22647557.173    22647556.9624   22647570.3384
    859432.205 8    664121.56945  24331194.303    24331193.2664   24331205.7184
   -819137.137 9   -630411.81948  20646764.043    20646763.5034   20646772.3604
  -1117853.695 9   -851719.53446  23083987.086    23083987.1984   23083999.8054
 80  9  1 19 16 52.0000000  0  6 24  6  9  7  5 30                  -0.000000096
   -126163.699 9    -95727.11749  20164578.666    20164578.4434   20164587.2724
   -965667.214 8   -736852.32245  24822613.383    24822612.8324   24822633.9614
   1115531.204 9    856894.59347  22648061.967    22648061.7524   22648075.1304
    861700.480 8    665889.05645  24331625.948    24331624.8984   24331637.3824
   -820635.505 9   -631579.37848  20646478.909    20646478.3704   20646487.2274
  -1121026.097 9   -854191.53046  23083383.379    23083383.4964   23083396.0924
 80  9  1 19 16 53.0000000  0  6 24  6  9  7  5 30                  -0.000000095
   -125963.947 9    -95571.46349  20164616.667    20164616.4474   20164625.2784
   -968062.557 8   -738718.81945  24822157.550    24822157.0084   24822178.1194
   1118184.183 9    858961.84847  22648566.834    22648566.6234   22648580.0014
    863968.843 8    667656.60545  24332057.600    24332056.5384   24332069.0284
   -822133.414 9   -632746.58048  20646193.863    20646193.3284   20646202.1824
  -1124198.293 9   -856663.36546  23082779.719    23082779.8544   23082792.4344
 80  9  1 19 16 54.0000000  0  6 24  6  9  7  5 30                  -0.000000095
   -125763.652 9    -95415.39149  20164654.782    20164654.5604   20164663.3914
   -970457.902 8   -740585.31745  24821701.727    24821701.1934   24821722.2834
   1120837.452 9    861029.31847  22649071.734    22649071.5234   22649084.8984
    866237.269 8    669424.20445  24332489.252    24332488.1794   24332500.6604
   -823630.926 9   -633913.47148  20645908.920    20645908.3854   20645917.2394
  -1127370.349 9   -859135.08646  23082176.096    23082176.2424   23082188.8134
 80  9  1 19 16 55.0000000  0  6 24  6  9  7  5 30                  -0.000000095
   -125562.917 9    -95258.97449  20164692.963    20164692.7444   20164701.5694
   -972853.319 8   -742451.86845  24821245.884    24821245.3694   24821266.4334
   1123490.951 9    863096.96947  22649576.685    22649576.4844   22649589.8374
    868505.651 8    671191.77245  24332920.921    24332919.8414   24332932.2994
   -825128.152 9   -635080.13748  20645624.008    20645623.4724   20645632.3334
  -1130542.339 9   -861606.76446  23081572.489    23081572.6304   23081585.2064
 80  9  1 19 16 56.0000000  0  6 24  6  9  7  5 30                  -0.000000095
   -125361.756 9    -95102.22349  20164731.255    20164731.0374   20164739.8664
   -975248.848 8   -744318.50645  24820790.035    24820789.5254   24820810.5624
   1126144.589 9    865164.73647  22650081.683    22650081.4744   22650094.8344
    870773.933 8    672959.26045  24333352.559    24333351.4624   24333363.9174
   -826625.123 9   -636246.60548  20645339.125    20645338.5894   20645347.4454
  -1133714.331 9   -864078.43846  23080968.852    23080968.9884   23080981.5794
 80  9  1 19 16 57.0000000  0  6 24  6  9  7  5 30                  -0.000000094
   -125159.802 9    -94944.85849  20164769.680    20164769.4614   20164778.2904
   -977644.113 8   -746184.94345  24820334.203    24820333.7104   24820354.7154
   1128798.761 9    867232.91347  22650586.744    22650586.5354   22650599.8804
    873042.490 8    674726.95345  24333784.275    24333783.1644   24333795.6294
   -828121.453 9   -637412.57748  20645054.412    20645053.8674   20645062.7274
  -1136885.925 9   -866549.80346  23080365.315    23080365.4654   23080378.0434
 80  9  1 19 16 58.0000000  0  6 24  6  9  7  5 30                  -0.000000094
   -124957.361 9    -94787.11449  20164808.205    20164807.9844   20164816.8224
   -980039.448 8   -748051.42945  24819878.386    24819877.8964   24819898.8834
   1131453.181 9    869301.29147  22651091.899    22651091.6854   22651105.0284
    875311.042 8    676494.64945  24334215.945    24334214.8154   24334227.3064
   -829617.473 9   -638578.30948  20644769.730    20644769.1934   20644778.0454
  -1140057.433 9   -869021.10546  23079761.787    23079761.9534   23079774.5254
 80  9  1 19 16 59.0000000  0  6 24  6  9  7  5 30                  -0.000000093
   -124754.229 9    -94628.83049  20164846.832    20164846.6174   20164855.4494
   -982434.581 8   -749917.76045  24819422.603    24819422.1124   24819443.0904
   1134108.027 9    871369.99347  22651597.107    22651596.8854   22651610.2274
    877579.769 8    678262.48545  24334647.690    24334646.5464   24334659.0584
   -831112.939 9   -639743.60648  20644485.153    20644484.6014   20644493.4724
  -1143228.662 9   -871492.19346  23079158.323    23079158.4814   23079171.0724
 80  9  1 19 17  0.0000000  0  6 24  6  9  7  5 30                  -0.000000093
   -124550.769 9    -94470.28849  20164885.550    20164885.3504   20164894.1684
   -984829.910 8   -751784.24045  24818966.775    24818966.2884   24818987.2444
   1136762.974 9    873438.77547  22652102.330    22652102.1064   22652115.4494
    879848.336 8    680030.19745  24335079.395    24335078.2554   24335090.7504
   -832608.196 9   -640908.73848  20644200.592    20644200.0384   20644208.9094
  -1146399.943 9   -873963.31446  23078554.850    23078555.0294   23078567.6024
 80  9  1 19 17  1.0000000  0  6 24  6  9  7  5 30                  -0.000000093
   -124346.718 9    -94311.28449  20164924.386    20164924.1734   20164933.0034
   -987225.161 8   -753650.66445  24818510.987    24818510.4934   24818531.4514
   1139418.261 9    875507.82747  22652607.620    22652607.3864   22652620.7374
    882117.005 8    681797.97945  24335511.109    24335509.9664   24335522.4644
   -834103.027 9   -642073.54148  20643916.157    20643915.6054   20643924.4774
  -1149570.999 9   -876434.25946  23077951.404    23077951.5964   23077964.1584
 80  9  1 19 17  2.0000000  0  6 24  6  9  7  5 30                  -0.000000092
   -124142.113 9    -94151.85249  20164963.331    20164963.1364   20164971.9584
   -989620.375 8   -755517.05945  24818055.171    24818054.6794   24818075.6304
   1142073.862 9    877577.11647  22653112.991    22653112.7464   22653126.0974
    884385.753 8    683565.83545  24335942.845    24335941.7164   24335954.2194
   -835597.434 9   -643238.01248  20643631.790    20643631.2414   20643640.1094
  -1152741.908 9   -878905.09046  23077347.985    23077348.1754   23077360.7534
 80  9  1 19 17  3.0000000  0  6 24  6  9  7  5 30                  -0.000000092
   -123936.777 9    -93991.85049  20165002.391    20165002.1994   20165011.0144
   -992015.409 8   -757383.31145  24817599.418    24817598.9244   24817619.8754
   1144729.937 9    879646.77647  22653618.437    22653618.1954   22653631.5424
    886654.691 8    685333.83645  24336374.588    24336373.4874   24336385.9704
   -837091.259 9   -644402.03348  20643347.503    20643346.9584   20643355.8244
  -1155912.484 9   -881375.66346  23076744.631    23076744.8224   23076757.3914
 80  9  1 19 17  4.0000000  0  6 24  6  9  7  5 30                  -0.000000091
   -123731.052 9    -93831.54549  20165041.531    20165041.3424   20165050.1554
   -994410.559 8   -759249.65245  24817143.638    24817143.1504   24817164.0904
   1147386.181 9    881716.56947  22654123.917    22654123.6664   22654137.0164
    888923.560 8    687101.78445  24336806.349    24336805.2694   24336817.7444
   -838584.821 9   -645565.84648  20643063.286    20643062.7454   20643071.6044
  -1159083.055 9   -883846.23346  23076141.302    23076141.5094   23076154.0754
 80  9  1 19 17  5.0000000  0  6 24  6  9  7  5 30                  -0.000000091
   -123524.822 9    -93670.84649  20165080.793    20165080.6054   20165089.4214
   -996805.703 8   -761115.99145  24816687.830    24816687.3354   24816708.2774
   1150042.673 9    883786.55847  22654629.451    22654629.1964   22654642.5434
    891192.482 8    688869.77245  24337238.128    24337237.0614   24337249.5284
   -840078.017 9   -646729.37248  20642779.141    20642778.5824   20642787.4614
  -1162253.515 9   -886316.71446  23075537.982    23075538.1874   23075550.7554
 80  9  1 19 17  6.0000000  0  6 24  6  9  7  5 30                  -0.000000091
   -123318.113 9    -93509.77349  20165120.112    20165119.9284   20165128.7364
   -999200.908 8   -762982.37845  24816232.030    24816231.5414   24816252.4834
   1152699.403 9    885856.72547  22655135.010    22655134.7464   22655148.0954
    893461.362 8    690637.71845  24337669.859    24337668.8024   24337681.2674
   -841570.849 9   -647892.61748  20642495.076    20642494.5284   20642503.3954
  -1165423.876 9   -888787.12046  23074934.664    23074934.8754   23074947.4464
 80  9  1 19 17  7.0000000  0  6 24  6  9  7  5 30                  -0.000000090
   -123110.666 9    -93348.12549  20165159.603    20165159.4204   20165168.2394
  -1001595.890 8   -764848.59545  24815776.294    24815775.7974   24815796.7464
   1155356.637 9    887927.28447  22655640.684    22655640.4164   22655653.7694
    895730.500 8    692405.87745  24338101.668    24338100.6234   24338113.0934
   -843063.096 9   -649055.40748  20642211.124    20642210.5654   20642219.4394
  -1168593.901 9   -891257.26746  23074331.430    23074331.6624   23074344.2064
 80  9  1 19 17  8.0000000  0  6 24  6  9  7  5 30                  -0.000000090
   -122902.767 9    -93186.12549  20165199.142    20165198.9634   20165207.7714
  -1003990.954 8   -766714.87245  24815320.528    24815320.0224   24815340.9824
   1158014.090 9    889998.02647  22656146.404    22656146.1364   22656159.4804
    897999.633 8    694174.03045  24338533.487    24338532.4634   24338544.9314
   -844555.005 9   -650217.93348  20641927.217    20641926.6614   20641935.5204
  -1171763.844 9   -893727.34646  23073728.186    23073728.4204   23073740.9754
 80  9  1 19 17  9.0000000  0  6 24  6  9  7  5 30                  -0.000000089
   -122694.344 9    -93023.71549  20165238.810    20165238.6364   20165247.4324
  -1006385.985 8   -768581.12345  24814864.747    24814864.2384   24814885.2104
   1160671.837 9    892068.99847  22656652.171    22656651.8964   22656665.2354
    900268.769 8    695942.17945  24338965.264    24338964.2544   24338976.7254
   -846046.500 9   -651380.13748  20641643.400    20641642.8484   20641651.7154
  -1174933.647 9   -896197.31546  23073124.988    23073125.2284   23073137.7794
 80  9  1 19 17 10.0000000  0  6 24  6  9  7  5 30                  -0.000000089
   -122485.322 9    -92860.84149  20165278.593    20165278.4184   20165287.2214
  -1008780.923 8   -770447.30245  24814408.998    24814408.4834   24814429.4644
   1163329.943 9    894140.24047  22657158.008    22657157.7264   22657171.0694
    902538.061 8    697710.45245  24339397.101    24339396.1164   24339408.5754
   -847537.546 9   -652541.99148  20641359.660    20641359.1044   20641367.9714
  -1178103.242 9   -898667.12446  23072521.846    23072522.0864   23072534.6454
 80  9  1 19 17 11.0000000  0  6 24  6  9  7  5 30                  -0.000000088
   -122275.761 9    -92697.54949  20165318.466    20165318.2904   20165327.0944
  -1011175.876 8   -772313.49345  24813953.242    24813952.7194   24813973.7064
   1165988.347 9    896211.71547  22657663.905    22657663.6154   22657676.9664
    904807.405 8    699478.76745  24339828.935    24339827.9684   24339840.4194
   -849028.180 9   -653703.52448  20641076.008    20641075.4514   20641084.3204
  -1181272.683 9   -901136.80846  23071918.703    23071918.9434   23071931.5094
 80  9  1 19 17 12.0000000  0  6 24  6  9  7  5 30                  -0.000000088
   -122065.696 9    -92533.86049  20165358.439    20165358.2734   20165367.0744
  -1013570.870 8   -774179.71645  24813497.488    24813496.9544   24813517.9524
   1168647.005 9    898283.38247  22658169.842    22658169.5454   22658182.8924
    907076.784 8    701247.11445  24340260.799    24340259.8194   24340272.3064
   -850518.441 9   -654864.76548  20640792.432    20640791.8774   20640800.7414
  -1184442.024 9   -903606.41746  23071315.580    23071315.8214   23071328.3794
 80  9  1 19 17 13.0000000  0  6 24  6  9  7  5 30                  -0.000000087
   -121855.208 9    -92369.84249  20165398.499    20165398.3354   20165407.1284
  -1015965.907 8   -776045.97245  24813041.746    24813041.1994   24813062.2264
   1171305.844 9    900355.19947  22658675.814    22658675.5154   22658688.8634
    909346.132 8    703015.43445  24340692.618    24340691.6414   24340704.1404
   -852008.390 9   -656025.76448  20640508.881    20640508.3234   20640517.1844
  -1187611.289 9   -906075.97146  23070712.487    23070712.7284   23070725.2934
 80  9  1 19 17 14.0000000  0  6 24  6  9  7  5 30                  -0.000000087
   -121644.056 9    -92205.30849  20165438.687    20165438.5174   20165447.3194
  -1018360.839 8   -777912.15045  24812585.981    24812585.4354   24812606.4694
   1173965.123 9    902427.35747  22659181.854    22659181.5544   22659194.9024
    911615.630 8    704783.87245  24341124.490    24341123.5204   24341136.0204
   -853497.799 9   -657186.34148  20640225.479    20640224.9194   20640233.7754
  -1190780.290 9   -908545.32646  23070109.463    23070109.7064   23070122.2644
 80  9  1 19 17 15.0000000  0  6 24  6  9  7  5 30                  -0.000000086
   -121432.508 9    -92040.46749  20165478.938    20165478.7694   20165487.5734
  -1020755.869 8   -779778.40345  24812130.237    24812129.7014   24812150.7264
   1176624.525 9    904499.61347  22659687.948    22659687.6444   22659700.9824
    913885.060 8    706552.25745  24341556.356    24341555.4014   24341567.9044
   -854986.917 9   -658346.69148  20639942.107    20639941.5564   20639950.4074
  -1193949.249 9   -911014.64746  23069506.418    23069506.6634   23069519.2204
 80  9  1 19 17 16.0000000  0  6 24  6  9  7  5 30                  -0.000000086
   -121220.488 9    -91875.25549  20165519.281    20165519.1114   20165527.8994
  -1023150.998 8   -781644.73045  24811674.459    24811673.9164   24811694.9574
   1179284.192 9    906572.07847  22660194.071    22660193.7544   22660207.1064
    916154.505 8    708320.65045  24341988.221    24341987.2734   24341999.7964
   -856475.670 9   -659506.75548  20639658.792    20639658.2324   20639667.0894
  -1197118.089 9   -913483.86446  23068903.398    23068903.6414   23068916.2034
 80  9  1 19 17 17.0000000  0  6 24  6  9  7  5 30                  -0.000000085
   -121007.659 9    -91709.41349  20165559.803    20165559.6334   20165568.4264
  -1025545.736 8   -783510.75245  24811218.751    24811218.2024   24811239.2444
   1181944.434 9    908644.98547  22660700.306    22660699.9934   22660713.3374
    918424.260 8    710089.28145  24342420.136    24342419.1944   24342431.7304
   -857963.703 9   -660666.26348  20639375.649    20639375.0884   20639383.9494
  -1200286.530 9   -915952.77846  23068300.461    23068300.6984   23068313.2634
 80  9  1 19 17 18.0000000  0  6 24  6  9  7  5 30                  -0.000000085
   -120794.421 9    -91543.25049  20165600.383    20165600.2154   20165609.0054
  -1027940.668 8   -785376.92945  24810762.981    24810762.4274   24810783.4784
   1184604.844 9    910718.02047  22661206.576    22661206.2634   22661219.6074
    920693.958 8    711857.86945  24342852.042    24342851.0954   24342863.6704
   -859451.449 9   -661825.54248  20639092.528    20639091.9744   20639100.8234
  -1203454.940 9   -918421.64946  23067697.516    23067697.7554   23067710.3184
 80  9  1 19 17 19.0000000  0  6 24  6  9  7  5 30                  -0.000000084
   -120580.778 9    -91376.77649  20165641.030    20165640.8674   20165649.6534
  -1030335.705 8   -787243.18645  24810307.218    24810306.6534   24810327.7254
   1187265.460 9    912791.21847  22661712.887    22661712.5624   22661725.9134
    922963.617 8    713626.43145  24343283.938    24343282.9964   24343295.5964
   -860938.873 9   -662984.57548  20638809.492    20638808.9304   20638817.7854
  -1206623.286 9   -920890.48046  23067094.597    23067094.8334   23067107.3974
 80  9  1 19 17 20.0000000  0  6 24  6  9  7  5 30                  -0.000000084
   -120366.530 9    -91209.83049  20165681.799    20165681.6294   20165690.4204
  -1032730.644 8   -789109.36945  24809851.479    24809850.9084   24809871.9824
   1189926.442 9    914864.69947  22662219.284    22662218.9624   22662232.3044
    925233.379 8    715395.07445  24343715.852    24343714.9084   24343727.5434
   -862425.783 9   -664143.20348  20638526.546    20638525.9864   20638534.8334
  -1209791.403 9   -923359.13946  23066491.715    23066491.9604   23066504.5124
 80  9  1 19 17 21.0000000  0  6 24  6  9  7  5 30                  -0.000000083
   -120151.814 9    -91042.51849  20165722.659    20165722.4914   20165731.2724
  -1035125.668 8   -790975.61845  24809395.738    24809395.1644   24809416.2424
   1192587.641 9    916938.35847  22662725.703    22662725.3714   22662738.7304
    927503.127 8    717163.69945  24344147.766    24344146.8284   24344159.4864
   -863912.343 9   -665301.55948  20638243.679    20638243.1214   20638251.9614
  -1212959.454 9   -925827.74046  23065888.865    23065889.1084   23065901.6504
 80  9  1 19 17 22.0000000  0  6 24  6  9  7  5 30                  -0.000000083
   -119936.453 9    -90874.70449  20165763.643    20165763.4724   20165772.2524
  -1037520.586 8   -792841.78245  24808939.975    24808939.3904   24808960.4884
   1195249.254 9    919012.34247  22663232.205    22663231.8714   22663245.2324
    929773.047 8    718932.46145  24344579.693    24344578.7694   24344591.4404
   -865398.359 9   -666459.49348  20637960.894    20637960.3374   20637969.1844
  -1216127.246 9   -928296.15246  23065286.047    23065286.2854   23065298.8274
 80  9  1 19 17 23.0000000  0  6 24  6  9  7  5 30                  -0.000000082
   -119720.594 9    -90706.50049  20165804.737    20165804.5644   20165813.3494
  -1039915.494 8   -794707.93845  24808484.245    24808483.6554   24808504.7614
   1197911.138 9    921086.54247  22663738.745    22663738.4104   22663751.7754
    932042.989 8    720701.24245  24345011.666    24345010.7494   24345023.4394
   -866883.963 9   -667617.10648  20637678.204    20637677.6434   20637686.4814
  -1219294.940 9   -930764.48246  23064683.246    23064683.4824   23064696.0284
 80  9  1 19 17 24.0000000  0  6 24  6  9  7  5 30                  -0.000000082
   -119504.314 9    -90537.97049  20165845.910    20165845.7354   20165854.5134
  -1042310.529 8   -796574.19345  24808028.481    24808027.8904   24808048.9944
   1200573.198 9    923160.86147  22664245.321    22664244.9894   22664258.3434
    934312.894 8    722469.99345  24345443.612    24345442.7104   24345455.4034
   -868369.245 9   -668774.47048  20637395.541    20637394.9794   20637403.8224
  -1222462.580 9   -933232.77246  23064080.467    23064080.6994   23064093.2364
 80  9  1 19 17 25.0000000  0  6 24  6  9  7  5 30                  -0.000000082
   -119287.370 9    -90368.92349  20165887.203    20165887.0274   20165895.8054
  -1044705.428 8   -798440.34345  24807572.742    24807572.1464   24807593.2664
   1203235.722 9    925235.54947  22664751.988    22664751.6584   22664765.0204
    936583.036 8    724238.92445  24345875.589    24345874.6914   24345887.4084
   -869853.948 9   -669931.37948  20637113.041    20637112.4744   20637121.3224
  -1225629.908 9   -935700.81646  23063477.752    23063477.9964   23063490.5244
 80  9  1 19 17 26.0000000  0  6 24  6  9  7  5 30                  -0.000000081
   -119070.188 9    -90199.68449  20165928.533    20165928.3584   20165937.1224
  -1047100.574 8   -800306.68545  24807116.952    24807116.3514   24807137.4724
   1205898.234 9    927310.23047  22665258.659    22665258.3274   22665271.6924
    938852.936 8    726007.67545  24346307.539    24346306.6534   24346319.3674
   -871338.515 9   -671088.18148  20636830.516    20636829.9504   20636838.7824
  -1228797.385 9   -938168.97046  23062875.003    23062875.2544   23062887.7664
 80  9  1 19 17 27.0000000  0  6 24  6  9  7  5 30                  -0.000000081
   -118852.273 9    -90029.88349  20165969.985    20165969.7994   20165978.5764
  -1049495.560 8   -802172.90045  24806661.201    24806660.5974   24806681.7254
   1208561.232 9    929385.28547  22665765.434    22665765.0974   22665778.4674
    941123.071 8    727776.60345  24346739.521    24346738.6244   24346751.3714
   -872822.447 9   -672244.49248  20636548.159    20636547.5954   20636556.4274
  -1231964.507 9   -940636.85046  23062272.303    23062272.5514   23062285.0654
 80  9  1 19 17 28.0000000  0  6 24  6  9  7  5 30                  -0.000000080
   -118633.945 9    -89859.75549  20166011.550    20166011.3614   20166020.1414
  -1051890.637 8   -804039.18645  24806205.445    24806204.8424   24806225.9824
   1211224.430 9    931460.49447  22666272.219    22666271.8864   22666285.2534
    943393.231 8    729545.55045  24347171.527    24347170.6164   24347183.3914
   -874306.056 9   -673400.55248  20636265.836    20636265.2714   20636274.1064
  -1235131.586 9   -943104.69646  23061669.621    23061669.8684   23061682.3784
 80  9  1 19 17 29.0000000  0  6 24  6  9  7  5 30                  -0.000000080
   -118415.015 9    -89689.15949  20166053.215    20166053.0224   20166061.8024
  -1054285.630 8   -805905.40945  24805749.666    24805749.0674   24805770.2044
   1213887.979 9    933535.97547  22666779.092    22666778.7554   22666792.1204
    945663.516 8    731314.60045  24347603.546    24347602.6274   24347615.4214
   -875789.159 9   -674556.21548  20635983.606    20635983.0364   20635991.8684
  -1238298.416 9   -945572.34546  23061067.003    23061067.2554   23061079.7574
 80  9  1 19 17 30.0000000  0  6 24  6  9  7  5 30                  -0.000000079
   -118195.594 9    -89518.17949  20166094.986    20166094.7934   20166103.5604
  -1056680.661 8   -807771.65945  24805293.910    24805293.3034   24805314.4564
   1216551.768 9    935611.64447  22667285.998    22667285.6644   22667299.0314
    947933.801 8    733083.64845  24348035.556    24348034.6174   24348047.4464
   -877271.868 9   -675711.56948  20635701.463    20635700.8914   20635709.7234
  -1241465.138 9   -948039.91146  23060464.398    23060464.6624   23060477.1564
 80  9  1 19 17 31.0000000  0  6 24  6  9  7  5 30                  -0.000000079
   -117975.574 9    -89346.73849  20166136.858    20166136.6644   20166145.4294
  -1059075.637 8   -809637.86545  24804838.154    24804837.5484   24804858.6924
   1219215.923 9    937687.60147  22667792.966    22667792.6334   22667806.0034
    950204.225 8    734852.80245  24348467.606    24348466.6584   24348479.4944
   -878754.081 9   -676866.53948  20635419.403    20635418.8274   20635427.6514
  -1244631.620 9   -950507.28946  23059861.818    23059862.0894   23059874.5804
 80  9  1 19 17 32.0000000  0  6 24  6  9  7  5 30                  -0.000000078
   -117755.059 9    -89174.90749  20166178.805    20166178.6054   20166187.3784
  -1061470.629 8   -811504.08545  24804382.419    24804381.8144   24804402.9654
   1221880.322 9    939763.74647  22668299.981    22668299.6524   22668313.0204
    952474.694 8    736621.99545  24348899.665    24348898.7184   24348911.5594
   -880235.897 9   -678021.19948  20635137.440    20635136.8624   20635145.6974
  -1247797.984 9   -952974.58946  23059259.297    23059259.5664   23059272.0584
 80  9  1 19 17 33.0000000  0  6 24  6  9  7  5 30                  -0.000000078
   -117534.011 9    -89002.65949  20166220.889    20166220.6864   20166229.4614
  -1063865.623 8   -813370.30445  24803926.670    24803926.0694   24803947.2114
   1224545.013 9    941840.12847  22668807.075    22668806.7514   22668820.1284
    954745.208 8    738391.22345  24349331.735    24349330.7804   24349343.6254
   -881717.289 9   -679175.52948  20634855.547    20634854.9674   20634863.8054
  -1250964.204 9   -955441.76546  23058656.784    23058657.0544   23058669.5414
 80  9  1 19 17 34.0000000  0  6 24  6  9  7  5 30                  -0.000000077
   -117312.392 9    -88829.96749  20166263.073    20166262.8574   20166271.6224
  -1066260.609 8   -815236.51945  24803470.914    24803470.3054   24803491.4464
   1227210.032 9    943916.75547  22669314.214    22669313.9004   22669327.2724
    957015.858 8    740160.55745  24349763.824    24349762.8504   24349775.7134
   -883198.230 9   -680329.51248  20634573.715    20634573.1424   20634581.9634
  -1254130.242 9   -957908.80346  23058054.301    23058054.5814   23058067.0524
 80  9  1 19 17 35.0000000  0  6 24  6  9  7  5 30                  -0.000000077
   -117090.203 9    -88656.83349  20166305.353    20166305.1284   20166313.9004
  -1068655.547 8   -817102.69445  24803015.164    24803014.5514   24803035.6964
   1229875.374 9    945993.63947  22669821.421    22669821.1094   22669834.4884
    959286.573 8    741929.93445  24350195.944    24350194.9614   24350207.8114
   -884678.716 9   -681483.13748  20634291.999    20634291.4174   20634300.2404
  -1257296.099 9   -960375.70146  23057451.844    23057452.1284   23057464.5894
 80  9  1 19 17 36.0000000  0  6 24  6  9  7  5 30                  -0.000000076
   -116867.494 9    -88483.29449  20166347.742    20166347.5084   20166356.2834
  -1071050.478 8   -818968.86845  24802559.437    24802558.8264   24802579.9584
   1232540.978 9    948070.72547  22670328.668    22670328.3584   22670341.7444
    961557.329 8    743699.35245  24350628.044    24350627.0524   24350639.9074
   -886158.789 9   -682636.44348  20634010.348    20634009.7724   20634018.5924
  -1260461.823 9   -962842.49046  23056849.429    23056849.7064   23056862.1674
 80  9  1 19 17 37.0000000  0  6 24  6  9  7  5 30                  -0.000000076
   -116644.390 9    -88309.44549  20166390.203    20166389.9694   20166398.7434
  -1073445.538 8   -820835.14245  24802103.659    24802103.0424   24802124.1824
   1235206.765 9    950147.95947  22670835.950    22670835.6374   22670849.0374
    963828.017 8    745468.71645  24351060.137    24351059.1434   24351072.0024
   -887638.588 9   -683789.52748  20633728.763    20633728.1774   20633737.0034
  -1263627.553 9   -965309.29646  23056247.008    23056247.2734   23056259.7354
 80  9  1 19 17 38.0000000  0  6 24  6  9  7  5 30                  -0.000000075
   -116420.628 9    -88135.08349  20166432.781    20166432.5394   20166441.3134
  -1075840.460 8   -822701.30645  24801647.908    24801647.2774   24801668.4274
   1237872.963 9    952225.50547  22671343.313    22671343.0154   22671356.4154
    966098.890 8    747238.22345  24351492.298    24351491.3034   24351504.1494
   -889117.824 9   -684942.17748  20633447.274    20633446.6924   20633455.5074
  -1266792.996 9   -967775.86946  23055644.648    23055644.9104   23055657.3654
 80  9  1 19 17 39.0000000  0  6 24  6  9  7  5 30                  -0.000000075
   -116196.380 9    -87960.34349  20166475.454    20166475.2004   20166483.9804
  -1078235.425 8   -824567.50545  24801192.186    24801191.5534   24801212.6934
   1240539.400 9    954303.23847  22671850.716    22671850.4244   22671863.8294
    968369.816 8    749007.77545  24351924.422    24351923.4344   24351936.2654
   -890596.686 9   -686094.53748  20633165.861    20633165.2774   20633174.0964
  -1269958.326 9   -970242.35846  23055042.310    23055042.5764   23055055.0194
 80  9  1 19 17 40.0000000  0  6 24  6  9  7  5 30                  -0.000000074
   -115971.684 9    -87785.25449  20166518.228    20166517.9704   20166526.7414
  -1080630.451 8   -826433.75245  24800736.419    24800735.7784   24800756.9204
   1243206.016 9    956381.11947  22672358.143    22672357.8534   22672371.2664
    970640.698 8    750777.28745  24352356.591    24352355.6034   24352368.4274
   -892075.225 9   -687246.64548  20632884.499    20632883.9124   20632892.7364
  -1273123.634 9   -972708.82546  23054439.975    23054440.2434   23054452.6854
 80  9  1 19 17 41.0000000  0  6 24  6  9  7  5 30                  -0.000000074
   -115746.446 9    -87609.74349  20166561.065    20166560.8014   20166569.5774
  -1083025.492 8   -828300.01045  24800280.640    24800279.9934   24800301.1334
   1245872.919 9    958459.21547  22672865.655    22672865.3624   22672878.7924
    972911.657 8    752546.86245  24352788.720    24352787.7554   24352800.5374
   -893553.335 9   -688398.41748  20632603.212    20632602.6264   20632611.4424
  -1276288.783 9   -975175.16546  23053837.644    23053837.9204   23053850.3504
 80  9  1 19 17 42.0000000  0  6 24  6  9  7  5 30                  -0.000000073
   -115520.573 9    -87433.73849  20166604.049    20166603.7814   20166612.5584
  -1085420.434 8   -830166.18845  24799824.915    24799824.2694   24799845.4044
   1248540.192 9    960537.60347  22673373.228    22673372.9404   22673386.3754
    975182.718 8    754316.51445  24353220.911    24353219.9274   24353232.7204
   -895030.921 9   -689549.78248  20632322.062    20632321.4814   20632330.3034
  -1279453.696 9   -977641.32146  23053235.385    23053235.6674   23053248.0974
 80  9  1 19 17 43.0000000  0  6 24  6  9  7  5 30                  -0.000000073
   -115294.228 9    -87257.36449  20166647.121    20166646.8514   20166655.6274
  -1087815.388 8   -832032.37745  24799369.175    24799368.5254   24799389.6484
   1251207.684 9    962616.15447  22673880.820    22673880.5294   22673893.9684
    977453.799 8    756086.17945  24353653.079    24353652.0974   24353664.8714
   -896508.145 9   -690700.86848  20632040.954    20632040.3664   20632049.1954
  -1282618.531 9   -980107.41646  23052633.140    23052633.4344   23052645.8584
 80  9  1 19 17 44.0000000  0  6 24  6  9  7  5 30                  -0.000000072
   -115067.321 9    -87080.55349  20166690.317    20166690.0414   20166698.8254
  -1090210.381 8   -833898.59845  24798913.411    24798912.7504   24798933.8824
   1253875.492 9    964694.95247  22674388.499    22674388.2174   22674401.6634
    979724.963 8    757855.90945  24354085.290    24354084.3084   24354097.0654
   -897984.914 9   -691851.59548  20631759.919    20631759.3404   20631768.1514
  -1285783.194 9   -982573.38546  23052030.905    23052031.1914   23052043.6224
 80  9  1 19 17 45.0000000  0  6 24  6  9  7  5 30                  -0.000000071
   -114839.924 9    -86903.35949  20166733.592    20166733.3114   20166742.0964
  -1092605.368 8   -835764.81745  24798457.662    24798456.9964   24798478.1284
   1256543.566 9    966773.96347  22674896.214    22674895.9364   22674909.3924
    981996.185 8    759625.68945  24354517.502    24354516.5194   24354529.2654
   -899461.272 9   -693002.00248  20631478.965    20631478.3854   20631487.2024
  -1288947.737 9   -985039.26046  23051428.736    23051429.0194   23051441.4464
 80  9  1 19 17 46.0000000  0  6 24  6  9  7  5 30                  -0.000000071
   -114612.069 9    -86725.80849  20166776.951    20166776.6714   20166785.4504
  -1095000.442 8   -837631.09845  24798001.906    24798001.2414   24798022.3764
   1259211.841 9    968853.13447  22675403.982    22675403.6944   22675417.1624
    984267.380 8    761395.44645  24354949.703    24354948.7004   24354961.4424
   -900937.276 9   -694152.13448  20631198.114    20631197.5294   20631206.3504
  -1292112.211 9   -987505.08246  23050826.535    23050826.8154   23050839.2384
 80  9  1 19 17 47.0000000  0  6 24  6  9  7  5 30                  -0.000000070
   -114383.589 9    -86547.77049  20166820.430    20166820.1414   20166828.9334
  -1097395.445 8   -839497.32445  24797546.154    24797545.4874   24797566.6224
   1261880.473 9    970932.58147  22675911.784    22675911.5034   22675924.9864
    986538.716 8    763165.31445  24355381.914    24355380.9014   24355393.6274
   -902412.775 9   -695301.87148  20630917.313    20630916.7244   20630925.5554
  -1295276.464 9   -989970.73746  23050224.401    23050224.6814   23050237.0974
 80  9  1 19 17 48.0000000  0  6 24  6  9  7  5 30                  -0.000000070
   -114154.661 9    -86369.38549  20166863.976    20166863.6914   20166872.4784
  -1099790.479 8   -841363.57845  24797090.383    24797089.7224   24797110.8394
   1264549.293 9    973012.17447  22676419.654    22676419.3814   22676432.8604
    988810.033 8    764935.17245  24355814.140    24355813.1214   24355825.8294
   -903887.927 9   -696451.34048  20630636.599    20630636.0084   20630644.8514
  -1298440.657 9   -992436.33246  23049622.258    23049622.5394   23049634.9564
 80  9  1 19 17 49.0000000  0  6 24  6  9  7  5 30                  -0.000000069
   -113925.123 9    -86190.52549  20166907.671    20166907.3814   20166916.1734
  -1102185.498 8   -843229.82145  24796634.630    24796633.9674   24796655.0804
   1267218.474 9    975092.04247  22676927.578    22676927.3104   22676940.8064
    991081.499 8    766705.14245  24356246.414    24356245.4024   24356258.0764
   -905362.574 9   -697600.41548  20630355.982    20630355.3924   20630364.2204
  -1301604.640 9   -994901.77446  23049020.187    23049020.4654   23049032.8714
 80  9  1 19 17 50.0000000  0  6 24  6  9  7  5 30                  -0.000000069
   -113695.091 9    -86011.28049  20166951.446    20166951.1604   20166959.9484
  -1104580.542 8   -845096.08045  24796178.854    24796178.1834   24796199.3004
   1269887.898 9    977172.10547  22677435.572    22677435.2984   22677448.8124
    993352.983 8    768475.12645  24356678.654    24356677.6324   24356690.3094
   -906836.822 9   -698749.17948  20630075.441    20630074.8664   20630083.6834
  -1304768.504 9   -997367.10846  23048418.115    23048418.4024   23048430.7974
 80  9  1 19 17 51.0000000  0  6 24  6  9  7  5 30                  -0.000000068
   -113464.495 9    -85831.59549  20166995.322    20166995.0304   20167003.8174
  -1106975.540 8   -846962.30445  24795723.103    24795722.4294   24795743.5484
   1272557.650 9    979252.42247  22677943.610    22677943.3364   22677956.8574
    995624.588 8    770245.20445  24357110.935    24357109.9134   24357122.5704
   -908310.593 9   -699897.56948  20629794.993    20629794.4114   20629803.2464
  -1307932.175 9   -999832.29746  23047816.078    23047816.3694   23047828.7534
 80  9  1 19 17 52.0000000  0  6 24  6  9  7  5 30                  -0.000000068
   -113233.367 9    -85651.49549  20167039.298    20167039.0104   20167047.7974
  -1109370.548 8   -848828.53745  24795267.356    24795266.6744   24795287.7884
   1275227.670 9    981332.95147  22678451.699    22678451.4344   22678464.9624
    997896.247 8    772015.32045  24357543.253    24357542.2344   24357554.8924
   -909783.954 9   -701045.64348  20629514.639    20629514.0554   20629522.8934
  -1311095.732 9  -1002297.40346  23047214.069    23047214.3564   23047226.7514
 80  9  1 19 17 53.0000000  0  6 24  6  9  7  5 30                  -0.000000067
   -113001.790 9    -85471.04549  20167083.363    20167083.0794   20167091.8544
  -1111765.631 8   -850694.82845  24794811.611    24794810.9304   24794832.0374
   1277897.866 9    983413.61747  22678959.798    22678959.5334   22678973.0744
   1000167.922 8    773785.45345  24357975.523    24357974.5044   24357987.1614
   -911256.977 9   -702193.45148  20629234.331    20629233.7594   20629242.5904
  -1314259.235 9  -1004762.45846  23046612.064    23046612.3534   23046624.7474
 80  9  1 19 17 54.0000000  0  6 24  6  9  7  5 30                  -0.000000067
   -112769.611 9    -85290.12549  20167127.538    20167127.2494   20167136.0334
  -1114160.650 8   -852561.06945  24794355.852    24794355.1754   24794376.2744
   1280568.420 9    985494.55847  22679467.994    22679467.7414   22679481.2814
   1002439.686 8    775555.65745  24358407.857    24358406.8454   24358419.4884
   -912729.490 9   -703340.86248  20628954.122    20628953.5434   20628962.3704
  -1317422.504 9  -1007227.34646  23046010.095    23046010.3894   23046022.7824
 80  9  1 19 17 55.0000000  0  6 24  6  9  7  5 30                  -0.000000066
   -112536.843 9    -85108.74649  20167171.834    20167171.5484   20167180.3324
  -1116555.612 8   -854427.26545  24793900.110    24793899.4304   24793920.5374
   1283239.313 9    987575.76747  22679976.241    22679975.9894   22679989.5344
   1004711.612 8    777325.98345  24358840.177    24358839.1654   24358851.8134
   -914201.524 9   -704487.90048  20628673.986    20628673.4074   20628682.2474
  -1320585.575 9  -1009692.07446  23045408.169    23045408.4664   23045420.8634
 80  9  1 19 17 56.0000000  0  6 24  6  9  7  5 30                  -0.000000066
   -112303.722 9    -84927.09149  20167216.189    20167215.9074   20167224.6834
  -1118950.749 8   -856293.59945  24793444.317    24793443.6364   24793464.7444
   1285910.308 9    989657.05147  22680484.533    22680484.2874   22680497.8384
   1006983.422 8    779096.21845  24359272.506    24359271.5154   24359284.1214
   -915673.304 9   -705634.73948  20628393.922    20628393.3504   20628402.1774
  -1323748.687 9  -1012156.82646  23044806.253    23044806.5534   23044818.9514
 80  9  1 19 17 57.0000000  0  6 24  6  9  7  5 30                  -0.000000065
   -112069.846 9    -84744.85249  20167260.688    20167260.4064   20167269.1864
  -1121345.624 8   -858159.73045  24792988.594    24792987.9024   24793009.0214
   1288581.807 9    991738.73147  22680992.914    22680992.6654   22681006.2354
   1009255.493 8    780866.65545  24359704.867    24359703.8954   24359716.4714
   -917144.417 9   -706781.06148  20628113.960    20628113.3844   20628122.2264
  -1326911.408 9  -1014621.27946  23044204.388    23044204.6904   23044217.0904
 80  9  1 19 17 58.0000000  0  6 24  6  9  7  5 30                  -0.000000065
   -111835.588 9    -84562.31349  20167305.266    20167304.9854   20167313.7654
  -1123740.654 8   -860025.98145  24792532.859    24792532.1674   24792553.2764
   1291253.425 9    993820.49747  22681501.301    22681501.0534   22681514.6294
   1011527.531 8    782637.06945  24360137.256    24360136.3154   24360148.8374
   -918615.252 9   -707927.16648  20627834.083    20627833.5084   20627842.3504
  -1330074.146 9  -1017085.74646  23043602.532    23043602.8374   23043615.2424
 80  9  1 19 17 59.0000000  0  6 24  6  9  7  5 30                  -0.000000064
   -111601.042 9    -84379.54849  20167349.877    20167349.6054   20167358.3744
  -1126135.931 8   -861892.42445  24792077.050    24792076.3434   24792097.4644
   1293925.083 9    995902.30647  22682009.708    22682009.4714   22682023.0384
   1013799.385 8    784407.34045  24360569.575    24360568.6664   24360581.1294
   -920085.887 9   -709073.11248  20627554.240    20627553.6624   20627562.4974
  -1333236.989 9  -1019550.28946  23043000.654    23043000.9534   23043013.3684
 80  9  1 19 18  0.0000000  0  6 24  6  9  7  5 30                  -0.000000064
   -111365.700 9    -84196.16449  20167394.666    20167394.3934   20167403.1644
  -1128530.884 8   -863758.61245  24791621.290    24791620.5784   24791641.6924
   1296597.281 9    997984.53447  22682518.217    22682517.9794   22682531.5554
   1016071.515 8    786177.82845  24361001.978    24361001.0884   24361013.4944
   -921555.801 9   -710218.50048  20627274.503    20627273.9264   20627282.7684
  -1336399.413 9  -1022014.50246  23042398.880    23042399.1804   23042411.5974
 80  9  1 19 18  1.0000000  0  6 24  6  9  7  5 30                  -0.000000063
   -111129.858 9    -84012.39049  20167439.557    20167439.2824   20167448.0554
  -1130925.866 8   -865624.82645  24791165.570    24791164.8544   24791185.9594
   1299269.736 9   1000066.95847  22683026.747    22683026.5074   22683040.0924
   1018343.725 8    787948.37745  24361434.372    24361433.4894   24361445.8514
   -923025.302 9   -711363.56448  20626994.870    20626994.2994   20627003.1354
  -1339561.729 9  -1024478.64246  23041797.095    23041797.3864   23041809.8084
 80  9  1 19 18  2.0000000  0  6 24  6  9  7  5 30                  -0.000000063
   -110893.461 9    -83828.18649  20167484.521    20167484.2514   20167493.0244
  -1133320.836 8   -867491.02745  24790709.807    24790709.0994   24790730.1904
   1301942.470 9   1002149.60047  22683535.373    22683535.1354   22683548.7204
   1020615.989 8    789718.96445  24361866.774    24361865.8994   24361878.2404
   -924494.352 9   -712508.27948  20626715.328    20626714.7534   20626723.5974
  -1342723.894 9  -1026942.66546  23041195.354    23041195.6524   23041208.0784
 80  9  1 19 18  3.0000000  0  6 24  6  9  7  5 30                  -0.000000062
   -110656.723 9    -83643.71249  20167529.568    20167529.3104   20167538.0724
  -1135715.960 8   -869357.35045  24790254.025    24790253.3154   24790274.4014
   1304615.279 9   1004232.30347  22684043.985    22684043.7434   22684057.3384
   1022888.123 8    791489.44945  24362299.174    24362298.3104   24362310.6234
   -925963.163 9   -713652.80348  20626435.820    20626435.2364   20626444.0814
  -1345886.098 9  -1029406.71146  23040593.589    23040593.8894   23040606.3314
 80  9  1 19 18  4.0000000  0  6 24  6  9  7  5 30                  -0.000000062
   -110419.348 9    -83458.74249  20167574.732    20167574.4794   20167583.2384
  -1138111.013 8   -871223.61845  24789798.275    24789797.5604   24789818.6474
   1307288.442 9   1006315.27847  22684552.675    22684552.4314   22684566.0374
   1025160.388 8    793260.04245  24362731.603    24362730.7604   24362743.0464
   -927431.449 9   -714796.92148  20626156.402    20626155.8204   20626164.6674
  -1349048.084 9  -1031870.59646  23039991.866    23039992.1664   23040004.5984
 80  9  1 19 18  5.0000000  0  6 24  6  9  7  5 30                  -0.000000061
   -110181.354 9    -83273.29249  20167620.028    20167619.7774   20167628.5374
  -1140505.940 8   -873089.78545  24789342.534    24789341.8264   24789362.9064
   1309961.974 9   1008398.53447  22685061.439    22685061.1994   22685074.7964
   1027432.785 8    795030.73445  24363164.038    24363163.2214   24363175.4584
   -928899.209 9   -715940.63048  20625877.106    20625876.5234   20625885.3734
  -1352209.851 9  -1034334.29746  23039390.209    23039390.5124   23039402.9564
 80  9  1 19 18  6.0000000  0  6 24  6  9  7  5 30                  -0.000000061
   -109942.907 9    -83087.48949  20167665.406    20167665.1664   20167673.9204
  -1142900.951 8   -874956.01745  24788886.775    24788886.0614   24788907.1384
   1312635.671 9   1010481.92847  22685570.226    22685569.9864   22685583.5924
   1029705.125 8    796801.38245  24363596.472    24363595.6724   24363607.8804
   -930366.626 9   -717084.07448  20625597.856    20625597.2864   20625606.1354
  -1355371.550 9  -1036797.95346  23038788.538    23038788.8494   23038801.2824
 80  9  1 19 18  7.0000000  0  6 24  6  9  7  5 30                  -0.000000060
   -109703.846 9    -82901.20949  20167710.899    20167710.6644   20167719.4104
  -1145295.901 8   -876822.20345  24788431.046    24788430.3374   24788451.4014
   1315309.734 9   1012565.60547  22686079.088    22686078.8544   22686092.4574
   1031977.640 8    798572.16445  24364028.930    24364028.1424   24364040.3354
   -931833.536 9   -718227.12248  20625318.716    20625318.1494   20625326.9864
  -1358533.048 9  -1039261.45946  23038186.915    23038187.2254   23038199.6584
 80  9  1 19 18  8.0000000  0  6 24  6  9  7  5 30                  -0.000000060
   -109464.356 9    -82714.59049  20167756.451    20167756.2134   20167764.9654
  -1147690.901 8   -878688.42945  24787975.301    24787974.5924   24787995.6464
   1317983.953 9   1014649.41247  22686587.993    22686587.7624   22686601.3704
   1034250.080 8    800342.88545  24364461.361    24364460.5834   24364472.7644
   -933300.113 9   -719369.90948  20625039.641    20625039.0734   20625047.9124
  -1361694.509 9  -1041724.93646  23037585.300    23037585.6024   23037598.0644
 80  9  1 19 18  9.0000000  0  6 24  6  9  7  5 30                  -0.000000059
   -109224.279 9    -82527.51549  20167802.149    20167801.9214   20167810.6744
  -1150085.864 8   -880554.62745  24787519.543    24787518.8384   24787539.8724
   1320658.506 9   1016733.46947  22687096.953    22687096.7194   22687110.3304
   1036522.645 8    802113.71145  24364893.855    24364893.0844   24364905.2724
   -934766.195 9   -720512.30748  20624760.642    20624760.0664   20624768.9064
  -1364855.762 9  -1044188.24546  23036983.725    23036984.0284   23036996.4774
 80  9  1 19 18 10.0000000  0  6 24  6  9  7  5 30                  -0.000000059
   -108983.556 9    -82339.94149  20167847.953    20167847.7294   20167856.4864
  -1152480.742 8   -882420.75945  24787063.811    24787063.1034   24787084.1354
   1323333.404 9   1018817.78847  22687605.959    22687605.7274   22687619.3404
   1038795.319 8    803884.61845  24365326.330    24365325.5564   24365337.7684
   -936231.777 9   -721654.32048  20624481.752    20624481.1894   20624490.0204
  -1368016.821 9  -1046651.40046  23036382.190    23036382.4854   23036394.9524
 80  9  1 19 18 11.0000000  0  6 24  6  9  7  5 30                  -0.000000059
   -108742.386 9    -82152.01449  20167893.848    20167893.6284   20167902.3704
  -1154875.709 8   -884286.96045  24786608.061    24786607.3594   24786628.3774
   1326008.466 9   1020902.24447  22688115.013    22688114.7854   22688128.3984
   1041067.967 8    805655.50645  24365758.813    24365758.0264   24365770.2524
   -937697.025 9   -722796.06948  20624202.915    20624202.3424   20624211.1904
  -1371177.833 9  -1049114.51646  23035780.666    23035780.9714   23035793.4324
 80  9  1 19 18 12.0000000  0  6 24  6  9  7  5 30                  -0.000000058
   -108500.731 9    -81963.70849  20167939.830    20167939.6064   20167948.3674
  -1157270.725 8   -886153.19945  24786152.307    24786151.5944   24786172.6124
   1328683.746 9   1022986.87347  22688624.104    22688623.8724   22688637.4984
   1043340.583 8    807426.37245  24366191.320    24366190.5364   24366202.7504
   -939161.904 9   -723937.53048  20623924.163    20623923.5954   20623932.4364
  -1374338.766 9  -1051577.57746  23035179.173    23035179.4774   23035191.9304
 80  9  1 19 18 13.0000000  0  6 24  6  9  7  5 30                  -0.000000058
   -108258.483 9    -81774.94249  20167985.917    20167985.6844   20167994.4534
  -1159665.697 8   -888019.40145  24785696.565    24785695.8604   24785716.8564
   1331359.324 9   1025071.73847  22689133.279    22689133.0494   22689146.6774
   1045613.262 8    809197.28445  24366623.804    24366623.0084   24366635.2204
   -940626.342 9   -725078.64748  20623645.503    20623644.9284   20623653.7784
  -1377499.548 9  -1054040.51546  23034577.684    23034577.9844   23034590.4384
 80  9  1 19 18 14.0000000  0  6 24  6  9  7  5 30                  -0.000000057
   -108015.752 9    -81585.80049  20168032.115    20168031.8824   20168040.6504
  -1162060.712 8   -889885.63945  24785240.801    24785240.0864   24785261.0904
   1334035.112 9   1027156.76147  22689642.451    22689642.2274   22689655.8444
   1047885.949 8    810968.20445  24367056.286    24367055.4694   24367067.6864
   -942090.419 9   -726219.48848  20623366.881    20623366.3214   20623375.1604
  -1380660.253 9  -1056503.39346  23033976.227    23033976.5304   23033988.9804
 80  9  1 19 18 15.0000000  0  6 24  6  9  7  5 30                  -0.000000057
   -107772.442 9    -81396.20849  20168078.414    20168078.1904   20168086.9464
  -1164455.692 8   -891751.84845  24784785.050    24784784.3314   24784805.3304
   1336711.207 9   1029242.01847  22690151.716    22690151.4854   22690165.1164
   1050158.730 8    812739.19645  24367488.806    24367487.9794   24367500.2004
   -943554.027 9   -727359.96248  20623088.361    20623087.7934   20623096.6314
  -1383820.790 9  -1058966.13946  23033374.792    23033375.0864   23033387.5374
 80  9  1 19 18 16.0000000  0  6 24  6  9  7  5 30                  -0.000000057
   -107528.531 9    -81206.14849  20168124.826    20168124.6084   20168133.3534
  -1166850.619 8   -893618.01545  24784329.291    24784328.5774   24784349.5694
   1339387.624 9   1031327.52447  22690661.016    22690660.7824   22690674.4204
   1052431.590 8    814510.25245  24367921.336    24367920.5004   24367932.7134
   -945017.164 9   -728500.06948  20622809.947    20622809.3864   20622818.2324
  -1386981.135 9  -1061428.74246  23032773.406    23032773.7034   23032786.1424
 80  9  1 19 18 17.0000000  0  6 24  6  9  7  5 30                  -0.000000056
   -107284.121 9    -81015.69749  20168171.321    20168171.1064   20168179.8584
  -1169245.575 8   -895484.20345  24783873.566    24783872.8524   24783893.8414
   1342064.296 9   1033413.23547  22691170.389    22691170.1694   22691183.8004
   1054704.479 8    816281.33145  24368353.873    24368353.0104   24368365.2104
   -946479.899 9   -729639.86048  20622531.594    20622531.0394   20622539.8774
  -1390141.370 9  -1063891.25746  23032172.033    23032172.3294   23032184.7584
 80  9  1 19 18 18.0000000  0  6 24  6  9  7  5 30                  -0.000000056
   -107039.083 9    -80824.76049  20168217.954    20168217.7334   20168226.4864
  -1171640.405 8   -897350.29345  24783417.840    24783417.1284   24783438.1154
   1344741.335 9   1035499.22947  22691679.812    22691679.5864   22691693.2224
   1056977.493 8    818052.50745  24368786.439    24368785.5704   24368797.7514
   -947942.110 9   -730779.24548  20622253.323    20622252.7624   20622261.6014
  -1393301.388 9  -1066353.60746  23031570.696    23031570.9854   23031583.4124
 80  9  1 19 18 19.0000000  0  6 24  6  9  7  5 30                  -0.000000056
   -106793.641 9    -80633.50549  20168264.684    20168264.4714   20168273.2094
  -1174035.332 8   -899216.46145  24782962.074    24782961.3534   24782982.3414
   1347418.519 9   1037585.34047  22692189.282    22692189.0544   22692202.6874
   1059250.450 8    819823.63245  24369218.998    24369218.1304   24369230.2994
   -949404.022 9   -731918.39848  20621975.137    20621974.5744   20621983.4204
  -1396461.415 9  -1068815.95546  23030969.350    23030969.6424   23030982.0604
 80  9  1 19 18 20.0000000  0  6 24  6  9  7  5 30                  -0.000000055
   -106547.631 9    -80441.80749  20168311.479    20168311.2694   20168320.0144
  -1176430.225 8   -901082.60545  24782506.355    24782505.6394   24782526.6184
   1350096.026 9   1039671.70747  22692698.794    22692698.5714   22692712.2024
   1061523.470 8    821594.80945  24369651.541    24369650.6804   24369662.8254
   -950865.466 9   -733057.18348  20621697.028    20621696.4774   20621705.3084
  -1399621.254 9  -1071278.16346  23030368.081    23030368.3694   23030380.7984
 80  9  1 19 18 21.0000000  0  6 24  6  9  7  5 30                  -0.000000055
   -106301.130 9    -80249.72649  20168358.405    20168358.1864   20168366.9294
  -1178825.123 8   -902948.74945  24782050.612    24782049.8944   24782070.8754
   1352773.761 9   1041758.24647  22693208.377    22693208.1584   22693221.7874
   1063796.535 8    823366.02245  24370084.105    24370083.2514   24370095.3994
   -952326.512 9   -734195.66248  20621419.012    20621418.4594   20621427.2954
  -1402780.987 9  -1073740.28846  23029766.778    23029767.0554   23029779.4944
 80  9  1 19 18 22.0000000  0  6 24  6  9  7  5 30                  -0.000000054
   -106053.890 9    -80057.07349  20168405.450    20168405.2344   20168413.9854
  -1181219.826 8   -904814.74345  24781594.892    24781594.1804   24781615.1614
   1355451.974 9   1043845.15747  22693718.028    22693717.8054   22693731.4294
   1066069.773 8    825137.37045  24370516.705    24370515.8524   24370527.9874
   -953786.946 9   -735333.66048  20621141.091    20621140.5314   20621149.3724
  -1405940.411 9  -1076202.17146  23029165.579    23029165.8404   23029178.2924
 80  9  1 19 18 23.0000000  0  6 24  6  9  7  5 30                  -0.000000054
   -105806.348 9    -79864.18349  20168452.542    20168452.3314   20168461.0674
  -1183614.707 8   -906680.87545  24781139.162    24781138.4454   24781159.4424
   1358130.218 9   1045932.09547  22694227.681    22694227.4534   22694241.0794
   1068342.847 8    826908.59445  24370949.268    24370948.4034   24370960.5534
   -955247.179 9   -736471.49848  20620863.238    20620862.6744   20620871.5184
  -1409099.927 9  -1078664.12746  23028564.329    23028564.5874   23028577.0304
 80  9  1 19 18 24.0000000  0  6 24  6  9  7  5 30                  -0.000000054
   -105558.231 9    -79670.84449  20168499.761    20168499.5384   20168508.2964
  -1186009.495 8   -908546.93545  24780683.455    24780682.7314   24780703.7344
   1360808.807 9   1048019.29647  22694737.406    22694737.1804   22694750.8044
   1070616.052 8    828679.91445  24371381.850    24371380.9844   24371393.1324
   -956706.914 9   -737608.95448  20620585.446    20620584.8864   20620593.7194
  -1412259.239 9  -1081125.92346  23027963.134    23027963.3834   23027975.8294
